[[{"header":{"parameterUnit":"m.s-1","parameterCategory":1,"la1":30.6,"la2":28.766,"lo1":-90.7593,"lo2":-88.6598,"dy":0.0162,"dx":0.0183,"nx":116,"ny":114,"refTime":"2023-11-19T06:00:00:Z","depth":0,"parameterNumber":2,"parameterNumberName":"U-component_of_WINDS"},"data":[0.0,0.0,0.0,0.0,0.0,0.0,0.0,0.0,0.0,0.0,0.0,0.0,0.0,0.0,0.0,0.0,0.0,0.0,0.0,0.0,0.0,0.0,0.0,0.0,0.0,0.0,0.0,0.0,0.0,0.0,0.0,0.0,0.0,0.0,0.0,0.0,0.0,0.0,0.0,0.0,0.0,0.0,0.0,0.0,0.0,0.0,0.0,0.0,0.0,0.0,0.0,0.0,0.0,0.0,0.0,0.0,0.0,0.0,0.0,0.0,0.0,0.0,0.0,0.0,0.0,0.0,0.0,0.0,0.0,0.0,0.0,0.0,0.0,0.0,0.0,0.0,0.0,0.0,0.0,0.0,0.0,0.0,0.0,0.0,0.0,0.0,0.0,0.0,0.0,0.0,0.0,0.0,0.0,0.0,0.0,0.0,0.0,0.0,0.0,0.0,0.0,0.0,0.0,0.0,0.0,0.0,0.0,0.0,0.0,0.0,0.0,0.0,0.0,0.0,0.0,0.0,0.0,0.0,0.0,0.0,0.0,0.0,0.0,0.0,0.0,0.0,0.0,0.0,0.0,0.0,0.0,0.0,0.0,0.0,0.0,0.0,0.0,0.0,0.0,0.0,0.0,0.0,0.0,0.0,0.0,0.0,0.0,0.0,0.0,0.0,0.0,0.0,0.0,0.0,0.0,0.0,0.0,0.0,0.0,0.0,0.0,0.0,0.0,0.0,0.0,0.0,0.0,0.0,0.0,0.0,0.0,0.0,0.0,0.0,0.0,0.0,0.0,0.0,0.0,0.0,0.0,0.0,0.0,0.0,0.0,0.0,0.0,0.0,0.0,0.0,0.0,0.0,0.0,0.0,0.0,0.0,0.0,0.0,0.0,0.0,0.0,0.0,0.0,0.0,0.0,0.0,0.0,0.0,0.0,0.0,0.0,0.0,0.0,0.0,0.0,0.0,0.0,0.0,0.0,0.0,0.0,0.0,0.0,0.0,0.0,0.0,0.0,0.0,0.0,0.0,0.0,0.0,0.0,0.0,0.0,0.0,0.0,0.0,0.0,0.0,0.0,0.0,0.0,0.0,0.0,0.0,0.0,0.0,0.0,0.0,0.0,0.0,0.0,0.0,0.0,0.0,0.0,0.0,0.0,0.0,0.0,0.0,0.0,0.0,0.0,0.0,0.0,0.0,0.0,0.0,0.0,0.0,0.0,0.0,0.0,0.0,0.0,0.0,0.0,0.0,0.0,0.0,0.0,0.0,0.0,0.0,0.0,0.0,0.0,0.0,0.0,0.0,0.0,0.0,0.0,0.0,0.0,0.0,0.0,0.0,0.0,0.0,0.0,0.0,0.0,0.0,0.0,0.0,0.0,0.0,0.0,0.0,0.0,0.0,0.0,0.0,0.0,0.0,0.0,0.0,0.0,0.0,0.0,0.0,0.0,0.0,0.0,0.0,0.0,0.0,0.0,0.0,0.0,0.0,0.0,0.0,0.0,0.0,0.0,0.0,0.0,0.0,0.0,0.0,0.0,0.0,0.0,0.0,0.0,0.0,0.0,0.0,0.0,0.0,0.0,0.0,0.0,0.0,0.0,0.0,0.0,0.0,0.0,0.0,0.0,0.0,0.0,0.0,0.0,0.0,0.0,0.0,0.0,0.0,0.0,0.0,0.0,0.0,0.0,0.0,0.0,0.0,0.0,0.0,0.0,0.0,0.0,0.0,0.0,0.0,0.0,0.0,0.0,0.0,0.0,0.0,0.0,0.0,0.0,0.0,0.0,0.0,0.0,0.0,0.0,0.0,0.0,0.0,0.0,0.0,0.0,0.0,0.0,0.0,0.0,0.0,0.0,0.0,0.0,0.0,0.0,0.0,0.0,0.0,0.0,0.0,0.0,0.0,0.0,0.0,0.0,0.0,0.0,0.0,0.0,0.0,0.0,0.0,0.0,0.0,0.0,0.0,0.0,0.0,0.0,0.0,0.0,0.0,0.0,0.0,0.0,0.0,0.0,0.0,0.0,0.0,0.0,0.0,0.0,0.0,0.0,0.0,0.0,0.0,0.0,0.0,0.0,0.0,0.0,0.0,0.0,0.0,0.0,0.0,0.0,0.0,0.0,0.0,0.0,0.0,0.0,0.0,0.0,0.0,0.0,0.0,0.0,0.0,0.0,0.0,0.0,0.0,0.0,0.0,0.0,0.0,0.0,0.0,0.0,0.0,0.0,0.0,0.0,0.0,0.0,0.0,0.0,0.0,0.0,0.0,0.0,0.0,0.0,0.0,0.0,0.0,0.0,0.0,0.0,0.0,0.0,0.0,0.0,0.0,0.0,0.0,0.0,0.0,0.0,0.0,0.0,0.0,0.0,0.0,0.0,0.0,0.0,0.0,0.0,0.0,0.0,0.0,0.0,0.0,0.0,0.0,0.0,0.0,0.0,0.0,0.0,0.0,0.0,0.0,0.0,0.0,0.0,0.0,0.0,0.0,0.0,0.0,0.0,0.0,0.0,0.0,0.0,0.0,0.0,0.0,0.0,0.0,0.0,0.0,0.0,0.0,0.0,0.0,0.0,0.0,0.0,0.0,0.0,0.0,0.0,0.0,0.0,0.0,0.0,0.0,0.0,0.0,0.0,0.0,0.0,0.0,0.0,0.0,0.0,0.0,0.0,0.0,0.0,0.0,0.0,0.0,0.0,0.0,0.0,0.0,0.0,0.0,0.0,0.0,0.0,0.0,0.0,0.0,0.0,0.0,0.0,0.0,0.0,0.0,0.0,0.0,0.0,0.0,0.0,0.0,0.0,0.0,0.0,0.0,0.0,0.0,0.0,0.0,0.0,0.0,0.0,0.0,0.0,0.0,0.0,0.0,0.0,0.0,0.0,0.0,0.0,0.0,0.0,0.0,0.0,0.0,0.0,0.0,0.0,0.0,0.0,0.0,0.0,0.0,0.0,0.0,0.0,0.0,0.0,0.0,0.0,0.0,0.0,0.0,0.0,0.0,0.0,0.0,0.0,0.0,0.0,0.0,0.0,0.0,0.0,0.0,0.0,0.0,0.0,0.0,0.0,0.0,0.0,0.0,0.0,0.0,0.0,0.0,0.0,0.0,0.0,0.0,0.0,0.0,0.0,0.0,0.0,0.0,0.0,0.0,0.0,0.0,0.0,0.0,0.0,0.0,0.0,0.0,0.0,0.0,0.0,0.0,0.0,0.0,0.0,0.0,0.0,0.0,0.0,0.0,0.0,0.0,0.0,0.0,0.0,0.0,0.0,0.0,0.0,0.0,0.0,0.0,0.0,0.0,0.0,0.0,0.0,0.0,0.0,0.0,0.0,0.0,0.0,0.0,0.0,0.0,0.0,0.0,0.0,0.0,0.0,0.0,0.0,0.0,0.0,0.0,0.0,0.0,0.0,0.0,0.0,0.0,0.0,0.0,0.0,0.0,0.0,0.0,0.0,0.0,0.0,0.0,0.0,0.0,0.0,0.0,0.0,0.0,0.0,0.0,0.0,0.0,0.0,0.0,0.0,0.0,0.0,0.0,0.0,0.0,0.0,0.0,0.0,0.0,0.0,0.0,0.0,0.0,0.0,0.0,0.0,0.0,0.0,0.0,0.0,0.0,0.0,0.0,0.0,0.0,0.0,0.0,0.0,0.0,0.0,0.0,0.0,0.0,0.0,0.0,0.0,0.0,0.0,0.0,0.0,0.0,0.0,0.0,0.0,0.0,0.0,0.0,0.0,0.0,0.0,0.0,0.0,0.0,0.0,0.0,0.0,0.0,0.0,0.0,0.0,0.0,0.0,0.0,0.0,0.0,0.0,0.0,0.0,0.0,0.0,0.0,0.0,0.0,0.0,0.0,0.0,0.0,0.0,0.0,0.0,0.0,0.0,0.0,0.0,0.0,0.0,0.0,0.0,0.0,0.0,0.0,0.0,0.0,0.0,0.0,0.0,0.0,0.0,0.0,0.0,0.0,0.0,0.0,0.0,0.0,0.0,0.0,0.0,0.0,0.0,0.0,0.0,0.0,0.0,0.0,0.0,0.0,0.0,0.0,0.0,0.0,0.0,0.0,0.0,0.0,0.0,0.0,0.0,0.0,0.0,0.0,0.0,0.0,0.0,0.0,0.0,0.0,0.0,0.0,0.0,0.0,0.0,0.0,0.0,0.0,0.0,0.0,0.0,0.0,0.0,0.0,0.0,0.0,0.0,0.0,0.0,0.0,0.0,0.0,0.0,0.0,0.0,0.0,0.0,0.0,0.0,0.0,0.0,0.0,0.0,0.0,0.0,0.0,0.0,0.0,0.0,0.0,0.0,0.0,0.0,0.0,0.0,0.0,0.0,0.0,0.0,0.0,0.0,0.0,0.0,0.0,0.0,0.0,0.0,0.0,0.0,0.0,0.0,0.0,0.0,0.0,0.0,0.0,0.0,0.0,0.0,0.0,0.0,0.0,0.0,0.0,0.0,0.0,0.0,0.0,0.0,0.0,0.0,0.0,0.0,0.0,0.0,0.0,0.0,0.0,0.0,0.0,0.0,0.0,0.0,0.0,0.0,0.0,0.0,0.0,0.0,0.0,0.0,0.0,0.0,0.0,0.0,0.0,0.0,0.0,0.0,0.0,0.0,0.0,0.0,0.0,0.0,0.0,0.0,0.0,0.0,0.0,0.0,0.0,0.0,0.0,0.0,0.0,0.0,0.0,0.0,0.0,0.0,0.0,0.0,0.0,0.0,0.0,0.0,0.0,0.0,0.0,0.0,0.0,0.0,0.0,0.0,0.0,0.0,0.0,0.0,0.0,0.0,0.0,0.0,0.0,0.0,0.0,0.0,0.0,0.0,0.0,0.0,0.0,0.0,0.0,0.0,0.0,0.0,0.0,0.0,0.0,0.0,0.0,0.0,0.0,0.0,0.0,0.0,0.0,0.0,0.0,0.0,0.0,0.0,0.0,0.0,0.0,0.0,0.0,0.0,0.0,0.0,0.0,0.0,0.0,0.0,0.0,0.0,0.0,0.0,0.0,0.0,0.0,0.0,0.0,0.0,0.0,0.0,0.0,0.0,0.0,0.0,0.0,0.0,0.0,0.0,0.0,0.0,0.0,0.0,0.0,0.0,0.0,0.0,0.0,0.0,0.0,0.0,0.0,0.0,0.0,0.0,0.0,0.0,0.0,0.0,0.0,0.0,0.0,0.0,0.0,0.0,0.0,0.0,0.0,0.0,0.0,0.0,0.0,0.0,0.0,0.0,0.0,0.0,0.0,0.0,0.0,0.0,0.0,0.0,0.0,0.0,0.0,0.0,0.0,0.0,0.0,0.0,0.0,0.0,0.0,0.0,0.0,0.0,0.0,0.0,0.0,0.0,0.0,0.0,0.0,0.0,0.0,0.0,0.0,0.0,0.0,0.0,0.0,0.0,0.0,0.0,0.0,0.0,0.0,0.0,0.0,0.0,0.0,0.0,0.0,0.0,0.0,0.0,0.0,0.0,0.0,0.0,0.0,0.0,0.0,0.0,0.0,0.0,0.0,0.0,0.0,0.0,0.0,0.0,0.0,0.0,0.0,0.0,0.0,0.0,0.0,0.0,0.0,0.0,0.0,0.0,0.0,0.0,0.0,0.0,0.0,0.0,0.0,0.0,0.0,0.0,0.0,0.0,0.0,0.0,0.0,0.0,0.0,0.0,0.0,0.0,0.0,0.0,0.0,0.0,0.0,0.0,0.0,0.0,0.0,0.0,0.0,0.0,0.0,0.0,0.0,0.0,0.0,0.0,0.0,0.0,0.0,0.0,0.0,0.0,0.0,0.0,0.0,0.0,0.0,0.0,0.0,0.0,0.0,0.0,0.0,0.0,0.0,0.0,0.0,0.0,0.0,0.0,0.0,0.0,0.0,0.0,0.0,0.0,0.0,0.0,0.0,0.0,0.0,0.0,0.0,0.0,0.0,0.0,0.0,0.0,0.0,0.0,0.0,0.0,0.0,0.0,0.0,0.0,0.0,0.0,0.0,0.0,0.0,0.0,0.0,0.0,0.0,0.0,0.0,0.0,0.0,0.0,0.0,0.0,0.0,0.0,0.0,0.0,0.0,0.0,0.0,0.0,0.0,0.0,0.0,0.0,0.0,-5.3623,0.0,0.0,0.0,0.0,0.0,0.0,0.0,0.0,0.0,0.0,0.0,0.0,0.0,0.0,0.0,0.0,0.0,0.0,0.0,0.0,0.0,0.0,0.0,0.0,0.0,0.0,0.0,0.0,0.0,0.0,0.0,0.0,0.0,0.0,0.0,0.0,0.0,0.0,-4.9018,-4.8064,-4.7373,-4.6902,-4.7734,-4.8133,-4.8166,0.0,0.0,0.0,0.0,0.0,0.0,0.0,0.0,0.0,0.0,0.0,0.0,0.0,0.0,0.0,0.0,0.0,0.0,0.0,0.0,0.0,0.0,0.0,0.0,0.0,0.0,0.0,0.0,0.0,0.0,0.0,0.0,0.0,0.0,0.0,0.0,0.0,0.0,0.0,0.0,0.0,0.0,0.0,0.0,0.0,0.0,0.0,0.0,0.0,0.0,0.0,0.0,0.0,0.0,0.0,0.0,0.0,0.0,0.0,0.0,0.0,0.0,0.0,0.0,0.0,0.0,0.0,0.0,0.0,0.0,0.0,-5.497,0.0,0.0,0.0,0.0,0.0,0.0,0.0,0.0,0.0,0.0,0.0,0.0,0.0,0.0,0.0,0.0,0.0,0.0,0.0,0.0,0.0,0.0,0.0,-5.0202,-4.9959,-4.943,-4.9267,-4.9206,0.0,0.0,0.0,0.0,0.0,0.0,-4.9018,-4.9018,-4.9018,-4.9018,-4.7901,-4.7119,-4.6676,-4.6803,-4.6929,-4.7093,-4.858,0.0,0.0,0.0,0.0,0.0,0.0,0.0,0.0,0.0,0.0,0.0,0.0,0.0,0.0,0.0,0.0,0.0,0.0,0.0,0.0,0.0,0.0,0.0,0.0,0.0,0.0,0.0,0.0,0.0,0.0,0.0,0.0,0.0,0.0,0.0,0.0,0.0,0.0,0.0,0.0,0.0,0.0,0.0,0.0,0.0,0.0,0.0,0.0,0.0,0.0,0.0,0.0,0.0,0.0,0.0,0.0,0.0,0.0,0.0,0.0,0.0,0.0,0.0,-5.6316,-5.6885,-5.7304,-5.7992,-5.8291,-5.8231,-5.7274,-5.6107,-5.488,-5.476,0.0,0.0,0.0,0.0,0.0,0.0,0.0,0.0,0.0,0.0,0.0,0.0,0.0,0.0,0.0,0.0,0.0,0.0,0.0,0.0,0.0,-5.0955,-5.0943,-5.0887,-5.0276,-4.988,-4.9961,0.0,0.0,0.0,0.0,0.0,-4.9018,-4.9018,-4.9018,-4.9018,-4.7239,-4.5798,-4.469,-4.5263,-4.5867,-4.6422,-4.7196,-4.7786,-4.8139,0.0,0.0,0.0,0.0,0.0,0.0,0.0,0.0,0.0,0.0,0.0,0.0,0.0,0.0,0.0,0.0,0.0,0.0,0.0,0.0,0.0,0.0,0.0,0.0,0.0,0.0,0.0,0.0,0.0,0.0,0.0,0.0,0.0,0.0,0.0,0.0,0.0,0.0,0.0,0.0,0.0,-5.5162,-5.6337,0.0,0.0,0.0,0.0,0.0,0.0,0.0,0.0,0.0,0.0,0.0,0.0,0.0,-5.6166,-5.6705,-5.7872,-5.7902,-5.6855,-5.8112,-5.8471,-5.8022,-5.868,-5.8979,-5.9009,-5.9398,0.0,-5.7573,-5.6974,0.0,0.0,0.0,0.0,0.0,0.0,0.0,0.0,0.0,0.0,0.0,0.0,0.0,0.0,0.0,0.0,0.0,0.0,0.0,0.0,0.0,-5.1667,-5.1536,-5.1181,-5.085,-5.031,-4.9473,-4.9161,0.0,0.0,0.0,-4.8376,-4.8376,-4.8781,-4.8683,-4.7996,-4.759,-4.6698,-4.5454,-4.5723,-4.6232,-4.6873,-4.6763,-4.6928,-4.7321,-4.7794,0.0,0.0,0.0,0.0,0.0,0.0,0.0,0.0,0.0,0.0,0.0,0.0,0.0,0.0,0.0,0.0,0.0,0.0,0.0,0.0,0.0,0.0,0.0,0.0,0.0,0.0,0.0,0.0,0.0,0.0,0.0,0.0,0.0,0.0,0.0,0.0,0.0,0.0,0.0,-5.3356,-5.4786,-5.5524,-5.5721,-5.5301,0.0,0.0,0.0,0.0,0.0,0.0,0.0,0.0,0.0,-5.6795,-5.7483,-5.7962,-5.8231,-5.9189,-5.9548,-5.9368,-6.0326,-6.0835,-6.0924,-6.1194,-6.1343,-6.1343,-6.1642,-6.1224,-6.0206,-5.8411,-5.6944,-5.5688,0.0,0.0,0.0,0.0,-5.3144,-5.3503,0.0,0.0,0.0,0.0,0.0,0.0,0.0,0.0,0.0,0.0,0.0,0.0,-5.2427,-5.2562,-5.2401,-5.1704,-5.1384,-5.0641,-4.9292,-4.8724,-4.7936,-4.6853,-4.7327,-4.7631,-4.7631,-4.8545,-4.8527,-4.7584,-4.8235,-4.7917,-4.6713,-4.6599,-4.683,-4.7279,-4.68,-4.6682,-4.6893,-4.7428,-4.7425,-4.7127,0.0,0.0,0.0,0.0,0.0,0.0,0.0,0.0,0.0,0.0,0.0,0.0,0.0,0.0,0.0,0.0,0.0,0.0,0.0,0.0,0.0,0.0,0.0,0.0,0.0,0.0,0.0,0.0,0.0,0.0,0.0,0.0,0.0,0.0,0.0,0.0,0.0,-5.3892,-5.4959,-5.4969,-5.5549,-5.5471,0.0,0.0,0.0,0.0,0.0,0.0,-5.5867,-5.6855,-5.7752,-5.859,-5.9279,-5.9697,-5.9877,-6.0505,-6.1104,-6.1613,-6.2121,-6.26,-6.3079,-6.3079,-6.3079,-6.3079,-6.3079,-6.281,-6.2181,-5.9847,-5.8381,-5.7453,-5.5837,-5.5388,-5.5598,-5.494,-5.5029,-5.5478,0.0,0.0,0.0,0.0,0.0,0.0,0.0,0.0,0.0,0.0,0.0,-5.3203,-5.3146,-5.3842,-5.3989,-5.3255,-5.1958,-5.0885,-5.0077,-4.807,-4.6887,-4.6786,-4.6819,-4.6853,-4.6853,-4.8274,-4.8882,-4.8625,-4.901,-4.8737,-4.7698,-4.7431,-4.7279,-4.7309,-4.7279,-4.7292,-4.7199,-4.6238,-4.5811,-4.5915,-4.7125,0.0,0.0,0.0,0.0,0.0,0.0,0.0,0.0,0.0,0.0,0.0,0.0,0.0,0.0,0.0,0.0,0.0,0.0,0.0,0.0,0.0,0.0,0.0,0.0,0.0,0.0,0.0,0.0,0.0,0.0,0.0,0.0,0.0,0.0,0.0,0.0,0.0,0.0,-5.534,-5.6847,0.0,0.0,0.0,0.0,-5.6008,-5.6555,-5.7214,-5.7932,-5.8022,-5.865,-5.9937,-6.0655,-6.1313,-6.1942,-6.26,-6.2959,-6.2989,-6.3019,-6.3049,-6.3079,-6.3079,-6.3079,-6.3079,-6.3079,-6.3049,-6.2929,-6.1523,-6.0176,-5.8949,-5.8201,-5.7543,-5.6915,-5.6286,-5.6107,-5.6047,0.0,0.0,0.0,0.0,0.0,0.0,0.0,0.0,-5.2417,-5.2417,-5.2894,-5.3387,-5.3922,-5.4216,-5.4496,-5.4756,-5.3893,-5.26,-5.092,-4.9146,-4.7746,-4.6849,-4.6346,-4.6752,-4.8173,-4.9661,-5.0056,-4.935,-5.0445,-4.9871,-4.7738,-4.808,-4.7904,-4.7309,-4.7309,-4.7309,-4.7219,-4.6429,-4.5969,-4.5711,-4.5772,-4.601,0.0,0.0,0.0,0.0,0.0,0.0,0.0,0.0,0.0,0.0,0.0,0.0,0.0,0.0,0.0,0.0,0.0,0.0,0.0,0.0,0.0,0.0,0.0,0.0,0.0,0.0,0.0,0.0,0.0,0.0,0.0,0.0,0.0,0.0,0.0,0.0,0.0,-5.8291,-5.9368,0.0,-5.7872,-5.7543,-5.7423,-5.7423,-5.8022,-5.889,-5.9997,-6.0446,-6.1104,-6.1972,-6.2241,-6.248,-6.272,-6.2959,-6.3079,-6.3079,-6.3079,-6.3079,-6.3079,-6.3079,-6.3079,-6.3079,-6.3079,-6.3079,-6.3049,-6.257,-6.1852,-6.0924,-5.9817,-5.9518,-5.9548,-5.8471,-5.8321,-5.859,0.0,0.0,0.0,0.0,0.0,0.0,0.0,0.0,-5.161,-5.161,-5.2307,-5.3004,-5.3518,-5.4069,-5.462,-5.5133,-5.4298,-5.3014,-5.1258,-4.9475,-4.7942,-4.6735,-4.6763,-4.7311,-4.8532,-5.0301,-5.0913,-5.0191,-5.0841,-5.0347,-4.8737,-4.864,-4.8333,-4.7956,-4.7956,-4.811,-4.8335,-4.7875,-4.6854,-4.5568,-4.5457,-4.5684,-4.5837,0.0,0.0,0.0,0.0,0.0,0.0,0.0,0.0,0.0,0.0,0.0,0.0,0.0,0.0,0.0,0.0,0.0,0.0,0.0,0.0,0.0,0.0,0.0,0.0,0.0,0.0,0.0,0.0,0.0,0.0,0.0,0.0,0.0,0.0,0.0,-5.9279,-5.9697,-6.1134,-6.1373,-5.9608,-5.9668,-5.9697,-5.9488,-6.0086,-6.0835,-6.1732,-6.2181,-6.263,-6.3079,-6.3079,-6.3079,-6.3079,-6.3079,-6.3079,-6.3079,-6.3079,-6.3079,-6.3079,-6.3079,-6.3079,-6.3079,-6.3079,-6.3079,-6.3079,-6.3079,-6.281,-6.2331,-6.1433,-6.1253,-6.1313,-6.0206,-5.9907,-5.9997,0.0,0.0,0.0,0.0,0.0,0.0,0.0,-5.1242,-5.0765,-5.0765,-5.1463,-5.2013,-5.2013,-5.3445,-5.4399,-5.4436,-5.3072,-5.1881,-5.1063,-4.896,-4.7346,-4.646,-4.8079,-4.8604,-4.7823,-5.0124,-5.133,-5.1248,-5.0258,-5.0144,-5.0735,-4.8978,-4.8563,-4.9303,-4.9303,-4.9687,-5.0397,-5.0397,-4.8505,-4.5541,-4.6392,-4.6315,-4.5749,0.0,0.0,0.0,0.0,0.0,0.0,0.0,0.0,0.0,0.0,0.0,0.0,0.0,0.0,0.0,0.0,0.0,0.0,0.0,0.0,0.0,0.0,0.0,0.0,0.0,0.0,0.0,0.0,0.0,0.0,0.0,0.0,0.0,-5.5359,-5.868,-6.0655,-5.9458,-6.2091,-6.3019,-6.0505,-6.2002,-6.2839,-6.2241,-6.275,-6.3109,-6.3109,-6.3139,-6.3109,-6.3079,-6.3109,-6.3109,-6.3079,-6.3079,-6.3079,-6.3079,-6.3079,-6.3079,-6.3079,-6.3079,-6.3079,-6.3079,-6.3079,-6.3079,-6.3079,-6.3049,-6.3049,-6.3079,-6.3079,-6.266,-6.2032,-6.1373,-6.0655,-5.9967,0.0,0.0,0.0,0.0,0.0,0.0,0.0,-5.0088,-4.9941,-4.9941,-5.1153,-5.2197,-5.2821,-5.3775,-5.462,-5.5207,-5.3829,-5.2593,-5.1834,-4.9631,-4.8041,-4.7381,-4.9366,-5.0397,-5.0163,-5.1915,-5.2516,-5.1948,-5.1709,-5.1002,-4.9922,-4.9482,-4.9293,-4.9303,-4.9303,-4.9687,-5.0397,-5.0397,-4.9864,-4.8875,-4.7434,-4.6741,-4.6392,0.0,0.0,0.0,0.0,0.0,0.0,0.0,0.0,0.0,0.0,0.0,0.0,0.0,0.0,0.0,0.0,0.0,0.0,0.0,0.0,0.0,0.0,0.0,0.0,0.0,0.0,0.0,0.0,0.0,0.0,0.0,0.0,-5.7244,-5.9219,-6.0416,-6.1852,-6.3887,-6.4036,-6.4096,-6.4366,-6.4006,-6.3887,-6.4186,-6.3917,-6.3737,-6.3737,-6.4216,-6.4066,-6.3109,-6.3498,-6.3528,-6.3079,-6.3079,-6.3079,-6.3079,-6.3079,-6.3079,-6.3079,-6.3079,-6.3079,-6.3079,-6.3079,-6.3079,-6.3049,-6.257,-6.266,-6.3079,-6.3079,-6.266,-6.2032,-6.1373,-6.0386,-5.9338,0.0,0.0,0.0,0.0,0.0,0.0,0.0,-4.928,-4.904,-4.904,-5.0472,-5.1683,-5.216,-5.2601,-5.3078,-5.3555,-5.2417,-5.1208,-5.0083,-4.9029,-4.8466,-4.8487,-5.071,-5.1682,-5.1019,-5.2208,-5.2624,-5.2201,-5.159,-5.1071,-5.0676,-5.0397,-5.0373,-5.0526,-5.0526,-5.0926,-5.168,-5.168,-5.1699,-5.1528,-4.9727,-4.8764,-4.8144,-4.6152,-4.5432,-4.5342,-4.4947,-4.4841,-4.4997,-4.5728,0.0,0.0,0.0,0.0,0.0,0.0,0.0,0.0,0.0,0.0,0.0,0.0,0.0,0.0,0.0,0.0,0.0,0.0,0.0,0.0,0.0,0.0,0.0,0.0,-5.6555,-5.9279,-6.1942,-6.2331,-6.3019,-6.4934,-6.5203,-6.5353,-6.5562,-6.5144,-6.4904,-6.5024,-6.4665,-6.4425,-6.4425,-6.4814,-6.4545,-6.3498,-6.3827,-6.3707,-6.3079,-6.3079,-6.3079,-6.3079,-6.3079,-6.3079,-6.3079,-6.3079,-6.3079,-6.3049,-6.278,-6.281,-6.3019,-6.2361,-6.248,0.0,0.0,0.0,0.0,0.0,-5.9787,-5.9099,0.0,0.0,0.0,0.0,0.0,0.0,0.0,-4.8783,-4.8306,-4.8306,-4.9774,-5.0765,-5.0655,-5.0765,-5.0802,-5.0802,-4.9958,-4.8857,-4.748,-4.8049,-4.8857,-4.9831,-5.2013,-5.255,-5.118,-5.1953,-5.2354,-5.2332,-5.087,-5.0844,-5.2165,-5.1431,-5.1484,-5.2201,-5.2201,-5.2699,-5.3524,-5.3467,-5.3484,-5.3517,-5.2489,-5.1484,-5.0422,-4.9138,-4.806,-4.7279,-4.7161,-4.6211,-4.5199,-4.6214,0.0,0.0,0.0,0.0,0.0,0.0,0.0,0.0,0.0,0.0,0.0,0.0,0.0,0.0,0.0,0.0,0.0,0.0,0.0,0.0,0.0,0.0,0.0,0.0,-5.9009,-6.1164,-6.3647,-6.4126,-6.4246,-6.4336,-6.5832,-6.646,-6.5353,-6.5712,-6.5862,-6.5502,-6.5233,-6.5233,-6.5558,0.0,0.0,0.0,0.0,-6.3827,-6.3199,-6.3109,-6.3079,-6.3079,-6.3079,-6.3079,-6.3079,-6.3079,-6.3079,-6.3049,-6.245,-6.254,-6.3019,-6.2361,-6.2391,-6.275,-6.1553,-6.1104,-6.0954,-5.9608,-5.9099,-5.9099,0.0,0.0,0.0,0.0,0.0,0.0,0.0,-4.8416,-4.8306,-4.8306,-4.9774,-5.0545,-4.9904,-5.0398,-5.0802,-5.0802,-4.9407,-4.871,-4.9077,-4.928,-5.0014,-5.1483,-5.2601,-5.3051,-5.2761,-5.3529,-5.3646,-5.3002,-5.2123,-5.185,-5.2114,-5.1414,-5.1484,-5.2201,-5.2201,-5.3003,-5.4253,-5.3644,-5.376,-5.4328,-5.3517,-5.2557,-5.1492,-5.0419,-4.9866,-4.9596,-4.876,-4.8893,-4.9401,-4.8273,-4.8506,-4.906,-4.8027,-4.7698,0.0,0.0,0.0,0.0,0.0,0.0,0.0,0.0,0.0,0.0,0.0,0.0,0.0,0.0,0.0,0.0,0.0,0.0,0.0,-5.8261,-6.0386,-6.2241,-6.3767,-6.4934,-6.5802,-6.634,-6.6281,-6.6311,-6.658,-6.6251,-6.6673,-6.8277,-6.6761,-6.6841,-6.924,-6.7622,-6.6581,-6.6606,-6.5402,-6.4515,-6.3827,-6.3318,-6.3079,-6.3079,0.0,0.0,-6.3079,-6.3079,-6.3079,-6.3079,-6.2929,-6.2959,-6.3019,-6.2361,-6.1852,-6.1463,-6.1224,-6.1104,-6.0954,-5.9608,-5.9099,-5.9039,0.0,0.0,0.0,0.0,0.0,0.0,0.0,-4.8898,-4.8898,-4.8898,-4.9804,-5.0139,-4.9344,-4.9084,-4.8783,-4.8379,-4.7205,-4.7205,-4.882,-4.9353,-5.0308,-5.1903,-5.2784,-5.3203,-5.3203,-5.3188,-5.3188,-5.3203,-5.2412,-5.228,-5.2621,-5.2289,-5.2341,-5.2678,-5.2678,-5.3131,-5.3849,-5.3929,-5.3958,-5.3976,-5.4018,-5.3476,-5.2606,-5.2146,-5.1631,-5.1177,-5.136,-5.1287,-5.1089,-5.0721,-5.0784,-5.0893,-5.0035,-4.9763,-4.9553,0.0,0.0,0.0,0.0,0.0,0.0,0.0,0.0,0.0,0.0,0.0,0.0,0.0,0.0,-5.3114,-5.4401,0.0,-5.7902,-6.0236,-6.1972,-6.3378,-6.4366,-6.5383,-6.6131,-6.646,-6.649,-6.7095,-6.8514,-6.7607,-6.7789,-6.9608,-6.8061,-6.7638,-6.9112,-6.7819,-6.7004,-6.7113,-6.6071,-6.5024,-6.4006,-6.3677,-6.3378,-6.3079,-6.3079,-6.3079,-6.3079,-6.3079,-6.3079,-6.3049,-6.272,-6.278,-6.3049,-6.272,-6.2391,-6.2061,-6.1732,-6.1194,-6.0475,-5.9488,-5.9099,-5.9069,0.0,0.0,0.0,0.0,0.0,0.0,0.0,-4.9489,-4.9489,-4.9489,-4.9915,-4.9911,-4.9123,-4.7935,-4.6783,-4.5736,-4.5369,-4.6122,-4.8379,-4.9334,-5.0545,-5.216,-5.2858,-5.3298,-5.3424,-5.2784,-5.2858,-5.3665,-5.2858,-5.2784,-5.3424,-5.3298,-5.3203,-5.3203,-5.3371,-5.3529,-5.37,-5.4447,-5.4466,-5.4036,-5.4594,-5.4439,-5.3832,-5.3898,-5.3213,-5.2371,-5.3408,-5.2845,-5.1674,-5.2502,-5.2523,-5.2132,-5.1941,-5.1926,-5.1774,-5.0246,-4.9748,0.0,0.0,0.0,0.0,0.0,0.0,0.0,0.0,0.0,-5.1558,-5.2875,-5.4221,-5.5688,-5.7363,-5.868,-6.0116,-6.1972,-6.3258,-6.4246,-6.4934,-6.5592,-6.6071,-6.6191,-6.6944,-6.8092,-6.969,-6.9243,-6.9304,-7.0379,-6.9607,-6.9063,-6.9063,-6.8273,-6.7818,-6.7818,-6.6762,-6.5682,-6.4575,-6.4186,-6.3737,-6.3258,-6.3139,-6.3079,-6.3079,-6.3079,-6.3079,-6.3049,-6.251,-6.26,-6.3079,-6.3079,-6.3079,-6.3019,-6.2361,-6.1433,-6.0386,-5.9578,-5.9308,-5.9249,0.0,0.0,0.0,0.0,0.0,0.0,0.0,0.0,-4.9489,-4.9489,-5.0161,-5.032,-4.9506,-4.8365,-4.6874,-4.5001,-4.6049,-4.7553,-4.926,-5.0178,-5.1389,-5.3004,-5.313,-5.3555,-5.4252,-5.4179,-5.4509,-5.5317,-5.4509,-5.4179,-5.4252,-5.3555,-5.3203,-5.3203,-5.3959,-5.4649,-5.533,-5.5499,-5.5923,-5.6443,-5.5821,-5.551,-5.544,-5.546,-5.4575,-5.328,-5.3099,-5.2462,-5.181,-5.2229,-5.2727,-5.3289,-5.3988,-5.4666,-5.4749,-5.2374,-5.1308,-5.0352,-4.7942,-4.683,-4.6741,-4.8461,-4.8506,-4.9434,0.0,0.0,-5.4999,-5.6286,-5.7633,-5.88,-5.9608,-6.0386,-6.1343,-6.275,-6.3558,-6.4246,-6.4934,-6.5592,-6.6221,-6.6819,-6.8116,-6.8748,-6.8299,-7.0544,-7.1743,-7.112,-7.2233,-7.292,-7.2686,-7.1503,-7.0791,-7.0731,-6.8243,-6.6819,-6.667,-6.4874,-6.3977,-6.3887,-6.3348,-6.3079,-6.3079,-6.3079,-6.3079,-6.3079,-6.2989,-6.3019,-6.3079,-6.3079,-6.3079,-6.3019,-6.2361,-6.2002,-6.1702,-6.0446,-5.9967,-5.9817,0.0,0.0,0.0,0.0,0.0,0.0,0.0,0.0,0.0,-5.0195,-5.0292,-5.0049,-4.9226,-4.7446,-4.5978,-4.5115,-4.6303,-4.759,-4.8746,-5.0472,-5.2013,-5.313,-5.3665,-5.4069,-5.4399,-5.484,-5.5244,-5.5596,-5.5244,-5.5097,-5.5097,-5.473,-5.4583,-5.462,-5.495,-5.528,-5.5647,-5.6145,-5.6246,-5.6163,-5.6325,-5.6143,-5.5696,-5.5687,-5.5045,-5.4083,-5.3948,-5.3685,0.0,-5.2782,-5.3058,-5.3693,-5.3725,-5.4294,-5.4539,-5.2691,-5.1862,-5.1012,-4.8558,-4.8386,-4.9065,-4.9704,-5.0212,-5.1439,-5.482,-5.5957,-5.6675,-5.7992,-5.9638,-6.0924,-6.1194,-6.2091,-6.2959,0.0,-6.4485,-6.5263,-6.5562,-6.5832,-6.6101,-6.637,-6.7744,-6.8969,-6.9823,-7.1861,-7.2923,-7.2559,-7.2737,-7.2625,-7.2127,-7.0737,-6.9944,-6.9882,-6.8388,-6.6999,-6.5862,-6.5817,-6.4998,-6.3526,-6.4857,-6.5087,-6.429,-6.5142,-6.5032,-6.4209,-6.3451,-6.3079,-6.3079,-6.3079,-6.3079,-6.3049,-6.278,-6.266,-6.251,-6.1164,-6.0446,-5.9997,0.0,0.0,0.0,0.0,0.0,0.0,0.0,0.0,0.0,0.0,-5.0462,-4.9912,-4.9002,-4.7054,-4.5746,-4.5646,-4.6352,-4.7296,-4.8563,-5.0545,-5.2234,-5.3482,-5.4106,-5.462,-5.506,-5.5611,-5.6014,-5.6235,-5.6014,-5.5941,-5.5941,-5.5684,-5.5596,-5.5611,-5.6051,-5.6235,-5.6308,-5.7373,-5.7336,-5.663,-5.7279,-5.7046,-5.6308,-5.6087,-5.566,-5.5071,-5.4505,-5.4017,-5.3529,-5.2668,-5.2735,-5.3185,-5.3512,-5.4082,-5.4438,-5.3165,-5.2168,-5.1098,-4.9604,-5.0356,0.0,-5.1966,-5.2793,-5.4056,-5.6083,-5.7286,-5.8261,-5.9428,-6.1104,-6.2361,-6.2361,-6.3139,-6.3737,-6.3737,-6.4725,-6.5443,-6.5443,-6.5622,-6.5742,-6.5742,-6.7358,-6.8836,-6.9722,-7.2224,-7.3554,-7.2902,-7.3684,-7.3317,-7.1337,-7.0985,-7.0277,-6.9004,-6.8525,-6.7572,-6.6128,-6.6748,-6.6262,-6.454,-6.6354,-6.6647,-6.5728,-6.6751,-6.6647,-6.5652,-6.4678,-6.4015,-6.3649,-6.3649,-6.3451,-6.3079,-6.3079,-6.3079,-6.2959,-6.2002,-6.1224,-6.0595,0.0,0.0,0.0,0.0,0.0,0.0,0.0,0.0,0.0,0.0,0.0,0.0,0.0,-4.7795,-4.6902,-4.652,-4.6131,-4.6948,-4.9297,-5.0325,-5.1903,-5.4252,-5.4399,-5.5133,-5.6712,-5.6748,-5.7152,-5.7923,-5.7152,-5.6748,-5.6748,-5.5978,-5.5596,-5.5647,-5.7226,-5.7923,-5.8033,-5.9612,-5.9832,-5.9074,-5.9124,-5.8647,-5.7863,-5.707,-5.6754,-5.645,-5.4317,-5.2562,-5.1307,-5.1238,-5.1254,-5.1659,-5.3889,-5.5071,-5.5467,-5.4357,-5.2324,-5.0582,-5.1307,-5.2533,-5.4104,-5.6157,-5.6825,-5.749,-5.947,-5.9992,-6.0206,-6.0894,-6.2121,-6.3049,-6.3049,-6.3079,-6.3109,-6.3109,-6.3647,-6.4066,-6.4066,-6.4635,-6.5054,-6.5054,-6.7523,-6.8438,0.0,-7.1346,-7.3696,-7.145,-7.6025,-7.6604,-7.1485,-7.3854,-7.3421,-6.916,-6.8974,-6.8999,-6.8969,-6.7724,-6.7394,-6.8011,-6.7464,-6.7164,-6.7113,-6.7164,-6.7164,-6.7113,-6.7061,-6.6312,-6.5032,-6.5032,-6.4265,-6.3079,-6.3079,-6.3079,-6.3079,-6.3019,-6.26,-6.1852,0.0,0.0,0.0,0.0,0.0,0.0,0.0,0.0,0.0,0.0,0.0,0.0,0.0,0.0,0.0,0.0,-4.7969,-4.8247,-4.9062,-5.0669,-5.194,-5.2747,-5.4326,-5.5427,-5.5978,-5.7042,-5.774,-5.7997,-5.774,-5.7593,-5.7593,-5.7886,-5.7997,-5.8033,-5.9098,-5.9612,-5.9648,-6.0162,-6.0566,-6.0713,-5.9648,-5.9355,-5.9465,-5.8107,-5.6932,-5.5843,0.0,-5.3256,-5.1758,-5.0754,-5.0434,-5.0608,-5.1352,-5.2469,-5.3348,-5.2804,-5.3228,-5.3658,-5.2573,-5.4543,-5.7077,-5.8011,-5.8965,-6.0091,-6.1692,-6.1648,-6.1431,-6.1676,-6.1044,-6.0446,-6.0446,-6.1164,-6.1762,-6.1762,-6.3767,-6.5173,-6.4755,-6.5263,-6.5353,-6.4455,-6.5602,0.0,0.0,0.0,0.0,-7.1505,-7.4743,-7.5826,-7.3511,-7.3364,-7.2735,-7.1299,-6.9337,-6.8635,-6.9232,-6.8694,-6.8118,-6.7548,-6.8204,-6.9024,-6.9855,-6.8976,-6.8552,-6.8503,-6.7572,-6.6417,-6.5111,-6.5111,-6.432,-6.3079,-6.3079,-6.3079,-6.3079,-6.3079,-6.3498,-6.3881,0.0,0.0,0.0,0.0,0.0,0.0,0.0,0.0,0.0,0.0,0.0,0.0,0.0,0.0,0.0,0.0,0.0,-4.8872,-4.9288,-5.0583,-5.1497,-5.1997,-5.3482,-5.4583,-5.5133,-5.6322,-5.7073,-5.7368,-5.7804,-5.8058,-5.8037,-5.8874,-5.9282,-5.9319,-6.0113,-6.0522,-6.0651,-6.0651,-6.083,-6.1043,-5.9428,-5.8914,-5.8951,-5.7336,-5.6051,0.0,-5.4341,-5.3291,-5.1993,-5.0509,-4.9889,-4.9796,-5.0338,-5.1522,-5.2775,-5.2829,-5.4215,-5.5636,-5.5347,-5.7549,-6.0189,-6.1392,-6.2053,-6.2663,-6.3815,-6.3019,-6.1929,-6.1681,-6.0092,-5.868,-5.8441,-5.8919,-5.9488,-5.9967,-6.2211,-6.4006,-6.4306,-6.4695,-6.4814,-6.4425,-6.4985,-6.5132,0.0,0.0,0.0,-7.1156,-7.4209,-7.5599,-7.4239,-7.3481,-7.2768,-7.2068,-6.9894,-6.9163,-6.9989,-6.9698,-6.9191,-6.8683,-6.9537,-7.0402,-7.1267,-7.0356,-6.9949,-6.9902,-6.9024,-6.7856,-6.649,-6.6048,-6.5032,-6.3732,-6.3279,-6.3079,-6.3079,-6.3079,-6.3649,-6.4273,0.0,0.0,0.0,0.0,0.0,0.0,0.0,0.0,0.0,0.0,0.0,0.0,0.0,0.0,0.0,0.0,0.0,0.0,-5.0027,-5.0107,-5.0657,-5.1891,-5.1997,-5.2768,-5.4406,-5.4791,-5.5416,-5.6235,-5.7431,-5.8035,-5.8072,-5.8919,-5.9314,-5.9351,-6.0184,-6.0698,-6.1023,-6.1023,-6.0774,-6.0247,-5.863,-5.7505,-5.6712,-5.506,-5.4436,-5.4326,-5.3592,-5.2798,-5.1886,-5.0527,-4.961,-4.9323,-5.0811,-5.23,-5.3653,-5.4465,-5.5277,-5.6528,-5.937,-6.1298,-6.3193,-6.6034,-6.5865,-6.5156,-6.5816,-6.3949,-6.1887,-6.106,-5.9335,-5.7685,0.0,0.0,-5.6585,-5.7812,-5.9308,-6.1014,-6.2899,-6.3228,-6.3737,0.0,0.0,0.0,0.0,0.0,0.0,-7.0364,0.0,-7.5885,-7.3803,-7.4225,-7.3632,-7.1691,-7.0662,-7.0595,-7.1392,-7.0601,-7.0648,-7.1312,-7.1312,-7.1312,-7.1312,-7.1312,-7.1312,-7.1312,-7.1312,-7.0528,-6.9121,-6.7723,-6.6365,-6.4978,-6.3649,-6.3079,-6.3079,-6.3079,-6.3194,-6.3297,0.0,0.0,0.0,0.0,0.0,0.0,0.0,0.0,0.0,0.0,0.0,0.0,0.0,0.0,0.0,0.0,0.0,0.0,-5.0071,-5.0118,-5.0504,-5.1436,-5.1811,-5.288,-5.4813,-5.4949,-5.5585,-5.6697,-5.7044,-5.7226,-5.7226,-5.8055,-5.8415,-5.8452,-5.9264,-5.9664,-5.9759,-5.9759,-5.9883,-5.9869,-5.8222,-5.7617,-5.7519,-5.5904,-5.4913,-5.4436,-5.484,-5.3731,-5.1994,-5.1112,-5.0357,-5.0067,-5.1555,-5.2706,-5.3856,-5.5716,-5.7171,-5.8592,-6.0486,-6.2482,-6.4343,-6.5662,-6.6163,-6.622,-6.585,-6.4508,-6.2589,-5.9989,-5.748,-5.518,0.0,0.0,0.0,-5.6615,-6.0655,0.0,-6.4455,-6.5383,0.0,-6.646,-6.6673,-6.6493,-6.5772,-6.897,0.0,0.0,-7.3343,-7.5195,-7.5161,-7.4853,-7.4632,-7.4588,-7.2299,-7.1636,-7.2929,-7.1652,-7.113,-7.1312,-7.1312,-7.1312,-7.1312,-7.1312,-7.1312,-7.1312,-7.1312,-7.0528,-6.9121,-6.7723,-6.6365,-6.4978,-6.3649,-6.3079,-6.3079,-6.3079,-6.4401,-6.608,0.0,0.0,0.0,0.0,0.0,0.0,0.0,0.0,0.0,0.0,0.0,0.0,0.0,0.0,0.0,0.0,0.0,0.0,0.0,-5.0619,-5.0842,-5.1317,-5.1785,-5.2604,-5.3907,-5.4654,-5.5384,-5.6118,-5.7057,-5.7335,-5.6954,-5.7815,-5.8196,-5.8196,-5.8676,-5.8934,-5.9062,-5.8501,-5.8484,0.0,0.0,-5.6224,-5.6271,-5.5023,-5.4289,-5.3995,-5.4766,-5.4241,-5.3135,-5.2714,0.0,-5.1894,-5.3721,-5.4803,-5.5852,-5.8118,0.0,-6.0419,-6.2245,-6.3903,-6.5324,-6.6406,-6.6474,-6.6136,-6.5392,-6.3709,-6.1393,-5.816,-5.5443,0.0,-5.1318,-5.264,0.0,0.0,0.0,0.0,-6.4784,-6.5413,-6.6101,0.0,-6.6909,0.0,-6.7332,-6.9866,-7.1499,0.0,-7.3856,-7.527,-7.5676,-7.5335,-7.5319,-7.5709,-7.3526,-7.2398,-7.2529,-7.1718,-7.1312,-7.1312,-7.1312,-7.1312,-7.1312,-7.1312,-7.1312,-7.1312,0.0,-7.0837,-6.9949,-6.8007,-6.6699,-6.5835,-6.3845,-6.3079,-6.3079,-6.3079,-6.4457,-6.627,0.0,0.0,0.0,0.0,0.0,0.0,0.0,0.0,0.0,0.0,0.0,0.0,0.0,0.0,0.0,0.0,0.0,0.0,0.0,0.0,-5.1489,-5.1578,-5.172,-5.2112,-5.2741,-5.4092,-5.4855,-5.5033,-5.7001,-5.755,-5.683,-5.7588,-5.7934,-5.7934,-5.7934,-5.8105,-5.8311,-5.7141,-5.6807,-5.685,-5.5048,-5.4354,-5.4326,0.0,-5.3298,-5.3445,-5.4142,-5.4497,-5.4661,-5.4857,-5.4435,-5.4161,-5.6293,-5.7509,-5.8626,-6.0926,-6.1603,-6.2042,-6.4174,-6.5189,-6.6,-6.7286,-6.6576,-6.5256,-6.4241,-6.2055,-5.93,-5.6011,0.0,-5.1713,-5.0869,-5.125,-5.2532,-5.5376,0.0,-6.0791,-6.4725,-6.4695,-6.5263,-6.7926,-6.7059,-6.7094,-6.912,-7.0662,-7.2047,-7.335,-7.4817,-7.5709,-7.5709,-7.5709,-7.5676,-7.5574,-7.4221,-7.2834,-7.1481,-7.1379,-7.1312,-7.1312,-7.1312,-7.1312,-7.1312,-7.1312,-7.1312,-7.1312,-7.1312,0.0,-7.1098,-6.8503,-6.7368,-6.6906,-6.4376,-6.3279,-6.3079,-6.3079,-6.404,-6.5451,0.0,0.0,0.0,0.0,0.0,0.0,0.0,0.0,0.0,0.0,-5.1805,0.0,0.0,0.0,0.0,0.0,0.0,0.0,0.0,0.0,0.0,-5.2392,-5.1499,-5.184,-5.3532,-5.3238,-5.3554,-5.4589,-5.5643,-5.6049,-5.5934,-5.6088,-5.6165,-5.6165,-5.6165,-5.617,-5.6218,-5.5656,-5.5238,-5.4924,-5.4186,-5.4095,-5.4326,-5.3518,0.0,0.0,-5.4363,-5.4497,-5.4916,-5.6767,-5.6493,-5.5606,-5.7218,-5.8626,-6.0182,-6.2448,-6.3125,-6.3497,-6.5053,-6.5595,-6.5764,-6.6,-6.5425,-6.4106,-6.1467,-6.003,0.0,0.0,-5.309,-5.2318,-5.076,-5.2289,-5.4361,-5.6229,-5.9133,-6.2427,-6.6132,-6.6071,-6.664,0.0,-6.8435,-6.8303,-6.9862,-7.1389,0.0,0.0,0.0,-7.5709,-7.5709,-7.5709,-7.5439,-7.483,-7.395,-7.3071,-7.2225,-7.1616,-7.1312,-7.1312,-7.1312,-7.1312,-7.1312,-7.1312,-7.1312,-7.1312,-7.1312,0.0,-7.1176,-6.9537,-6.8206,-6.701,-6.5382,-6.404,-6.3079,-6.3079,-6.4678,-6.6759,0.0,0.0,0.0,0.0,0.0,0.0,0.0,0.0,0.0,-5.3979,-5.3818,-5.3426,0.0,0.0,0.0,0.0,0.0,0.0,0.0,0.0,0.0,0.0,0.0,0.0,-5.3798,-5.4075,-5.4495,-5.5126,0.0,-5.6126,-5.5703,-5.5703,-5.5703,-5.5703,-5.5703,-5.5703,-5.5682,-5.5067,-5.4936,-5.5023,-5.3925,-5.4117,-5.495,0.0,0.0,0.0,0.0,-5.5944,-5.6539,-5.764,-5.7743,-5.7822,-5.9702,-6.0492,-6.1163,-6.3429,-6.4072,-6.4309,-6.5392,-6.5696,-6.5696,-6.5696,-6.4546,-6.2651,-5.9641,0.0,0.0,0.0,-5.1855,-5.1711,-5.1266,-5.218,0.0,-5.5176,-5.7346,-6.0015,-6.3436,-6.4246,0.0,-6.8106,-6.7537,-6.7848,0.0,-7.0885,-7.1978,0.0,0.0,-7.554,-7.5168,-7.5134,-7.4965,-7.4627,-7.351,-7.2563,-7.1853,-7.1481,-7.1312,-7.1312,-7.1312,-7.1312,-7.1312,-7.1312,-7.1312,-7.1312,-7.1312,0.0,-7.1222,-6.9775,-6.8405,-6.7061,-6.562,-6.4703,-6.4153,-6.4153,-6.5888,-6.8191,0.0,0.0,0.0,0.0,0.0,0.0,0.0,-5.1125,-5.268,-5.533,-5.6117,-5.6161,-5.5388,-5.4972,-5.4472,0.0,0.0,0.0,0.0,0.0,0.0,0.0,0.0,0.0,0.0,0.0,0.0,-5.5434,-5.6291,0.0,0.0,0.0,0.0,0.0,-5.5703,-5.5703,-5.5671,-5.4833,-5.4861,0.0,0.0,-5.4179,0.0,0.0,0.0,0.0,0.0,-5.7226,-5.778,-5.7956,-5.8264,-5.8968,-6.0876,-6.1427,-6.1664,-6.3537,-6.4241,-6.4546,-6.5459,-6.5696,-6.5662,-6.5493,-6.3903,-6.1569,-5.8389,-5.6393,0.0,-5.1521,-5.075,-5.0916,-5.181,-5.1752,-5.2178,-5.3988,-5.5054,-5.6955,-6.0565,-6.2375,-6.4264,0.0,-6.7095,0.0,-7.0094,-7.0781,0.0,0.0,0.0,0.0,-7.4627,-7.4458,-7.4289,-7.4153,-7.3003,-7.2056,-7.1312,-7.1312,-7.1312,-7.1312,-7.1312,-7.1312,-7.1312,-7.1312,-7.1312,-7.1312,-7.1312,0.0,0.0,-7.009,-6.8846,-6.7521,-6.6385,-6.5781,-6.5544,-6.5544,-6.7113,-6.9184,0.0,0.0,0.0,0.0,0.0,0.0,0.0,-5.2801,-5.4535,-5.776,-5.8239,-5.8181,-5.7956,-5.6549,-5.5549,0.0,0.0,0.0,0.0,0.0,0.0,0.0,0.0,0.0,0.0,0.0,0.0,-5.4626,-5.5434,0.0,0.0,0.0,0.0,0.0,0.0,-5.5703,-5.5671,-5.4833,0.0,0.0,0.0,0.0,0.0,0.0,0.0,0.0,0.0,-5.6859,-5.7019,0.0,0.0,-5.7143,-5.8062,-5.9695,-6.149,-6.2343,0.0,0.0,-6.5324,-6.5696,-6.5527,-6.4884,-6.3531,-6.1434,-5.7746,0.0,-5.3213,-5.1493,-5.0615,-5.0582,-5.1999,-5.1519,-5.162,-5.3921,-5.4121,-5.5669,-6.0406,-6.289,-6.4906,-6.6762,0.0,0.0,0.0,0.0,0.0,0.0,0.0,0.0,-7.4559,-7.395,-7.3274,-7.2631,-7.2462,-7.2056,-7.1312,-7.1312,-7.1312,-7.1312,-7.1312,-7.1312,-7.1312,-7.1312,-7.1312,-7.1312,-7.1312,0.0,0.0,-7.1143,-7.0263,-6.8991,-6.8846,-6.8074,-6.701,-6.701,-6.7924,-6.9118,0.0,0.0,0.0,0.0,0.0,0.0,0.0,-5.33,-5.49,-5.8789,-5.9196,-5.9093,-5.9023,-5.7973,-5.6857,0.0,0.0,0.0,0.0,0.0,0.0,0.0,0.0,0.0,0.0,0.0,-5.3857,-5.5203,-5.5549,0.0,0.0,0.0,0.0,0.0,0.0,-5.5703,-5.5643,-5.5107,0.0,0.0,0.0,0.0,0.0,0.0,0.0,0.0,0.0,0.0,-5.6859,-5.7189,0.0,0.0,-5.6061,-5.6778,0.0,0.0,-6.0864,-6.1772,-6.3294,-6.4038,-6.4309,-6.4005,-6.2144,-5.9607,-5.6799,0.0,-5.2367,-5.0845,-5.0304,-5.0541,-5.2029,-5.0975,-5.0552,-5.2551,-5.1518,-5.1805,-5.5567,-5.7314,-5.9832,-6.4254,-6.5756,0.0,0.0,0.0,0.0,0.0,0.0,0.0,-7.324,-7.3003,-7.2699,-7.2428,-7.1988,-7.1616,-7.1312,-7.1312,-7.1312,-7.1312,-7.1312,-7.1312,-7.1312,-7.1312,-7.1312,-7.1312,-7.1312,0.0,0.0,-7.1312,-7.0482,-6.9217,-6.9217,-6.8846,-6.8405,-6.8405,-6.9265,-7.0415,0.0,0.0,0.0,0.0,0.0,0.0,-5.3239,-5.3708,-5.5131,-5.8847,-5.9292,-5.9293,-5.9484,-5.8588,-5.7443,-5.6214,0.0,0.0,0.0,0.0,0.0,0.0,0.0,0.0,0.0,0.0,-5.428,-5.5703,-5.5703,-5.5703,0.0,0.0,-5.5703,-5.5703,0.0,0.0,0.0,0.0,0.0,0.0,0.0,0.0,0.0,0.0,0.0,0.0,0.0,0.0,0.0,0.0,0.0,0.0,-5.4517,-5.4303,-5.5014,0.0,-5.8667,-5.9803,-6.1612,-6.2618,-6.3226,-6.3463,-6.14,-5.8795,0.0,-5.4262,-5.1928,-5.0676,-5.0067,-5.0236,-5.1691,-5.0575,-4.9863,-5.1247,-4.9931,-4.9651,-5.229,-5.3905,-5.6553,0.0,0.0,-6.5071,0.0,-6.9076,-7.0073,0.0,0.0,0.0,-7.209,-7.209,-7.209,-7.209,-7.1582,-7.1312,-7.1312,-7.1312,-7.1312,-7.1312,-7.1312,-7.1312,-7.1312,-7.1312,-7.1312,-7.1312,-7.1312,0.0,0.0,-7.1312,-7.0745,-6.9822,-6.9822,-6.9822,-6.9822,-6.9822,-7.0482,-7.1312,0.0,0.0,0.0,0.0,0.0,0.0,0.0,-5.4206,-5.5543,-5.8006,-5.8433,-5.876,-5.943,-5.8134,-5.7137,-5.7005,0.0,0.0,0.0,0.0,0.0,0.0,0.0,0.0,0.0,0.0,-5.4895,-5.5703,-5.5703,-5.5703,-5.5703,-5.5703,-5.5703,-5.5703,0.0,0.0,0.0,0.0,0.0,0.0,0.0,0.0,-5.4473,0.0,0.0,0.0,0.0,0.0,0.0,0.0,0.0,0.0,0.0,-5.2739,-5.2615,-5.4944,-5.6664,-5.8324,-6.068,-6.1839,-6.2584,-6.3328,-6.1806,-5.9708,-5.822,-5.4972,-5.2097,-5.132,-5.0033,-4.9458,-5.0914,-5.0393,-4.9853,-5.0326,-5.0061,-5.0352,-5.1987,-5.4589,0.0,0.0,0.0,-6.463,-6.3308,-6.6835,0.0,0.0,0.0,0.0,-7.1312,-7.1312,-7.1312,-7.1312,-7.1312,-7.1312,-7.1312,-7.1312,-7.1312,-7.1312,-7.1312,-7.1312,-7.1312,-7.1312,-7.1312,0.0,0.0,0.0,0.0,-7.1312,-7.1312,-7.1267,-7.1267,-7.1267,-7.1267,-7.1267,-7.1267,-7.1312,0.0,0.0,0.0,0.0,0.0,0.0,0.0,-5.2748,-5.3735,-5.6337,-5.6687,-5.7246,-5.8674,-5.7848,-5.7146,-5.7005,0.0,0.0,0.0,0.0,0.0,0.0,0.0,0.0,0.0,0.0,-5.5203,-5.6599,-5.6599,-5.6896,-5.7473,-5.6857,-5.6599,-5.656,-5.5972,-5.5554,0.0,0.0,0.0,0.0,0.0,-5.3592,-5.3628,0.0,0.0,0.0,0.0,0.0,0.0,0.0,0.0,0.0,0.0,0.0,0.0,-5.3729,-5.5044,-5.6685,-5.85,-5.9563,-6.0041,-5.9661,-5.8346,-5.6731,-5.5243,-5.3179,-5.1217,-4.9965,-4.9323,-4.9458,-5.0947,-5.0393,-5.023,-5.1839,-5.0818,-5.0159,0.0,0.0,0.0,-5.9852,-6.6166,-6.9766,0.0,0.0,0.0,0.0,0.0,0.0,-7.1312,-7.1312,-7.1312,-7.1312,-7.1312,-7.1312,-7.1312,-7.1312,-7.1312,-7.1312,-7.1312,-7.1312,-7.1312,-7.1312,0.0,0.0,0.0,0.0,0.0,-7.1312,-7.1312,-7.1312,-7.1312,-7.1312,-7.1312,-7.1312,-7.1312,-7.1312,0.0,0.0,0.0,0.0,0.0,0.0,0.0,-5.1967,-5.2846,-5.5061,-5.541,-5.6201,-5.8191,-5.7413,-5.6798,-5.6967,0.0,0.0,0.0,0.0,0.0,0.0,0.0,0.0,-5.5703,-5.5203,-5.5626,-5.6983,-5.6983,-5.7434,-5.828,-5.7407,-5.6983,-5.6945,-5.6088,-5.5566,0.0,0.0,0.0,0.0,-5.3883,-5.3665,-5.3628,0.0,0.0,0.0,0.0,0.0,0.0,0.0,0.0,0.0,0.0,0.0,0.0,0.0,-5.4374,-5.5436,-5.6651,-5.737,-5.7766,-5.7803,-5.6338,0.0,-5.4059,-5.23,-5.0541,-4.9593,-4.9424,-4.9796,-5.098,-5.0927,-5.0947,-5.1839,-5.088,-5.0413,0.0,0.0,0.0,-6.1284,0.0,0.0,0.0,-7.0332,0.0,0.0,0.0,0.0,-7.1312,-7.1312,-7.1312,-7.1312,-7.1312,-7.1312,-7.1312,-7.1312,-7.1312,-7.1312,-7.1312,-7.1312,-7.1312,-7.1312,0.0,0.0,0.0,0.0,0.0,-7.1312,-7.1312,-7.1312,-7.1312,-7.1312,-7.1312,-7.1312,-7.1312,-7.1312,0.0,0.0,0.0,0.0,0.0,0.0,0.0,0.0,0.0,0.0,-5.4555,-5.5526,-5.7906,-5.68,-5.6179,0.0,0.0,0.0,0.0,0.0,0.0,0.0,0.0,0.0,-5.5703,-5.5703,-5.6165,-5.7099,-5.7099,-5.755,-5.8473,-5.7588,-5.7137,-5.706,-5.6165,-5.5731,0.0,0.0,0.0,-5.5484,-5.4674,-5.4332,0.0,0.0,0.0,0.0,0.0,0.0,0.0,0.0,0.0,0.0,0.0,0.0,0.0,0.0,0.0,0.0,0.0,-5.5424,-5.5819,-5.7073,-5.5412,-5.3551,-5.4161,-5.2097,0.0,-5.0033,-4.9999,-5.027,-5.1082,-5.1693,-5.1762,-5.0752,-5.0563,-5.1168,-5.3052,-5.4272,0.0,0.0,-6.4091,0.0,-6.7748,-6.8823,0.0,0.0,0.0,0.0,-7.1312,-7.1312,-7.1312,-7.1312,-7.1312,-7.1312,-7.1312,-7.1312,-7.1312,-7.1312,-7.1312,-7.1312,-7.1312,-7.1312,0.0,0.0,0.0,0.0,0.0,-7.1312,-7.1312,-7.1312,-7.1312,-7.1312,-7.1312,-7.1312,-7.1312,-7.1312,0.0,0.0,0.0,0.0,0.0,0.0,0.0,0.0,0.0,0.0,-5.3896,-5.4568,-5.6505,-5.6218,-5.5947,0.0,0.0,0.0,0.0,0.0,0.0,0.0,0.0,0.0,-5.5703,-5.5703,-5.6434,-5.7973,-5.7973,-5.8742,-6.0204,-5.9319,-5.8588,-5.7973,-5.7088,-5.6157,0.0,0.0,-5.4589,-5.424,-5.4,-5.378,0.0,0.0,0.0,0.0,-5.3408,-5.3371,0.0,0.0,0.0,0.0,0.0,0.0,0.0,0.0,-5.3482,-5.3506,-5.3709,0.0,-5.4554,-5.3732,-5.3043,-5.2317,0.0,-5.0608,-4.9932,-4.9357,-4.9255,-4.9661,-5.0948,-5.0694,-5.0744,-5.2085,-5.2152,-5.2565,-5.4041,-5.8561,0.0,-6.5679,-6.814,-6.9412,-6.8866,-7.003,0.0,0.0,0.0,-7.1312,-7.1312,-7.1312,-7.1312,-7.1312,-7.1312,-7.1312,-7.1312,-7.1312,-7.1312,-7.1312,-7.1312,-7.1312,-7.1312,-7.1312,-7.1312,0.0,0.0,0.0,-7.1312,-7.1312,-7.1312,-7.1312,-7.1312,-7.1312,-7.1312,-7.1312,-7.1312,-7.1312,0.0,0.0,0.0,0.0,0.0,0.0,0.0,0.0,0.0,0.0,0.0,0.0,0.0,0.0,0.0,0.0,0.0,0.0,0.0,0.0,0.0,0.0,0.0,-5.5703,-5.5703,-5.5703,-5.6549,-5.8319,-5.8319,-5.9165,-6.0781,-5.9896,-5.9088,-5.8242,-5.6973,-5.6011,-5.535,-5.5148,-5.4903,-5.4645,-5.4258,0.0,0.0,0.0,0.0,0.0,-5.3203,-5.3203,0.0,-5.3203,-5.3203,-5.3203,0.0,0.0,0.0,0.0,-5.3482,-5.3665,-5.3298,-5.359,-5.3745,-5.2892,-5.2278,-5.1622,-5.0798,-5.0067,-4.9492,-4.9086,-4.9255,-4.9704,-5.0392,-5.0618,-5.0736,-5.098,-5.1692,-5.2997,-5.5449,0.0,-6.4421,-6.6872,-6.8975,-7.0263,0.0,0.0,0.0,0.0,0.0,-7.1312,-7.1312,-7.1312,-7.1312,-7.1312,-7.1312,-7.1312,-7.1312,-7.1312,-7.1312,-7.1312,-7.1312,-7.1312,-7.1312,-7.1312,-7.1312,0.0,0.0,0.0,-7.1312,-7.1312,-7.1312,-7.1312,-7.1312,-7.1312,-7.1312,-7.1312,-7.1312,-7.1312,0.0,0.0,0.0,0.0,0.0,0.0,0.0,0.0,0.0,0.0,0.0,0.0,0.0,0.0,0.0,0.0,0.0,0.0,0.0,0.0,0.0,0.0,0.0,-5.5703,-5.5703,-5.5703,-5.6472,-5.8088,-5.8242,-5.9088,-6.0589,-5.9973,-5.9181,-5.8135,-5.6521,-5.5714,-5.5604,-5.5548,-5.5557,-5.5541,-5.4662,0.0,0.0,0.0,0.0,0.0,0.0,0.0,0.0,-5.3078,-5.3093,-5.3167,-5.3078,0.0,0.0,0.0,0.0,0.0,-5.3555,-5.3585,-5.3676,-5.3096,-5.2214,-5.1349,-5.0966,-4.9898,-4.9018,-4.9018,-4.9593,-5.0015,-4.9751,-5.0654,-5.0908,-4.9461,-5.1056,-5.3895,-5.7808,-6.1271,-6.4432,-6.7273,-6.8685,0.0,0.0,0.0,0.0,0.0,0.0,-7.1312,-7.1312,-7.1312,-7.1312,-7.1312,-7.1312,-7.1312,-7.1312,-7.1312,-7.1312,-7.1312,-7.1312,-7.1312,-7.1312,-7.1312,-7.1312,-7.1312,0.0,0.0,-7.1312,-7.1312,-7.1312,-7.1312,-7.1312,-7.1312,-7.1312,-7.1312,-7.1312,-7.1312,0.0,0.0,0.0,0.0,0.0,0.0,0.0,0.0,0.0,0.0,0.0,0.0,0.0,0.0,0.0,0.0,0.0,0.0,0.0,0.0,0.0,0.0,-5.5703,-5.5703,-5.5703,-5.5703,-5.6203,-5.7214,-5.7934,-5.8781,-5.9704,-6.0319,-5.9573,-5.7682,-5.6727,-5.5886,-5.516,-5.4837,-5.4875,-5.5109,-5.4253,0.0,0.0,0.0,0.0,0.0,0.0,0.0,0.0,-5.2417,-5.2637,-5.3078,-5.2417,0.0,0.0,0.0,0.0,0.0,-5.4069,-5.5214,-5.5517,-5.2238,-5.1812,-5.166,-4.9763,-4.9154,-4.9018,-4.9018,-4.9593,-5.0015,-4.9751,-4.9693,-4.9961,-5.0866,-5.3712,-5.7672,-6.2958,0.0,-6.6332,-6.856,0.0,0.0,0.0,0.0,0.0,0.0,0.0,-7.1312,-7.1312,-7.1312,-7.1312,-7.1312,-7.1312,-7.1312,-7.1312,-7.1312,-7.1312,-7.1312,-7.1312,-7.1312,-7.1312,-7.1312,-7.1312,-7.1312,0.0,-7.1312,-7.1312,-7.1312,-7.1312,-7.1312,-7.1312,-7.1312,-7.1312,-7.1312,-7.1312,-7.1312,0.0,0.0,0.0,0.0,0.0,0.0,0.0,0.0,0.0,0.0,0.0,0.0,0.0,0.0,0.0,0.0,0.0,0.0,0.0,0.0,0.0,-5.6368,-5.5934,-5.5703,-5.5703,-5.6165,-5.6819,-5.7703,-5.9011,-5.9858,-6.0204,-5.9704,-5.8942,-5.7902,-5.6383,-5.5502,-5.508,-5.4655,-5.4716,-5.499,0.0,0.0,0.0,0.0,0.0,0.0,0.0,0.0,0.0,0.0,-5.2234,-5.2491,-5.2123,0.0,0.0,0.0,0.0,0.0,-5.3775,-5.462,-5.488,-5.2345,-5.2954,-5.3584,-5.1324,-5.0473,-5.0202,-5.0202,-5.0473,-5.0723,0.0,0.0,-5.1435,-5.3183,0.0,-5.7737,-6.1822,-6.3486,-6.5281,0.0,0.0,0.0,0.0,0.0,0.0,0.0,0.0,0.0,-7.1312,-7.1312,-7.1312,-7.1312,-7.0906,-7.0906,-7.1312,-7.0534,-7.0534,-7.1312,-7.0906,-7.0703,-7.0703,-7.0297,-7.0331,-7.0669,0.0,-7.0567,-7.1278,-7.0872,-7.0939,-7.1312,-7.1312,-7.1312,-7.1312,-7.1312,-7.1312,-7.1312,0.0,0.0,0.0,0.0,0.0,0.0,0.0,0.0,0.0,0.0,0.0,0.0,0.0,0.0,0.0,0.0,0.0,0.0,0.0,0.0,-5.6011,-5.6676,-5.6049,-5.5895,-5.628,-5.6753,-5.7434,-5.8319,-5.9781,-6.0512,-6.0473,-5.9165,-5.8239,-5.7633,-5.6077,-5.5165,-5.479,-5.4468,-5.4562,-5.4782,0.0,0.0,0.0,0.0,0.0,0.0,0.0,0.0,0.0,0.0,0.0,0.0,0.0,0.0,0.0,-5.3408,-5.3665,-5.4032,-5.3592,-5.4069,-5.4332,-5.2854,-5.3768,-5.457,-5.2961,-5.1995,-5.1589,-5.1928,-5.1995,-5.1967,0.0,-5.223,0.0,-5.4996,-5.6229,-5.8013,-6.0878,-6.2645,-6.4674,-6.7397,-6.8528,0.0,0.0,0.0,0.0,0.0,0.0,0.0,-7.1278,-7.1312,-7.1244,-7.1075,-7.05,-7.0398,-7.0804,-6.9654,-6.9755,-7.1041,-7.0297,-6.9925,-6.9925,-6.935,-6.9417,-6.9891,-6.935,-6.9755,-7.077,-7.0364,-7.0534,-7.1075,-7.1244,-7.1312,-7.1312,-7.1312,-7.1312,-7.1345,0.0,0.0,0.0,0.0,0.0,0.0,0.0,0.0,0.0,0.0,0.0,0.0,0.0,0.0,0.0,0.0,0.0,0.0,0.0,0.0,-5.5742,-5.578,-5.5742,-5.6472,-5.8088,-5.7357,-5.7434,-5.8319,-5.9165,-5.9588,-5.9588,-5.9473,-5.817,-5.5911,-5.6164,-5.5405,-5.3887,-5.3851,-5.4121,-5.4484,-5.3563,0.0,0.0,0.0,0.0,0.0,0.0,0.0,0.0,0.0,0.0,0.0,0.0,0.0,-5.3298,-5.3203,-5.3261,-5.3445,-5.4142,-5.4913,-5.5158,-5.3663,-5.2954,-5.2684,-5.3304,-5.2807,-5.2638,-5.4059,-5.4363,-5.3852,-5.22,-5.2799,-5.3939,-5.5357,-5.7835,-6.0811,-6.4112,0.0,-6.6576,0.0,0.0,0.0,0.0,0.0,0.0,0.0,0.0,0.0,-7.1312,-7.1312,-7.1007,-7.0297,-7.0229,-6.9891,-6.9282,-6.9147,-6.9485,-7.0263,-6.9519,-6.918,-6.918,-6.9113,-6.9147,-6.918,-6.9113,-6.918,-6.9316,-6.9925,-7.0229,-7.0331,-7.1041,-7.1312,-7.1312,-7.1312,-7.1312,-7.1413,0.0,0.0,0.0,0.0,0.0,0.0,0.0,0.0,0.0,0.0,0.0,0.0,0.0,0.0,0.0,0.0,0.0,0.0,0.0,0.0,-5.5934,-5.6483,-5.5972,-5.6511,-5.828,-5.7973,-5.8204,-5.905,-5.9358,-5.9781,-6.0281,-5.8704,-5.7301,-5.6092,-5.5496,-5.4705,-5.3777,-5.3777,-5.4056,-5.4367,-5.3827,-5.382,0.0,0.0,0.0,0.0,0.0,0.0,0.0,0.0,-5.2197,-5.2417,-5.2087,-5.2564,-5.3203,-5.3203,-5.3203,-5.3298,-5.3592,-5.4252,-5.4515,-5.2996,-5.2467,-5.2509,-5.3338,-5.3619,-5.389,-5.4465,-5.5683,-5.6208,-5.4769,0.0,-5.6001,-5.6657,-5.9132,-6.1709,-6.389,0.0,0.0,0.0,0.0,0.0,0.0,0.0,0.0,0.0,0.0,0.0,-7.1278,-7.1312,-7.0973,-7.0195,-6.9755,-6.9383,-6.9113,-6.8166,-6.7827,-6.8098,-6.7793,-6.7692,-6.7658,-6.7184,-6.7252,-6.7692,-6.7692,-6.8233,-6.9113,-6.9383,-6.9789,-7.0263,-7.1007,-7.1312,-7.1312,-7.1312,-7.1312,-7.1413,0.0,0.0,0.0,0.0,0.0,0.0,0.0,0.0,0.0,0.0,0.0,0.0,0.0,0.0,0.0,0.0,0.0,0.0,-5.5724,-5.5703,-5.5972,-5.656,-5.578,-5.6126,-5.7857,-5.7627,-5.8127,-5.9511,-5.9511,-5.9511,-5.955,-5.783,-5.6573,-5.5741,-5.476,-5.3929,-5.3235,-5.3349,-5.3491,-5.3634,-5.3635,-5.3776,0.0,0.0,0.0,0.0,0.0,0.0,0.0,0.0,-5.216,-5.238,-5.238,-5.2747,-5.3203,-5.3203,-5.3203,-5.3203,-5.3203,-5.3592,-5.3748,-5.2507,-5.2228,-5.2551,-5.3611,-5.4431,-5.5209,-5.6122,-5.6968,-5.7223,-5.6179,0.0,0.0,0.0,-5.9646,-6.1941,0.0,0.0,0.0,0.0,0.0,0.0,0.0,0.0,0.0,0.0,0.0,0.0,0.0,-7.0872,-7.0364,-6.9857,-6.9113,-6.8605,-6.8368,-6.7117,-6.644,-6.644,-6.6,-6.5899,-6.6102,-6.5831,-6.5967,-6.6474,-6.6711,-6.7523,-6.8741,-6.9011,-6.9654,-7.0601,-7.1109,-7.1312,-7.1312,-7.1312,-7.1312,-7.1447,0.0,0.0,0.0,0.0,0.0,0.0,0.0,0.0,0.0,0.0,0.0,0.0,0.0,0.0,0.0,0.0,0.0,0.0,-5.5686,-5.5665,-5.5665,-5.5665,-5.4934,-5.528,-5.6945,-5.6126,-5.6934,-5.9473,-5.9473,-5.8588,-5.6983,-5.6983,-5.6066,-5.4462,-5.4082,-5.3192,-5.2018,-5.2401,-5.2362,-5.205,-5.2858,-5.3167,-5.3167,0.0,0.0,0.0,0.0,0.0,0.0,0.0,-5.2527,-5.3167,-5.3203,-5.3203,-5.3203,-5.3203,-5.3203,-5.3203,-5.3167,-5.3167,-5.3032,-5.2365,-5.2201,-5.2636,-5.4225,-5.5175,-5.6528,-5.9471,-5.8321,-5.6562,-5.5852,-5.6325,0.0,-5.6799,-5.9336,0.0,0.0,0.0,0.0,0.0,0.0,0.0,0.0,0.0,0.0,0.0,0.0,0.0,0.0,-6.9891,-6.9079,-6.9079,-6.8301,-6.7523,-6.6812,-6.6034,-6.5662,-6.5662,-6.4208,-6.3903,-6.4613,-6.5358,-6.5662,-6.573,-6.6474,-6.7218,-6.7963,-6.8774,-6.9992,-7.1312,-7.1312,-7.1312,-7.1312,-7.1312,-7.1312,-7.1515,0.0,0.0,0.0,0.0,0.0,0.0,0.0,0.0,0.0,0.0,0.0,0.0,0.0,0.0,0.0,0.0,0.0,0.0,-5.4811,-5.428,-5.3933,-5.3933,-5.4318,-5.4434,-5.4318,-5.5241,-5.6665,-5.8665,-5.7434,-5.6549,-5.6049,-5.5511,-5.4638,-5.3601,-5.3452,-5.2898,-5.1961,-5.1534,-5.1293,-5.1169,-5.1426,-5.1499,-5.1573,0.0,0.0,0.0,0.0,0.0,0.0,0.0,0.0,0.0,-5.3041,-5.3592,-5.3922,-5.335,-5.3203,-5.3078,-5.2527,-5.2375,-5.2255,-5.1525,-5.1849,-5.2756,-5.4261,-5.4769,-5.575,-5.8727,-5.7577,-5.6292,-5.7103,-5.7002,0.0,-5.7476,-5.8761,0.0,0.0,0.0,0.0,0.0,0.0,0.0,0.0,0.0,0.0,0.0,0.0,0.0,0.0,-6.935,-6.8605,-6.7523,-6.7252,-6.6542,-6.5256,-6.5053,-6.4681,-6.414,-6.3734,-6.3632,-6.3835,-6.4072,-6.4444,-6.4952,-6.5696,-6.644,-6.7252,-6.8571,-6.9992,-7.1312,-7.1312,-7.1312,-7.1312,-7.1312,-7.1312,-7.1515,0.0,0.0,0.0,0.0,0.0,0.0,0.0,0.0,0.0,0.0,-5.4979,-5.5027,0.0,0.0,0.0,0.0,0.0,0.0,0.0,-5.3664,-5.3356,-5.3703,-5.3895,-5.3741,-5.3203,-5.4511,-5.5588,-5.628,-5.5895,-5.5357,-5.4703,-5.4549,-5.4137,-5.3451,-5.3278,-5.2677,-5.1708,-5.1086,-5.0618,-5.0362,-5.0655,-5.0802,-5.0839,0.0,0.0,0.0,0.0,0.0,0.0,0.0,0.0,0.0,-5.2626,-5.2858,-5.2931,-5.2784,-5.2711,-5.2632,-5.2178,-5.2282,-5.2352,-5.1695,-5.2155,-5.3111,-5.433,-5.5513,-5.6934,0.0,-5.7915,-5.6833,-5.7712,-5.7306,0.0,0.0,0.0,0.0,0.0,0.0,0.0,0.0,0.0,0.0,0.0,0.0,0.0,0.0,0.0,0.0,0.0,-6.7624,-6.7015,-6.6373,-6.6102,-6.5493,-6.4613,-6.4005,-6.3666,-6.3497,-6.2922,-6.2787,-6.3091,-6.3666,-6.4174,-6.4681,-6.6,-6.6812,-6.7354,-6.891,-7.006,-7.0906,-7.121,-7.1312,-7.1312,-7.1312,-7.1312,-7.1481,0.0,0.0,0.0,0.0,0.0,0.0,0.0,0.0,0.0,0.0,-5.3945,-5.4219,0.0,0.0,0.0,0.0,0.0,0.0,0.0,0.0,-5.3356,-5.4241,-5.3587,-5.3241,-5.3318,-5.401,-5.3933,-5.3087,-5.4626,-5.4587,-5.3087,-5.3972,-5.4066,-5.3503,-5.3141,-5.2285,-5.108,-5.0652,-5.0031,-4.9463,-5.0251,-5.0582,-5.0582,-5.0729,0.0,0.0,0.0,0.0,0.0,0.0,0.0,0.0,-5.2072,-5.1467,-5.1059,-5.1793,-5.1956,-5.1935,-5.2072,-5.2498,-5.2819,-5.237,-5.2892,-5.3714,-5.4432,-5.6731,-5.8896,-5.9573,0.0,-5.7881,-5.7814,-5.7306,0.0,0.0,0.0,0.0,0.0,0.0,0.0,0.0,0.0,0.0,0.0,0.0,0.0,0.0,0.0,0.0,0.0,-6.5189,-6.4749,-6.5256,-6.4647,-6.4275,-6.4174,-6.2854,-6.2516,-6.3193,-6.1907,-6.1637,-6.2347,-6.3768,-6.4478,-6.4715,-6.688,-6.7827,-6.7996,-6.9383,-7.0026,-7.0161,-7.0906,-7.121,-7.121,-7.1278,-7.1312,-7.1447,0.0,0.0,0.0,0.0,0.0,0.0,0.0,0.0,0.0,0.0,0.0,0.0,0.0,0.0,0.0,0.0,0.0,0.0,0.0,0.0,-5.1587,-5.2423,-5.2933,-5.351,-5.4203,-5.3741,-5.3049,-5.2192,-5.2538,-5.2538,-5.2192,-5.3087,-5.2724,-5.138,-5.1313,-5.0429,-4.8918,-4.8197,-4.781,-4.77,-4.8526,-4.8857,-4.9003,-5.0288,-5.0472,0.0,0.0,0.0,0.0,0.0,0.0,0.0,-5.1491,-5.1597,-5.1756,-5.194,-5.1587,-5.1262,-5.1872,-5.1383,-5.0934,-5.1944,-5.3318,-5.4397,-5.4567,-5.5547,-5.6461,-5.663,-5.7306,-5.7712,-5.7137,0.0,0.0,0.0,0.0,0.0,0.0,0.0,0.0,0.0,0.0,0.0,0.0,0.0,0.0,0.0,0.0,0.0,-6.3396,-6.3599,-6.3294,-6.2279,-6.2076,-6.1704,-6.1061,-6.0757,-6.0655,0.0,-6.1163,-6.14,-6.1569,-6.2448,-6.3497,-6.4681,-6.6339,-6.7387,-6.7929,-6.8267,-6.8774,-6.9417,-7.0161,-7.0432,-7.05,-7.1109,-7.1312,-7.1515,0.0,0.0,0.0,0.0,0.0,0.0,0.0,0.0,0.0,0.0,0.0,0.0,0.0,0.0,0.0,0.0,0.0,0.0,0.0,0.0,0.0,-5.1846,-5.2731,-5.3241,-5.3241,-5.2818,-5.2164,-5.1318,-5.1318,-5.1318,-5.1356,-5.2626,-5.2426,-5.0968,-5.0865,-5.0006,-4.8604,-4.7942,-4.7443,-4.7186,-4.7976,-4.8306,-4.8416,-4.926,-4.9591,-4.9667,-5.0765,0.0,0.0,0.0,0.0,0.0,0.0,0.0,-5.0288,-5.0749,-5.0561,-5.0446,-5.1269,-5.1241,-5.1302,-5.2523,0.0,-5.416,-5.4499,-5.4905,-5.5175,-5.5175,-5.6089,-5.6833,0.0,0.0,0.0,0.0,0.0,0.0,0.0,0.0,0.0,0.0,0.0,0.0,0.0,0.0,0.0,0.0,0.0,-6.211,-6.1332,-6.167,-6.1366,-6.025,-6.0216,-6.0013,-5.9573,-5.9235,-5.9404,-6.0114,-6.052,-6.1095,-6.1873,-6.2956,-6.4275,-6.5696,-6.6474,-6.6812,-6.688,-6.7624,-6.7929,-6.8166,-6.962,-7.0195,-7.0297,-7.1041,-7.1312,-7.1481,0.0,0.0,0.0,0.0,0.0,0.0,0.0,0.0,0.0,0.0,0.0,0.0,0.0,0.0,0.0,0.0,0.0,0.0,0.0,0.0,0.0,0.0,-5.2731,-5.2856,-5.2154,-5.1962,-5.1587,-5.0894,-5.0894,-5.0894,-5.0933,-5.2267,-5.2219,-5.0977,-5.0624,-4.9743,-4.8458,-4.82,-4.7626,-4.6966,-4.7939,-4.8306,-4.8343,-4.8489,-4.8893,-4.9448,-4.9915,-5.0557,-5.1185,-5.1036,0.0,0.0,0.0,0.0,-4.8489,-4.9353,-4.9495,-4.9642,-5.0615,-5.1465,-5.2298,-5.3101,-5.3416,0.0,-5.4262,-5.4397,-5.4397,-5.4397,0.0,0.0,0.0,0.0,0.0,0.0,0.0,0.0,0.0,0.0,0.0,0.0,0.0,0.0,0.0,0.0,0.0,0.0,0.0,-5.9945,-5.9539,-5.9641,-5.937,-5.866,-5.8637,-5.8608,-5.8608,-5.8278,-5.8653,-5.9729,-5.9987,-6.0892,-6.2448,-6.3802,-6.5155,-6.644,-6.644,-6.6136,-6.5764,-6.7015,-6.7151,-6.6846,-6.9113,-6.9992,-7.0094,-7.0973,-7.1312,-7.1447,0.0,0.0,0.0,0.0,0.0,0.0,0.0,0.0,0.0,0.0,-5.1562,-5.1601,0.0,0.0,0.0,0.0,0.0,0.0,0.0,0.0,0.0,0.0,-5.2731,-5.3164,-5.3049,-5.2269,-5.1846,-5.1731,-5.1731,-5.1731,-5.1731,-5.161,-5.0926,-4.9712,-4.939,-4.8144,-4.636,-4.7003,-4.6782,-4.6177,-4.7719,-4.8306,-4.8379,-4.9114,-4.9003,-4.8563,-4.9394,-4.9973,-5.0253,-4.9491,-4.964,0.0,0.0,0.0,-4.8489,-4.9353,-4.9175,-4.8959,-5.0397,0.0,-5.2244,0.0,-5.2976,-5.3518,0.0,0.0,-5.3653,0.0,0.0,0.0,0.0,0.0,0.0,0.0,0.0,0.0,0.0,0.0,0.0,0.0,0.0,0.0,0.0,0.0,0.0,0.0,-5.866,-5.9268,-5.734,-5.7848,-5.7848,-5.7137,-5.709,-5.708,-5.708,-5.838,-5.8765,-5.8185,-5.9502,-6.0892,-6.2415,-6.326,-6.4106,-6.4884,-6.4884,-6.5189,-6.5696,-6.5899,-6.5933,-6.6068,-6.8368,-6.9248,-6.9417,-7.0804,-7.1312,-7.1515,0.0,0.0,0.0,0.0,0.0,0.0,0.0,0.0,0.0,0.0,0.0,-5.1406,0.0,0.0,0.0,0.0,0.0,0.0,0.0,0.0,0.0,0.0,0.0,-5.1587,-5.1087,-5.0702,-5.0279,-4.9769,-4.9769,-5.0279,-5.1192,-5.0558,-5.0478,-5.0809,-4.907,-4.7895,-4.7205,-4.6654,-4.6471,-4.6672,-4.7829,-4.8049,-4.77,-4.8563,-4.8343,-4.7736,-4.8563,-4.8973,-4.9104,-4.8679,-4.8827,-4.8975,-4.8161,0.0,0.0,0.0,-4.7965,-4.8265,-5.0813,-5.1809,-5.2479,0.0,-5.4178,-5.42,-5.4637,0.0,0.0,0.0,0.0,0.0,0.0,0.0,0.0,0.0,0.0,0.0,0.0,0.0,0.0,0.0,0.0,0.0,0.0,0.0,0.0,0.0,0.0,-5.7408,-5.6833,-5.6731,-5.6503,-5.6199,-5.615,-5.6391,-5.6821,-5.7534,-5.8136,-5.8595,-5.97,-6.074,-6.1772,-6.211,-6.3125,-6.4613,-6.4613,-6.4783,-6.5121,-6.5527,-6.5997,-6.673,-6.9028,-6.992,-7.0085,-7.1593,-7.1786,-7.1515,0.0,0.0,0.0,0.0,0.0,0.0,0.0,0.0,0.0,0.0,0.0,0.0,0.0,0.0,0.0,0.0,0.0,0.0,0.0,0.0,0.0,0.0,0.0,-5.0048,-4.9394,-4.9394,-4.8971,-4.8086,-4.8086,-4.9086,-5.0962,-5.0012,-5.0656,-5.2507,-4.95,-4.7994,-4.7609,-4.6617,-4.6544,-4.7113,-4.7516,-4.7443,-4.7149,-4.7535,-4.7315,-4.6892,-4.77,-4.8012,-4.8049,-4.8233,-4.8306,-4.8159,-4.7333,-4.7113,0.0,0.0,0.0,0.0,0.0,0.0,-5.2192,-5.406,-5.4524,-5.4715,0.0,0.0,0.0,0.0,0.0,0.0,0.0,0.0,0.0,0.0,0.0,0.0,0.0,0.0,0.0,0.0,0.0,0.0,0.0,0.0,0.0,0.0,0.0,-5.6055,-5.6224,-5.6062,-5.5893,-5.5721,-5.5916,-5.6288,-5.683,-5.7079,-5.7824,-5.9112,-5.9729,-6.0251,-6.0758,-6.1143,-6.2212,-6.3768,-6.3971,-6.4241,-6.4688,-6.5481,-6.6257,-6.7286,-6.9634,-7.0522,-7.0581,-7.1932,-7.1926,-7.1515,0.0,0.0,0.0,0.0,0.0,0.0,0.0,0.0,0.0,0.0,0.0,0.0,-5.1406,-5.1406,-5.1003,-4.9958,0.0,0.0,0.0,0.0,0.0,0.0,0.0,0.0,-4.9394,-4.9394,-4.8971,-4.8086,-4.8086,-4.9385,-5.1808,-5.0562,-5.154,-5.4226,-5.0954,-4.8197,-4.6067,-4.6746,-4.7076,-4.7039,-4.6324,-4.6471,-4.7003,-4.6287,-4.5993,-4.6067,-4.6856,-4.7149,-4.7259,-4.8049,-4.8306,-4.8159,-4.7333,-4.7113,-4.6966,0.0,0.0,0.0,0.0,-4.9739,0.0,-5.1199,0.0,0.0,0.0,0.0,0.0,0.0,0.0,0.0,0.0,0.0,0.0,0.0,0.0,0.0,0.0,0.0,0.0,0.0,0.0,0.0,0.0,0.0,0.0,0.0,0.0,-5.6156,-5.4769,-5.5991,-5.6416,-5.5718,-5.6446,-5.6845,-5.6871,-5.7565,-5.8367,-5.9204,-5.9169,-5.9183,-5.9253,-6.0659,-6.1366,-6.1501,-6.2212,-6.3294,-6.4661,-6.5619,-6.6323,-6.7048,-6.9554,-7.0408,-7.0317,-7.1096,-7.1356,-7.1515,0.0,0.0,0.0,0.0,0.0,0.0,0.0,0.0,0.0,0.0,0.0,0.0,0.0,-5.1206,-5.1,-5.0545,-5.0727,0.0,0.0,0.0,0.0,0.0,0.0,0.0,0.0,-4.8586,-4.7894,-4.6509,-4.6509,-4.7509,-4.9462,-4.8727,-4.9162,-5.0485,-4.9562,-4.9123,-4.893,-4.7095,-4.6948,-4.7736,-4.6434,-4.6067,-4.6324,-4.5993,-4.5883,-4.5993,-4.6819,-4.7443,-4.7883,-4.8196,-4.8306,-4.8086,-4.6764,-4.6324,-4.6287,0.0,0.0,0.0,0.0,0.0,0.0,0.0,0.0,0.0,0.0,0.0,0.0,0.0,0.0,0.0,0.0,0.0,0.0,0.0,0.0,0.0,0.0,0.0,0.0,0.0,0.0,0.0,0.0,0.0,0.0,0.0,0.0,0.0,-5.46,-5.4669,-5.4984,-5.5683,-5.5978,-5.6606,-5.7607,-5.8373,-5.8914,-5.9231,-5.9717,-6.0184,-6.0668,-6.118,-6.1987,-6.2927,-6.3171,-6.4137,-6.5551,-6.5859,-6.7026,-6.8857,-7.0739,-7.1041,-7.0553,-7.1789,-7.1873,-7.1515,0.0,0.0,0.0,0.0,0.0,0.0,0.0,0.0,0.0,-5.0847,0.0,0.0,0.0,0.0,-5.1036,-5.0903,-5.0503,-4.9894,-4.9009,-4.8971,0.0,0.0,0.0,0.0,-4.8125,-4.8086,-4.7432,-4.6047,-4.6047,-4.674,-4.8077,-4.7563,-4.7853,-4.8854,-4.8416,-4.861,-4.9003,-4.6838,-4.6691,-4.7755,-4.5847,-4.559,-4.6287,-4.5993,-4.5883,-4.603,-4.7113,-4.7663,-4.792,-4.8233,-4.8122,-4.7663,-4.6324,-4.5516,-4.5186,-4.5736,0.0,0.0,-4.937,0.0,0.0,0.0,0.0,0.0,0.0,0.0,0.0,0.0,0.0,0.0,0.0,0.0,0.0,0.0,0.0,0.0,0.0,0.0,0.0,0.0,0.0,0.0,0.0,0.0,0.0,0.0,0.0,0.0,-5.4228,-5.4492,-5.5188,-5.6411,-5.6465,-5.6978,-5.7997,-5.8547,-5.8786,-5.8812,-5.9591,-6.0252,-6.073,-6.1552,-6.2454,-6.3444,-6.3975,-6.5053,-6.6454,-6.6813,-6.8188,-7.0203,-7.1477,-7.1511,-7.1018,-7.1924,-7.1873,-7.1481,0.0,0.0,0.0,0.0,0.0,0.0,0.0,0.0,-5.0863,-5.0135,0.0,0.0,0.0,0.0,0.0,-5.0896,-4.9993,-4.9048,-4.8163,-4.8086,0.0,0.0,0.0,0.0,-4.8048,-4.8086,-4.7702,-4.6846,-4.6885,-4.7278,-4.8009,-4.724,-4.7959,-4.9821,-4.7856,-4.6554,-4.5865,-4.5847,-4.6361,-4.6892,-4.4488,-4.4966,-4.7003,-4.6214,-4.592,-4.614,-4.7719,-4.7773,-4.7259,-4.8049,-4.7773,-4.6966,-4.614,-4.4782,-4.3828,-4.5406,0.0,0.0,0.0,0.0,0.0,0.0,0.0,0.0,0.0,0.0,0.0,0.0,0.0,0.0,0.0,0.0,0.0,0.0,0.0,0.0,0.0,0.0,0.0,0.0,0.0,0.0,0.0,0.0,0.0,0.0,0.0,-5.4228,-5.3585,-5.5672,-5.7209,-5.7927,-5.7997,-5.7997,-5.7997,-5.7997,-5.7997,-5.807,-5.8874,-5.9258,-5.9339,-6.1675,-6.2722,-6.2864,-6.4356,-6.588,-6.7401,-6.8399,-6.9567,-7.0841,-7.1654,-7.1792,-7.1553,-7.1416,-7.1312,-7.1413,0.0,0.0,0.0,0.0,0.0,0.0,-5.3359,-5.2515,-5.1692,0.0,0.0,0.0,-5.0863,-5.0825,-5.0808,-5.0776,-5.0519,-4.9702,-4.8202,-4.8086,-4.774,-4.6923,-4.6885,-4.7,-4.7231,-4.7817,-4.7394,-4.597,-4.6586,-4.6701,-4.6278,-4.6047,-4.6445,-4.7293,-4.6754,-4.6081,-4.5391,-4.5144,-4.5828,-4.6929,-4.5112,-4.5461,-4.7003,-4.6214,-4.625,-4.6819,-4.7259,-4.7663,-4.8012,-4.8233,-4.7773,-4.6856,-4.5461,-4.4745,-4.4452,0.0,0.0,-4.6856,-4.7296,0.0,0.0,0.0,0.0,0.0,-5.3078,-5.4326,0.0,0.0,0.0,0.0,0.0,0.0,0.0,0.0,0.0,0.0,0.0,0.0,0.0,0.0,0.0,0.0,0.0,0.0,0.0,0.0,-5.3687,-5.3921,-5.4264,-5.5943,-5.6999,-5.7202,-5.7726,-5.7997,-5.7997,-5.7997,-5.829,-5.8854,-5.9676,-6.037,-6.0991,-6.2209,-6.3412,-6.4603,-6.5012,-6.643,-6.8502,-6.8717,-6.9345,-7.0345,-7.2247,-7.2078,-7.0949,-7.1973,-7.1917,-7.1413,0.0,0.0,0.0,0.0,0.0,-5.4413,-5.3976,-5.3,-5.2246,0.0,0.0,0.0,-5.075,-5.101,-5.1048,-5.075,-5.0712,-4.9971,-4.8202,-4.8086,-4.7586,-4.6394,-4.6355,-4.6663,-4.7394,-4.7855,-4.7625,-4.6624,-4.7163,-4.6778,-4.5594,-4.5594,-4.5744,-4.6,-4.5884,-4.547,-4.4915,-4.4538,-4.5235,-4.6452,-4.4856,-4.559,-4.7516,-4.6709,-4.6892,-4.7626,-4.8012,-4.8196,-4.8306,-4.8306,-4.7535,0.0,0.0,0.0,0.0,0.0,0.0,-4.7186,-4.7516,-4.8196,0.0,0.0,0.0,0.0,-5.2307,-5.3335,-5.4252,0.0,0.0,0.0,0.0,0.0,0.0,0.0,0.0,0.0,0.0,0.0,0.0,0.0,0.0,0.0,0.0,0.0,0.0,-5.3518,-5.3518,-5.3946,-5.4994,-5.6232,-5.6895,-5.6879,-5.7591,-5.785,-5.7483,-5.7813,-5.8253,-5.8731,-5.9869,-6.0639,-6.1153,-6.3025,-6.4383,-6.5338,-6.5999,-6.71,-6.8431,-6.8713,-6.9484,-7.0696,-7.2637,-7.2724,-7.1814,-7.2533,-7.2448,-7.1942,0.0,0.0,0.0,-5.5586,-5.543,-5.5114,-5.4094,-5.3077,-5.268,0.0,-5.1978,-5.102,-5.1097,-5.1587,-5.1625,-5.0894,-5.075,-4.9971,-4.8202,-4.8086,-4.7355,-4.5671,-4.5594,-4.6355,-4.7932,-4.7971,-4.7971,-4.7971,-4.7971,-4.7163,-4.5594,-4.5594,-4.5594,-4.5586,-4.5273,0.0,-4.4585,-4.4219,-4.4707,-4.5626,-4.4195,-4.5443,-4.8086,0.0,-4.7553,-4.8269,-4.904,-4.882,-4.8159,-4.7976,-4.6948,0.0,0.0,0.0,0.0,0.0,-4.7076,-4.7369,-4.8122,-4.893,-4.9794,-5.0618,-5.0802,0.0,-5.1683,-5.2564,-5.3387,0.0,0.0,0.0,0.0,0.0,0.0,0.0,0.0,0.0,0.0,0.0,0.0,0.0,0.0,0.0,0.0,-5.4042,-5.3618,-5.3618,-5.3616,-5.4193,-5.5497,-5.6419,-5.6818,-5.6689,-5.7519,-5.7593,-5.6822,-5.7593,-5.7997,-5.8033,-5.9648,-6.0419,-6.0529,-6.3723,-6.5228,-6.5375,-6.6916,-6.7614,-6.776,-6.8641,-6.9889,-7.1309,-7.2849,-7.3435,-7.3386,-7.3054,-7.288,-7.2666,0.0,0.0,0.0,-5.6367,-5.6367,-5.6013,-5.4994,-5.3978,-5.3347,-5.339,-5.3011,-5.2972,-5.3664,-5.2664,-5.1846,-5.1692,-5.1087,-4.9971,-4.8202,-4.8086,-4.7355,-4.5671,-4.5594,-4.6086,-4.7115,-4.7115,-4.7115,-4.7115,-4.7115,-4.6624,-4.5594,-4.5594,-4.5594,-4.5594,-4.5541,-4.518,-4.4612,-4.4533,-4.4655,-4.4929,-4.4599,-4.5626,-4.7333,-4.7149,-4.7186,-4.7369,-4.7516,-4.748,-4.7149,-4.5828,-4.5168,-4.4929,0.0,0.0,0.0,-4.603,0.0,0.0,0.0,0.0,0.0,0.0,-5.0802,0.0,-5.0986,-5.216,-5.3261,0.0,0.0,0.0,0.0,0.0,0.0,0.0,0.0,0.0,0.0,0.0,0.0,0.0,0.0,0.0,0.0,-5.4818,-5.4391,-5.4391,-5.4351,-5.4435,-5.4719,-5.6063,-5.6502,-5.5868,-5.7226,-5.7593,-5.6822,-5.7593,-5.7997,-5.8033,-5.9648,-6.0419,-6.0493,-6.3135,-6.4677,-6.5375,-6.6329,-6.71,-6.7797,-6.9265,-7.0036,-7.0522,-7.2761,-7.3515,-7.3454,-7.3856,-7.3492,-7.2666,0.0,0.0,0.0,-5.5937,-5.5937,-5.5892,-5.5681,-5.484,-5.4328,-5.4521,-5.4477,-5.428,-5.3895,-5.3087,-5.2385,-5.1923,-5.1164,-4.9971,-4.8202,-4.8086,-4.7355,-4.5671,-4.5594,-4.6009,-4.6885,-4.6885,-4.6885,-4.6885,-4.6885,-4.6432,-4.5594,-4.5594,-4.5594,-4.5594,-4.5594,-4.5303,-4.4849,-4.4688,-4.4982,-4.5446,-4.4503,0.0,-4.6452,-4.6049,-4.6159,-4.6507,-4.6507,-4.6507,-4.6397,-4.559,-4.5039,0.0,-4.5186,-4.5847,-4.6581,0.0,-4.8269,-4.9481,0.0,0.0,0.0,-5.1279,0.0,0.0,0.0,-5.2013,-5.2711,0.0,0.0,0.0,0.0,0.0,0.0,0.0,0.0,0.0,0.0,0.0,0.0,0.0,0.0,0.0,0.0,-5.5581,-5.4999,-5.4637,-5.4903,-5.4919,-5.45,-5.597,-5.6418,-5.5633,-5.7152,-5.7593,-5.6822,-5.7593,-5.7997,-5.8033,-5.9648,-6.0419,-6.0493,-6.3392,-6.4934,-6.5375,-6.6549,-6.754,-6.8348,-6.9155,-6.9963,-7.0954,-7.3377,-7.4245,-7.4151,-7.426,-7.3966,-7.3332,-5.5195,-5.5195,0.0,0.0,0.0,-5.5458,-5.5882,-5.5224,-5.4802,-5.516,-5.5357,-5.4934,-5.3587,-5.3318,-5.2933,-5.2192,-5.1125,-4.9856,-4.8432,-4.8048,-4.7201,-4.5671,-4.5594,-4.6009,-4.6885,-4.674,-4.674,-4.6885,-4.674,-4.6278,-4.5594,-4.5594,-4.571,-4.5864,-4.5864,-4.5765,-4.5562,-4.528,0.0,-4.6073,0.0,-4.476,-4.603,-4.5259,-4.5333,-4.5883,-4.5736,-4.5553,-4.5443,-4.5443,-4.5002,-4.4635,-4.559,-4.6361,0.0,0.0,0.0,0.0,0.0,0.0,0.0,0.0,0.0,-5.2197,0.0,0.0,0.0,0.0,0.0,0.0,0.0,0.0,0.0,0.0,0.0,0.0,0.0,0.0,0.0,0.0,0.0,0.0,0.0,-5.6251,-5.5455,-5.4844,-5.5071,-5.4938,-5.4259,-5.5716,-5.6198,-5.539,-5.7079,-5.7593,-5.6822,-5.7593,-5.7997,-5.8033,-5.9648,-6.0493,-6.075,-6.387,-6.5375,-6.5632,-6.7063,-6.8164,-6.8898,-6.9082,-7.0,-7.1513,-7.3817,-7.4771,-7.4854,-7.444,-7.4272,-7.4005,-5.418,-5.4765,0.0,0.0,0.0,0.0,0.0,0.0,-5.3682,-5.3504,-5.4164,-5.4549,-5.4357,-5.3664,-5.3164,-5.3049,-5.0894,0.0,-4.9279,-4.7855,-4.6624,-4.5633,-4.5594,-4.6009,-4.6885,-4.6124,-4.6124,-4.6885,-4.6124,-4.571,-4.5594,-4.5594,-4.6009,-4.674,-4.674,-4.6954,-4.7312,0.0,-4.6529,0.0,-4.519,-4.5864,0.0,-4.6067,-4.581,-4.581,-4.5112,-4.4378,-4.3772,0.0,-4.3735,-4.3901,0.0,-4.5957,-4.6471,-4.871,0.0,0.0,0.0,0.0,0.0,0.0,-5.3078,0.0,0.0,0.0,-5.2894,-5.227,0.0,0.0,0.0,0.0,0.0,0.0,0.0,0.0,0.0,0.0,0.0,0.0,0.0,0.0,0.0,0.0,-5.5677,-5.56,-5.4262,-5.3423,-5.3349,-5.4861,-5.5354,-5.4546,-5.6785,-5.7593,-5.6822,-5.7593,-5.7997,-5.8033,-5.9648,-6.0786,-6.1557,-6.4127,-6.5705,-6.6402,-6.7283,-6.8164,-6.8972,-6.9669,-7.0477,-7.1439,-7.3156,-7.4258,-7.4854,-7.444,-7.4272,-7.4005,-5.3242,-5.3555,-5.3672,0.0,0.0,0.0,0.0,0.0,-5.4259,-5.4619,-5.4972,-5.5395,-5.5906,-5.4741,-5.3933,-5.3933,-5.2049,-5.0433,0.0,0.0,-4.7971,-4.7086,0.0,-4.6547,-4.6885,-4.6047,-4.5787,-4.6163,-4.5787,-4.5594,-4.5594,-4.5594,-4.6086,-4.6885,-4.6885,-4.7261,-4.7882,0.0,-4.7502,0.0,0.0,0.0,0.0,-4.5955,-4.5223,-4.5149,-4.4819,-4.4195,-4.3588,0.0,-4.3901,0.0,0.0,0.0,0.0,0.0,0.0,0.0,0.0,0.0,0.0,0.0,0.0,0.0,-5.2784,0.0,-5.3093,0.0,0.0,0.0,0.0,0.0,0.0,0.0,0.0,0.0,0.0,0.0,0.0,0.0,0.0,0.0,0.0,0.0,0.0,0.0,0.0,-5.4189,-5.3255,-5.5163,-5.5941,-5.5097,-5.6969,-5.785,-5.7483,-5.7813,-5.8217,-5.8731,-5.9869,-6.108,-6.2365,-6.4383,-6.5742,-6.6549,-6.7357,-6.8421,-6.9633,-6.9963,-7.0844,-7.2165,-7.378,-7.4251,-7.4055,-7.4224,-7.3928,-7.3212,-5.2368,-5.2453,-5.2576,0.0,0.0,0.0,0.0,0.0,0.0,-5.4969,-5.5052,0.0,-5.6522,-5.5253,0.0,-5.4622,-5.2883,-5.1233,0.0,0.0,-4.8894,0.0,0.0,-4.7009,-4.6547,-4.6163,-4.5825,-4.5594,-4.5594,-4.5594,-4.5594,-4.5594,-4.6086,-4.6923,-4.7115,-4.7702,-4.8462,0.0,-4.8602,-4.8753,-4.7947,-4.7857,-4.8025,-4.5859,-4.4892,-4.4654,-4.4452,-4.4011,-4.3571,-4.4158,-4.3975,0.0,-4.5112,0.0,0.0,0.0,0.0,0.0,-5.1463,0.0,0.0,0.0,0.0,0.0,0.0,0.0,0.0,0.0,0.0,0.0,0.0,0.0,0.0,0.0,0.0,0.0,0.0,0.0,0.0,0.0,0.0,0.0,0.0,0.0,0.0,-5.5692,-5.5218,-5.4422,-5.3251,-5.5071,-5.5978,-5.5611,-5.6932,-5.7776,-5.7997,-5.7997,-5.84,-5.9184,-6.0015,-6.1263,-6.2853,-6.431,-6.5521,-6.6512,-6.71,-6.8274,-6.9779,-7.0,-7.0917,-7.2349,-7.4184,-7.4097,-7.3077,-7.3967,-7.369,-7.2666,-5.1454,-5.1895,-5.2278,0.0,0.0,0.0,0.0,0.0,0.0,0.0,0.0,0.0,0.0,0.0,0.0,0.0,0.0,-5.1281,-5.1243,0.0,-4.8663,0.0,0.0,-4.7317,-4.5671,-4.6432,-4.6432,-4.5594,-4.5594,-4.5594,-4.5594,-4.5594,-4.6086,-4.6923,-4.7702,-4.8548,-4.9394,-5.024,-4.9935,-4.8876,-4.8876,-4.7943,-4.6531,0.0,-4.5369,-4.4599,-4.3828,0.0,0.0,-4.3551,-4.3515,0.0,0.0,0.0,0.0,0.0,0.0,0.0,0.0,0.0,0.0,-5.183,0.0,0.0,0.0,0.0,-5.3445,0.0,0.0,0.0,0.0,0.0,-5.4363,-5.4399,0.0,0.0,0.0,0.0,0.0,0.0,0.0,0.0,0.0,0.0,0.0,-5.5588,-5.4157,-5.324,-5.3182,-5.4011,-5.4803,-5.5596,-5.6418,-5.7226,-5.7997,-5.7997,-5.84,-5.9184,-6.0015,-6.1263,-6.2817,-6.3723,-6.5007,-6.6512,-6.6512,-6.7467,-6.9009,-6.9779,-7.0587,-7.155,-7.3964,-7.3675,-7.2149,-7.3706,-7.369,-7.2666,-5.2134,-5.2064,-5.2033,-5.1371,0.0,0.0,0.0,-5.2658,0.0,0.0,-5.4477,0.0,0.0,-5.5427,-5.4764,0.0,0.0,-5.2309,-5.1726,-5.1586,0.0,0.0,0.0,-4.9279,0.0,0.0,-4.6778,-4.6471,-4.5893,-4.5594,-4.5594,-4.5594,-4.6086,-4.6923,-4.7192,-4.7778,0.0,0.0,0.0,0.0,0.0,-4.9049,-4.7956,0.0,0.0,-4.4581,-4.3791,-4.3515,0.0,-4.3515,-4.3515,-4.3644,-4.4452,-4.5259,-4.6214,-4.7829,-4.8526,0.0,0.0,0.0,-5.0198,-5.0986,0.0,0.0,0.0,0.0,0.0,0.0,0.0,0.0,0.0,0.0,-5.4399,-5.4399,-5.3739,0.0,0.0,0.0,0.0,0.0,0.0,0.0,0.0,0.0,0.0,-5.484,-5.4289,-5.3995,-5.3995,-5.528,-5.6124,-5.6381,-5.7152,-5.7703,-5.7997,-5.7997,-5.84,-5.9184,-6.0015,-6.1263,-6.2817,-6.3686,-6.4677,-6.5742,-6.6256,-6.71,-6.8201,-6.9559,-7.0587,-7.1505,-7.3377,-7.3204,-7.2075,-7.3706,-7.3212,-7.1776,-5.2852,-5.2562,0.0,0.0,0.0,0.0,0.0,0.0,0.0,0.0,-5.4901,0.0,-5.683,0.0,-5.499,0.0,-5.4284,-5.3283,-5.24,-5.2943,0.0,-5.1144,-5.0842,-5.001,0.0,0.0,0.0,0.0,-4.6201,-4.5893,-4.5594,-4.5594,-4.5893,-4.6432,-4.6778,-4.7355,-4.8163,-4.9048,-4.9586,0.0,0.0,-4.958,0.0,0.0,-4.6358,-4.4804,0.0,-4.3515,-4.3515,-4.3515,-4.3515,-4.3571,-4.4121,-4.4819,-4.5736,-4.7058,-4.7462,-4.7829,-4.9481,-4.9334,0.0,-5.0105,-5.0362,0.0,-5.1756,0.0,0.0,0.0,0.0,0.0,0.0,0.0,0.0,-5.4436,-5.3739,0.0,0.0,-5.3203,0.0,0.0,0.0,0.0,0.0,0.0,-5.495,-5.4436,-5.4142,-5.3959,0.0,0.0,-5.5794,-5.6345,-5.6859,-5.7409,-5.7997,-5.7997,-5.84,-5.9184,-6.0015,-6.108,-6.2401,-6.3246,-6.4237,-6.5338,-6.5852,-6.6696,-6.7797,-6.9449,-7.0403,-7.1064,-7.2973,-7.2951,-7.204,-7.3388,-7.2759,-7.1312,-5.3587,-5.3261,0.0,0.0,-5.2644,0.0,0.0,0.0,-5.3835,0.0,-5.4622,-5.5126,-5.6753,-5.5483,-5.4834,-5.5605,-5.4953,-5.4129,-5.3321,-5.4065,0.0,0.0,-5.0818,-4.9663,-4.7163,0.0,0.0,0.0,0.0,-4.6394,-4.5594,-4.5594,-4.5594,-4.5633,-4.6509,0.0,-4.8086,-4.9009,-4.9894,-5.0712,-5.0635,-4.9458,-4.7766,-4.8506,-4.7363,-4.5199,-4.4029,-4.3549,-4.3532,-4.3515,-4.3515,-4.3515,-4.3515,-4.4048,-4.4856,-4.5626,-4.5883,-4.625,-4.7829,-4.7626,-4.7443,-4.9114,0.0,0.0,0.0,0.0,-5.2637,0.0,0.0,0.0,0.0,0.0,0.0,0.0,0.0,0.0,0.0,0.0,0.0,0.0,0.0,0.0,0.0,-5.5317,-5.4363,-5.4326,-5.3628,-5.3203,0.0,0.0,-5.4032,-5.5611,-5.5684,-5.6455,-5.7997,-5.7997,-5.84,-5.9148,-5.9979,-6.075,-6.1557,-6.2365,-6.3686,-6.5264,-6.5301,-6.6182,-6.776,-6.9412,-7.011,-7.033,-7.2724,-7.2922,-7.1966,-7.2743,-7.2296,-7.1312,-5.4357,-5.4349,-5.4239,0.0,-5.2975,-5.3083,0.0,0.0,0.0,0.0,-5.494,-5.4895,-5.5934,-5.539,-5.5047,-5.5237,-5.4784,0.0,0.0,0.0,0.0,-5.2193,-5.2395,-5.1664,-4.9779,-4.8663,0.0,-4.7471,0.0,-4.5825,-4.5594,-4.5594,-4.5594,-4.5633,0.0,0.0,-4.7308,-4.8779,-4.9894,-5.0635,-4.9971,-4.9404,0.0,0.0,-4.6561,-4.5925,-4.5141,-4.4416,-4.3833,-4.358,-4.3515,-4.3515,-4.3515,-4.4048,-4.4745,-4.4966,-4.5443,-4.6104,-4.7113,-4.6838,-4.6617,-4.8233,-4.8196,-4.8343,0.0,0.0,0.0,0.0,0.0,0.0,0.0,0.0,0.0,0.0,0.0,0.0,0.0,0.0,0.0,-5.5207,0.0,0.0,0.0,-5.4656,-5.4142,-5.3555,-5.3314,-5.3482,0.0,0.0,0.0,-5.6455,-5.7079,-5.7556,-5.7997,-5.7997,-5.8107,-5.8327,-5.9134,-5.9942,-6.075,-6.1557,-6.2805,-6.442,-6.5044,-6.5888,-6.699,-6.9192,-7.011,-7.0274,-7.1956,-7.2192,-7.1648,-7.1729,-7.1562,-7.1312,-5.5126,0.0,0.0,-5.4226,0.0,0.0,-5.4933,-5.4085,0.0,-5.5109,-5.4833,0.0,-5.5126,-5.5121,-5.5107,-5.5107,-5.4876,0.0,-5.476,0.0,0.0,-5.2939,-5.2724,-5.1856,-5.0164,-4.8817,0.0,-4.7586,0.0,0.0,-4.5594,-4.5594,-4.5594,-4.5633,0.0,-4.674,0.0,-4.924,-5.025,-5.0673,-5.0173,0.0,0.0,-4.7969,-4.696,-4.598,-4.5811,-4.5091,-4.4219,-4.405,-4.3974,-4.3943,-4.3775,-4.4042,-4.4435,-4.4651,-4.4782,-4.5112,-4.625,-4.625,-4.6214,-4.7462,-4.77,-4.8177,-5.0325,-5.0802,-5.161,0.0,0.0,0.0,0.0,0.0,0.0,0.0,0.0,0.0,0.0,0.0,0.0,0.0,-5.5207,0.0,0.0,-5.4069,-5.3702,-5.3203,-5.3203,0.0,0.0,0.0,0.0,-5.6235,-5.7409,-5.7997,-5.7997,-5.8364,-5.8364,-5.7997,-5.9171,-5.9979,-6.0456,-6.1594,-6.3025,-6.464,-6.5118,-6.6182,-6.7687,-6.9376,-7.0293,-7.0731,-7.169,-7.1893,-7.1587,-7.1372,-7.1312,-7.1312,-5.5703,0.0,0.0,0.0,0.0,0.0,0.0,-5.495,0.0,-5.4667,0.0,-5.4664,-5.4664,-5.4966,-5.5173,-5.5173,0.0,-5.5173,-5.5173,-5.552,-5.4934,-5.328,-5.2462,-5.1241,-4.9433,-4.8548,-4.7702,0.0,0.0,-4.6355,-4.5594,-4.5594,0.0,0.0,0.0,0.0,0.0,-5.001,-5.0712,0.0,-5.0596,-4.9548,-4.8163,-4.8817,-4.7625,-4.5645,-4.6066,-4.5525,-4.4663,-4.4624,-4.4612,-4.4546,-4.4117,-4.3982,-4.4055,-4.4427,-4.4048,-4.3845,-4.5443,-4.581,-4.5993,-4.7003,-4.7773,-4.8746,-5.0435,-5.0875,-5.161,-5.3922,-5.5023,-5.5633,0.0,0.0,0.0,0.0,0.0,0.0,0.0,0.0,0.0,0.0,0.0,0.0,0.0,0.0,-5.3314,-5.3203,-5.3203,0.0,0.0,0.0,0.0,-5.5596,-5.7042,0.0,-5.8327,0.0,-5.8804,-5.8327,-5.9538,-6.0199,-6.0456,-6.1851,-6.3539,-6.5301,-6.5301,-6.6659,-6.8972,-6.9779,-7.0677,-7.1626,-7.1941,-7.1928,-7.1726,-7.1406,-7.1312,-7.1312,-5.5703,0.0,0.0,0.0,0.0,-5.5893,-5.5738,-5.5699,-5.5629,-5.5514,-5.5472,-5.5472,-5.5472,-5.5544,-5.5588,-5.5588,-5.5588,0.0,0.0,0.0,0.0,-5.328,-5.3049,-5.1856,-4.9433,-4.8548,-4.7702,0.0,0.0,-4.5748,-4.5594,-4.5594,0.0,0.0,0.0,0.0,-4.924,-5.0289,0.0,-5.0635,-4.9933,-4.9009,-4.8048,-4.7548,-4.6624,-4.5624,-4.5695,-4.5398,-4.4966,-4.4701,-4.4612,-4.4546,-4.4117,-4.3982,-4.3943,-4.3781,-4.3608,-4.3845,-4.5443,-4.5406,-4.5425,-4.7553,-4.8196,-4.8746,-5.0435,-5.1316,-5.227,-5.4032,-5.5023,-5.5794,-5.6455,0.0,0.0,0.0,0.0,0.0,0.0,0.0,0.0,0.0,0.0,0.0,0.0,0.0,0.0,0.0,0.0,0.0,0.0,0.0,0.0,0.0,-5.6528,0.0,0.0,0.0,-5.8804,-5.9979,-5.8914,-5.9134,-6.0419,-6.0713,-6.2475,-6.5301,-6.5301,-6.6659,-6.8972,-6.9779,-7.1245,-7.3034,-7.2941,-7.2739,-7.2458,-7.161,-7.1312,-7.1312,0.0,0.0,0.0,0.0,0.0,0.0,0.0,-5.6606,0.0,-5.5206,-5.5088,-5.5088,-5.5088,-5.5434,-5.5703,-5.5703,-5.5703,-5.5703,-5.5703,-5.5318,-5.4511,-5.3241,-5.2779,0.0,-4.9433,-4.8548,-4.7702,-4.6885,0.0,-4.5594,-4.5594,-4.5594,0.0,0.0,0.0,-4.7586,0.0,0.0,0.0,-5.0673,-5.025,-4.9279,-4.8048,-4.7663,-4.6701,-4.5594,-4.5594,-4.5514,-4.5313,-4.5191,-4.5099,-4.5055,-4.4688,-4.4455,-4.4233,-4.3865,-4.3647,-4.3772,-4.4966,-4.5296,-4.581,-4.7792,-4.8636,-4.9407,-5.1059,-5.172,-5.2344,-5.3518,-5.473,-5.5978,-5.7189,-5.7409,0.0,0.0,0.0,0.0,0.0,0.0,0.0,0.0,0.0,0.0,0.0,0.0,0.0,0.0,0.0,0.0,0.0,0.0,0.0,0.0,0.0,0.0,0.0,0.0,0.0,-6.0419,-6.0052,-6.0272,-6.1043,-6.1447,-6.2989,-6.5301,-6.5301,-6.6916,-6.9633,-7.1284,-7.2535,-7.338,-7.3189,-7.2988,-7.2707,-7.1688,-7.1312,-7.1312,0.0,-5.73,0.0,0.0,-5.7118,0.0,-5.7114,-5.7021,-5.6399,-5.4969,-5.4783,-5.4741,-5.4741,-5.5318,-5.5703,-5.5703,-5.5703,-5.5626,-5.5472,-5.4857,-5.4049,-5.2972,-5.2269,-5.1038,-4.9163,-4.8471,-4.7625,0.0,0.0,0.0,-4.5594,-4.5594,-4.5594,0.0,0.0,0.0,0.0,0.0,-5.0048,-5.0712,-5.0712,-4.9779,-4.8355,-4.8163,-4.7163,-4.5864,-4.5671,-4.5594,-4.5594,-4.5594,-4.5594,-4.555,-4.5211,-4.4919,-4.465,-4.4233,-4.3943,-4.3915,-4.4829,-4.5512,-4.636,-4.7921,-4.9077,-5.0198,-5.1463,-5.2013,-5.2417,-5.3057,-5.4326,-5.5757,-5.7226,-5.7629,0.0,0.0,0.0,0.0,0.0,0.0,0.0,0.0,0.0,0.0,0.0,0.0,0.0,0.0,0.0,-5.3203,-5.3203,-5.3812,0.0,0.0,0.0,-5.8217,-5.9722,0.0,-6.0162,0.0,-6.0933,-6.119,-6.1374,-6.2365,-6.3697,-6.5338,-6.5668,-6.754,-7.055,-7.2973,-7.3867,-7.3682,-7.3475,-7.3245,-7.2962,-7.1776,-7.1312,-7.1312,0.0,0.0,0.0,0.0,0.0,0.0,-5.6308,-5.6167,-5.5946,-5.5775,-5.5663,-5.5588,-5.5588,-5.5665,-5.5703,-5.5703,-5.5703,-5.5395,-5.4664,-5.4549,-5.378,-5.2077,-5.1923,-5.0731,-4.8279,-4.8125,-4.7317,0.0,0.0,0.0,0.0,-4.5594,0.0,0.0,0.0,0.0,0.0,-4.9856,-5.0635,-5.0712,-5.0712,-5.0125,-4.9202,-4.8394,-4.7548,-4.6663,-4.5893,-4.5594,-4.5594,-4.5594,-4.5594,-4.555,-4.5211,-4.5094,-4.4977,-4.4625,-4.4533,-4.4763,-4.5913,-4.6322,-4.6669,-4.796,-4.9517,-5.0729,-5.0875,-5.205,-5.3115,-5.3167,-5.3922,-5.4766,-5.5647,-5.6418,-5.6932,0.0,0.0,0.0,0.0,0.0,0.0,0.0,0.0,0.0,0.0,-5.4436,0.0,0.0,-5.3203,-5.3203,-5.3203,-5.3298,-5.4032,-5.5559,0.0,-5.7593,-6.1337,-5.9281,-5.9318,-6.1484,-6.0089,-5.9832,-6.0566,-6.2108,-6.3697,-6.5375,-6.6843,-6.8898,-7.1394,-7.3817,-7.4785,-7.472,-7.4333,-7.4199,-7.3928,-7.2004,-7.1312,-7.1312,0.0,0.0,0.0,0.0,0.0,0.0,0.0,-5.6563,-5.6097,-5.6097,-5.5852,-5.5703,-5.5703,-5.5703,-5.5511,-5.5011,-5.5434,-5.5126,-5.3818,-5.3703,-5.3164,-5.1962,-5.1433,-5.0202,-4.8163,-4.8086,-4.7278,0.0,0.0,0.0,0.0,0.0,0.0,0.0,0.0,-4.7932,-4.8933,-4.9625,-5.0212,-5.0712,-5.0712,-5.0164,-4.9356,-4.9009,-4.8355,-4.7586,-4.724,-4.6778,-4.6432,-4.6932,-4.6778,-4.626,-4.563,-4.5597,-4.5715,-4.5095,-4.4763,-4.4858,-4.6088,-4.6408,-4.683,-4.8641,-4.9958,-5.0949,-5.1389,-5.238,-5.3203,-5.3203,-5.3849,-5.4656,-5.5427,-5.5868,-5.6088,0.0,0.0,0.0,0.0,0.0,0.0,0.0,0.0,0.0,0.0,0.0,0.0,0.0,0.0,0.0,-5.3203,-5.3203,0.0,-5.5559,0.0,-5.7079,-6.0126,-5.9208,-5.9685,-6.1594,-6.0933,-6.108,-6.1887,-6.2511,-6.3697,-6.5448,-6.8017,-6.9669,-7.0779,-7.3057,-7.4002,-7.395,-7.3557,-7.3412,-7.3212,-7.1786,-7.1312,-7.1312,-5.9025,0.0,-5.7748,0.0,-5.72,-5.6702,-5.7421,-5.6767,-5.6191,-5.6191,-5.5913,-5.5703,-5.5703,-5.5472,-5.5203,-5.4895,-5.4934,-5.4472,-5.328,-5.2972,-5.2433,-5.1587,-5.0741,0.0,-4.8125,-4.7855,-4.7048,-4.5594,-4.5594,0.0,0.0,0.0,0.0,0.0,-4.7432,-4.8279,-4.9433,-4.9663,-5.0125,-5.0712,-5.0712,-5.0327,-4.974,-4.951,-4.9056,-4.8502,-4.827,-4.7811,-4.7434,-4.7987,-4.7962,-4.7529,-4.6613,-4.6398,-4.6352,-4.5816,-4.5295,-4.5166,-4.6393,-4.6652,-4.7085,-4.9233,-5.0112,-5.0729,-5.1756,-5.2454,-5.2931,-5.313,-5.3665,-5.4216,-5.4803,-5.5097,-5.5244,-5.5244,0.0,0.0,0.0,0.0,0.0,0.0,-5.5097,-5.4326,-5.4069,-5.3555,0.0,0.0,0.0,0.0,0.0,0.0,0.0,0.0,0.0,0.0,0.0,-5.8964,-5.9648,-6.1263,-6.1263,-6.1667,-6.2475,-6.3209,-6.4567,-6.6512,-6.9009,-7.0108,-7.0223,-7.2477,-7.324,-7.2972,-7.2858,-7.2797,-7.2707,-7.1688,-7.1312,-7.1312,-5.9912,-5.9293,-5.8788,-5.9137,-5.7734,-5.6601,-5.6601,-5.6377,-5.6191,-5.6191,-5.5913,-5.5703,-5.5703,-5.4972,-5.4818,-5.5626,-5.4164,-5.3241,-5.3203,-5.2385,-5.1548,0.0,0.0,-4.9009,-4.8125,-4.7317,-4.6471,-4.5594,0.0,0.0,-4.5633,0.0,-4.6885,-4.6962,-4.8625,-4.9394,-4.9471,-5.0327,-5.0712,-5.0712,-5.0712,-5.0712,-5.0596,-4.974,-4.947,-4.9456,-4.8604,-4.8377,-4.8443,-4.8322,-4.8875,-4.9381,-4.839,-4.7538,-4.6885,-4.6885,-4.6269,-4.5869,-4.7144,-4.7226,-4.7498,-4.9579,-4.9843,-5.0051,-5.1667,-5.2013,-5.2234,-5.3041,-5.3203,-5.3203,-5.3203,-5.3885,-5.4399,-5.4399,0.0,0.0,0.0,0.0,0.0,0.0,-5.4399,-5.4106,-5.3277,0.0,0.0,0.0,0.0,0.0,0.0,0.0,0.0,-5.5596,-5.6381,0.0,-5.9184,-5.84,-5.8804,-6.0419,-6.0419,-6.086,-6.1704,-6.4163,-6.6586,-6.8898,-6.9743,-7.0048,-7.0085,-7.2434,-7.2863,-7.204,-7.2579,-7.2797,-7.2707,-7.1688,-7.1312,-7.1312,-5.815,-5.7548,-5.7087,-5.738,-5.6953,-5.6601,-5.6601,-5.6454,-5.6351,-5.6351,-5.6032,-5.562,-5.5088,-5.4699,-5.4357,0.0,-5.351,-5.2702,0.0,-5.1741,-5.1548,-5.075,-4.9856,-4.8971,-4.8125,-4.7308,-4.6471,-4.5594,0.0,0.0,0.0,-4.5893,-4.6624,-4.774,-4.8279,-4.9163,-5.0289,-5.0596,-5.0712,-5.0635,-5.0048,-5.0173,-5.0596,-4.974,-4.9856,-5.0463,-5.0153,-4.9774,-4.9455,-4.9912,-4.9843,-4.9621,-4.9824,-4.9279,-4.8509,-4.7894,-4.7509,-4.7453,-4.8197,-4.83,-4.8592,-5.0169,-5.0922,-5.1452,-5.2234,-5.2609,-5.2894,-5.313,-5.3203,-5.3203,-5.3203,-5.3408,-5.3592,-5.3592,-5.4252,0.0,0.0,0.0,0.0,0.0,-5.3922,-5.3702,0.0,-5.3518,0.0,0.0,0.0,0.0,0.0,0.0,0.0,0.0,-5.6895,0.0,-5.84,-5.9208,-5.9905,-6.0419,-6.097,-6.1961,-6.3356,-6.5264,-6.6549,-6.7357,-6.9265,-6.969,-6.9233,-7.1475,-7.1825,-7.1007,-7.1602,-7.1742,-7.1732,-7.1412,-7.1312,-7.1312,-5.734,-5.7009,-5.6741,-5.7028,-5.6836,-5.6601,-5.6601,-5.6506,-5.6389,-5.6389,-5.6163,-5.5804,-5.5306,-5.4886,0.0,-5.3762,-5.3087,-5.2395,-5.1702,-5.151,-5.1087,-5.024,-4.9394,-4.8509,-4.7663,0.0,0.0,-4.5594,-4.5594,-4.5594,-4.5594,-4.5932,-4.6663,-4.7702,-4.8317,-4.9202,-5.025,-5.0558,-5.0712,-5.0635,-5.0087,-5.001,-5.0212,-4.9971,-5.0146,-5.0532,-5.0875,-5.0739,-5.0465,-5.086,-5.0619,-5.0229,-5.0648,-5.0364,-4.9702,-4.8856,-4.8355,-4.8241,-4.8875,-4.8934,-4.925,-5.102,-5.1508,-5.1759,-5.2615,-5.3126,-5.3404,-5.3404,-5.3314,-5.3203,-5.3203,-5.3203,-5.3203,-5.3203,-5.3628,-5.3959,-5.3959,0.0,0.0,0.0,0.0,0.0,0.0,-5.4216,-5.4179,0.0,0.0,0.0,0.0,0.0,0.0,-5.6455,-5.7776,0.0,-5.8914,-5.9905,-6.0566,-6.086,-6.1998,-6.3392,-6.5044,-6.6035,-6.6659,-6.7063,-6.9192,-6.9368,-6.8392,-7.0878,-7.114,-7.0092,-7.0968,-7.1312,-7.1312,-7.1312,-7.1312,-7.1312,-5.7256,-5.7314,0.0,0.0,-5.7148,0.0,-5.6601,-5.6508,-5.6397,-5.6397,-5.6281,-5.6207,-5.6129,-5.5463,-5.4874,-5.4535,0.0,0.0,0.0,-5.1616,-5.0298,-4.9433,-4.8586,-4.774,-4.6923,-4.6846,-4.6394,-4.5594,-4.5594,-4.5594,-4.5633,-4.6432,-4.6885,-4.7038,-4.8625,-4.9394,-4.9548,-5.0366,-5.0712,-5.0712,-5.0635,-5.0164,-4.9586,-5.0327,-5.0295,-4.9965,-5.0821,-5.1222,-5.1366,-5.1221,-5.1147,-5.1069,-5.0945,-5.0825,-5.0558,-4.974,-4.8933,-4.8471,-4.9279,-4.9203,-4.9513,-5.2031,-5.1871,-5.1502,-5.2999,-5.3587,-5.3832,-5.3795,-5.3524,-5.323,-5.3225,-5.3203,-5.3203,-5.3203,-5.3203,-5.3203,-5.3203,0.0,0.0,0.0,0.0,0.0,0.0,-5.5133,-5.5317,0.0,0.0,0.0,0.0,0.0,-5.7299,-5.796,-5.8914,-5.9698,-6.0382,-6.0529,-6.097,-6.1777,-6.3466,-6.5044,-6.6512,-6.6549,-6.699,-6.7787,-6.9376,-6.9026,-6.755,-7.0626,-7.0823,-6.9248,-7.0737,-7.1312,-7.1312,-7.1312,-7.1312,-7.1312,0.0,0.0,-5.6553,-5.6711,-5.6673,-5.6601,-5.6601,-5.6562,-5.6559,-5.6559,-5.6448,-5.6092,-5.5435,-5.5676,-5.5586,-5.4886,-5.321,-5.2259,-5.2353,-5.1401,-5.0439,-4.9442,-4.8586,-4.774,-4.6923,-4.624,-4.5825,-4.5594,-4.5594,-4.5594,-4.5594,-4.5825,-4.6586,-4.7817,-4.824,-4.9163,-5.0404,-5.0596,-5.0712,-5.0635,-4.9971,-4.9971,-5.0327,-4.9894,-5.0083,-5.0668,-5.0975,-5.1144,-5.1221,-5.1208,-5.1147,-5.1069,-5.0945,-5.0825,-5.0673,-5.0442,-5.025,-5.0125,-5.0327,-5.0317,-5.0689,-5.2598,-5.3555,-5.4186,-5.4566,-5.4489,-5.4221,-5.3869,-5.372,-5.3565,-5.3251,-5.3203,-5.3203,-5.3203,-5.3203,-5.3203,-5.3203,-5.3203,0.0,0.0,-5.3922,-5.462,-5.5244,-5.5486,-5.5757,0.0,0.0,0.0,0.0,-5.7753,-5.8437,-5.7997,-5.9979,-6.0823,-6.0419,-6.163,-6.2658,-6.3503,-6.5154,-6.6109,-6.6512,-6.7136,-6.7504,-6.7787,-6.9376,-6.9026,-6.755,-7.0626,-7.0823,-6.9248,-7.0737,-7.1312,-7.1312,-7.1312,-7.1312,-7.1312,-5.6532,-5.69,-5.7086,-5.6485,-5.6768,-5.6945,-5.664,-5.6601,-5.6601,-5.6601,-5.6557,-5.6313,-5.5846,-5.6133,-5.6188,-5.5723,-5.4359,-5.3286,-5.2815,-5.1987,-5.0745,-4.8955,-4.8445,-4.7585,-4.6317,-4.624,-4.6201,-4.6201,-4.5787,-4.5594,-4.5594,-4.5594,-4.6278,-4.7586,-4.7932,-4.8856,-5.0125,-5.0519,-5.0712,-5.0673,-5.0164,-5.0048,-5.0087,-5.001,-5.0126,-5.0361,-5.0843,-5.1089,-5.1232,-5.1662,-5.1736,-5.1706,-5.2012,-5.1787,-5.1399,-5.1742,-5.1279,-5.0712,-5.0712,-5.0971,-5.1664,-5.3356,-5.4583,-5.5387,-5.5387,-5.508,-5.4701,-5.443,-5.4101,-5.3739,-5.3487,-5.3318,-5.3203,-5.3203,-5.3203,-5.3203,-5.3203,-5.3203,0.0,-5.3702,-5.4473,-5.5244,-5.6051,-5.6492,-5.6712,-5.6785,-5.7152,0.0,-5.6822,-5.8694,-5.9575,-5.9098,-6.0713,-6.1557,-6.152,-6.2768,-6.3833,-6.464,-6.5925,-6.6696,-6.7063,-6.7504,-6.7687,-6.7787,-6.9376,-6.9213,-6.8046,-7.0767,-7.0958,-6.9722,-7.0872,-7.1312,-7.1312,-7.1312,-7.1312,-7.1312,-5.7511,-5.8048,-5.8163,-5.6833,-5.7294,-5.7629,-5.6913,-5.6914,-5.6992,-5.6992,-5.6875,-5.6836,-5.6992,-5.6758,-5.664,-5.6797,-5.5806,-5.4732,-5.3696,-5.2801,-5.1113,-4.8464,-4.8341,-4.7499,-4.5695,-4.6381,-4.6741,-4.6707,-4.61,-4.5813,-4.5787,-4.5941,-4.6432,-4.7317,-4.8009,-4.8779,-4.9625,-5.0404,-5.0712,-5.0712,-5.0712,-5.025,-4.9663,-5.0442,-5.0302,-4.9884,-5.0765,-5.116,-5.1424,-5.2389,-5.2604,-5.265,-5.3385,-5.3001,-5.2423,-5.306,-5.2204,-5.1097,-5.1097,-5.1664,-5.2654,-5.4126,-5.5088,-5.5703,-5.5703,-5.5435,-5.5173,-5.5121,-5.451,-5.3959,-5.3814,-5.3543,-5.3272,-5.3225,-5.3203,-5.3203,-5.3203,0.0,-5.3518,-5.4289,-5.5097,-5.5904,-5.6712,-5.7519,-5.7703,-5.7042,-5.7593,-5.774,-5.7189,-5.9245,-6.0456,-6.0566,-6.1374,-6.2108,-6.278,-6.3796,-6.4604,-6.5301,-6.6256,-6.7026,-6.7687,-6.7687,-6.776,-6.7944,-6.9449,-6.96,-6.8963,-7.1052,-7.132,-7.0493,-7.1052,-7.1312,-7.1312,-7.1312,-7.1312,-7.1312,-5.8318,-5.8676,-5.8549,-5.7677,-5.8305,-5.8671,-5.7812,-5.832,-5.8789,-5.8789,-5.8164,-5.7969,-5.8711,-5.7461,-5.6914,-5.7617,-5.6873,-5.561,-5.3886,-5.2947,-5.1271,-4.8584,-4.8463,-4.7636,-4.5901,-4.5978,-4.603,-4.5969,-4.6503,-4.6762,-4.6701,-4.7394,-4.8163,-4.9009,-4.9125,-4.9663,-5.0519,-5.0635,-5.0712,-5.0712,-5.0712,-5.0635,-5.0519,-5.0635,-5.0616,-5.0642,-5.1563,-5.2014,-5.2285,-5.3241,-5.3574,-5.3571,-5.3727,-5.3517,-5.322,-5.3344,-5.3115,-5.2818,-5.2818,-5.3433,-5.4164,-5.4434,-5.5088,-5.5703,-5.5703,-5.5632,-5.5531,-5.5173,-5.4988,-5.4663,-5.3941,-5.3758,-5.3604,-5.3251,-5.3203,-5.3203,-5.3203,0.0,-5.3518,-5.4289,-5.5097,-5.5904,-5.6712,-5.7519,-5.796,-5.7813,-5.7923,-5.8253,-5.8781,-5.9832,-6.0713,-6.1374,-6.2181,-6.267,-6.278,-6.4347,-6.5191,-6.5338,-6.6806,-6.7577,-6.7687,-6.7687,-6.8054,-6.8788,-6.9706,-7.0324,-7.0764,-7.1553,-7.175,-7.1463,-7.1372,-7.1312,-7.1312,-7.1312,-7.1312,-7.1312,-5.9382,-5.983,-5.9806,-5.8571,-5.9109,-5.9482,-5.8711,-5.8945,-5.9219,-5.9219,-5.8867,-5.875,-5.914,-5.8476,-5.7969,-5.789,-5.7539,-5.6327,-5.4054,-5.3545,-5.2124,-4.9403,-4.8854,-4.7972,-4.6627,-4.6589,-4.6834,-4.7245,-4.7534,-4.7671,-4.7658,-4.7957,-4.8586,-4.9394,-4.9394,-4.9894,-5.0712,-5.0712,-5.0712,-5.0712,-5.0712,-5.0712,-5.075,-5.1164,-5.1356,-5.1443,-5.2366,-5.2794,-5.3067,-5.4061,-5.4447,-5.4565,-5.5067,-5.4745,-5.4291,-5.4645,-5.4021,-5.3318,-5.378,-5.4203,-5.4587,-5.5049,-5.5434,-5.5703,-5.5703,-5.5703,-5.5671,-5.5446,-5.5237,-5.5127,-5.5192,-5.4656,-5.433,-5.4773,-5.4118,0.0,0.0,-5.3849,-5.4142,-5.495,-5.5757,-5.6565,-5.7373,-5.7776,-5.7997,-5.7997,-5.7997,-5.8143,-5.8547,-5.9722,-6.0566,-6.0933,-6.2144,-6.278,-6.278,-6.4457,-6.5301,-6.5338,-6.6916,-6.7907,-6.8311,-6.7907,-6.8385,-6.9596,-7.0403,-7.1112,-7.1788,-7.2898,-7.2971,-7.245,-7.2319,-7.229,-7.2208,-7.1652,-7.1756,-7.2099,-6.0491,-6.0919,-6.0945,-5.949,-5.9966,-6.0292,-5.9609,-5.9648,-5.9765,-5.9765,-5.9609,-5.957,-5.9765,-5.9414,-5.8945,-5.8242,-5.8008,-5.6875,-5.4453,-5.4101,-5.281,-5.0173,-4.9194,-4.8396,-4.7596,-4.7596,-4.7898,-4.8542,-4.8638,-4.8613,-4.8604,-4.8664,-4.9048,-4.9702,-4.9702,-5.0048,-5.0712,-5.0712,-5.0712,-5.0712,-5.0712,-5.0827,-5.1048,-5.1654,-5.2038,-5.2308,-5.3203,-5.3605,-5.3902,-5.488,-5.5326,-5.5558,-5.6202,-5.5864,-5.5275,-5.5746,-5.5025,-5.4203,-5.4664,-5.478,-5.4934,-5.5549,-5.5857,-5.6011,-5.6011,-5.6165,-5.628,-5.628,-5.606,-5.6014,-5.6597,-5.5873,-5.5481,-5.6331,0.0,0.0,0.0,-5.4742,-5.4987,-5.5757,-5.6418,-5.7116,-5.7923,-5.7997,-5.7997,-5.7997,-5.7997,-5.8143,-5.8547,-5.9722,-6.0566,-6.097,-6.2181,-6.2915,-6.3099,-6.4567,-6.5411,-6.5595,-6.7026,-6.8128,-6.8898,-6.8238,-6.8862,-7.0403,-7.1248,-7.1932,-7.2621,-7.3799,-7.3863,-7.3151,-7.2895,-7.282,-7.2745,-7.215,-7.2325,-7.2887,-6.1402,-6.1639,-6.1366,-6.0468,-6.1015,-6.1289,-6.043,-6.1015,-6.1523,-6.1523,-6.082,-6.0625,-6.1445,-6.0117,-5.918,-5.9101,-5.8359,-5.7148,-5.5312,-5.4453,-5.2851,-5.0312,-4.9336,-4.8867,-4.8788,-4.8788,-4.8742,-4.8703,-4.9344,-4.9643,-4.9533,-5.0207,-5.0558,-5.0596,-5.0596,-5.0635,-5.0712,-5.0712,-5.0712,-5.0712,-5.0712,-5.1164,-5.1808,-5.1885,-5.2385,-5.3241,-5.4087,-5.4559,-5.4902,-5.5802,-5.6299,-5.6483,-5.6409,-5.625,-5.6086,-5.5939,-5.63,-5.656,-5.5818,-5.5588,-5.5626,-5.5703,-5.6329,-5.6907,-5.6907,-5.7511,-5.8127,-5.8127,-5.8066,-5.7973,-5.7592,-5.742,-5.7291,-5.6981,0.0,0.0,-5.618,-5.5792,-5.5794,-5.6638,-5.6748,-5.7116,-5.7923,-5.7997,-5.7997,-5.7997,-5.7997,-5.8657,-6.0126,-6.0346,-6.108,-6.256,-6.2743,-6.3209,-6.398,-6.4861,-6.5668,-6.6402,-6.7283,-6.8128,-6.8898,-6.8862,-6.9706,-7.1284,-7.2055,-7.287,-7.356,-7.3519,-7.3447,-7.3279,-7.2334,-7.1969,-7.2075,-7.2745,-7.3028,-7.3169,-6.1601,-6.1719,-6.1601,-6.125,-6.1484,-6.1601,-6.125,-6.1484,-6.1719,-6.1719,-6.1406,-6.1328,-6.164,-6.1133,-6.0547,-6.0,-5.918,-5.7969,-5.6211,-5.5273,-5.3437,-5.0312,-4.9883,-4.9726,-4.9726,-4.9726,-4.9921,-5.0385,-5.0572,-5.0633,-5.0594,-5.0841,-5.0896,-5.0811,-5.0811,-5.0773,-5.0712,-5.0712,-5.0712,-5.075,-5.1241,-5.1625,-5.2,-5.3087,-5.3703,-5.4147,-5.5045,-5.5528,-5.5779,-5.6164,-5.6452,-5.6679,-5.7033,-5.7065,-5.6996,-5.7282,-5.7597,-5.7742,-5.7396,-5.7319,-5.7319,-5.7319,-5.755,-5.7819,-5.7819,-5.805,-5.8319,-5.8319,-5.8319,-5.84,-5.8704,-5.8373,-5.8234,-5.8828,0.0,-5.676,-5.7021,-5.6641,-5.6455,-5.6748,-5.7262,-5.7666,-5.796,-5.7997,-5.7997,-5.7997,-5.7997,-5.8253,-5.8877,-5.9869,-6.1153,-6.2743,-6.278,-6.2989,-6.3282,-6.464,-6.5448,-6.5778,-6.7577,-6.8862,-6.9633,-6.9633,-7.0513,-7.2055,-7.2386,-7.2973,-7.3714,-7.4184,-7.403,-7.3525,-7.3175,-7.3305,-7.3711,-7.3428,-7.3902,-7.4833,-6.1719,-6.1719,-6.1719,-6.1719,-6.1719,-6.1719,-6.1719,-6.1719,-6.1719,-6.1719,-6.1719,-6.1719,-6.1719,-6.1719,-6.1367,-6.0469,-5.9883,-5.8867,-5.7109,-5.5937,-5.4023,-5.1094,-5.0703,-5.0703,-5.0976,-5.0976,-5.125,-5.1797,-5.1659,-5.1477,-5.1201,-5.1109,-5.1042,-5.0972,-5.1189,-5.1083,-5.0776,-5.101,-5.0933,-5.0789,-5.1587,-5.2038,-5.2462,-5.3933,-5.4664,-5.4975,-5.5647,-5.6012,-5.6212,-5.6365,-5.6663,-5.7069,-5.7502,-5.7663,-5.7882,-5.8497,-5.8665,-5.8742,-5.9011,-5.9088,-5.8973,-5.8434,-5.8511,-5.8665,-5.8665,-5.8896,-5.9088,-5.9088,-5.9088,-5.9242,-5.9819,-5.9473,-5.9365,-6.0212,-5.898,-5.793,-5.8072,-5.7691,-5.7317,-5.7212,-5.7666,-5.7997,-5.7997,-5.7997,-5.7997,-5.7997,-5.8217,-5.8584,-5.9098,-6.0162,-6.141,-6.2768,-6.278,-6.278,-6.278,-6.4457,-6.5448,-6.5705,-6.7871,-6.9339,-7.011,-7.0367,-7.1211,-7.2496,-7.2789,-7.3046,-7.3377,-7.4184,-7.4184,-7.3707,-7.3707,-7.4184,-7.4829,-7.442,-7.4958,-7.5901,-6.1719,-6.1719,-6.1719,-6.1719,-6.1719,-6.1719,-6.1719,-6.1719,-6.1719,-6.1719,-6.1719,-6.1719,-6.1719,-6.1719,-6.1367,-6.0508,-6.039,-5.9687,-5.8008,-5.6289,-5.4531,-5.2812,-5.1875,-5.1836,-5.2695,-5.2695,-5.2695,-5.2695,-5.2596,-5.2064,-5.1201,-5.1152,-5.1133,-5.1167,-5.1826,-5.1663,-5.0959,-5.1615,-5.1433,-5.0789,-5.1587,-5.2423,-5.3318,-5.4164,-5.5011,-5.5707,-5.584,-5.605,-5.6217,-5.6365,-5.7093,-5.789,-5.7777,-5.8076,-5.8639,-5.9331,-5.9511,-5.9704,-6.055,-6.0781,-6.0396,-5.8742,-5.8934,-5.9511,-5.9511,-6.0165,-6.0781,-6.0781,-6.0819,-6.0819,-6.0781,-6.0819,-6.0819,-6.0781,-6.043,-5.9931,-5.9458,-5.9009,-5.8508,-5.8051,-5.7997,-5.7997,-5.7997,-5.7997,-5.7997,-5.7997,-5.8767,-5.9905,-6.152,-6.1594,-6.1961,-6.2743,-6.278,-6.278,-6.2842,-6.4494,-6.5705,-6.6512,-6.8128,-6.9339,-7.011,-7.0954,-7.1762,-7.2532,-7.334,-7.323,-7.2569,-7.334,-7.367,-7.3707,-7.3707,-7.4184,-7.5028,-7.5799,-7.6093,-7.624,-6.1719,-6.1719,-6.1719,-6.1719,-6.1719,-6.1719,-6.1719,-6.1719,-6.1719,-6.1719,-6.1719,-6.1719,-6.1719,-6.1719,-6.1601,-6.1328,-6.0742,-5.9687,-5.8008,-5.6289,-5.5078,-5.4531,-5.3672,-5.3359,-5.3594,-5.3594,-5.3594,-5.3594,-5.3553,-5.3434,-5.316,-5.3153,-5.309,-5.3007,-5.3214,-5.3117,-5.2747,-5.2252,-5.1896,-5.1771,-5.2512,-5.2972,-5.3356,-5.478,-5.5557,-5.5849,-5.6057,-5.6612,-5.7268,-5.7407,-5.8045,-5.8865,-5.9229,-5.973,-6.0294,-6.0371,-6.0396,-6.0473,-6.0742,-6.0781,-6.0666,-6.0165,-6.0242,-6.0396,-6.0396,-6.0589,-6.0781,-6.0781,-6.1293,-6.1524,-6.0896,-6.1281,-6.1524,-6.0896,-6.043,-6.0074,-5.9916,-5.9194,-5.8652,-5.8524,-5.8172,-5.7997,-5.7997,-5.7997,-5.7997,-5.7997,-5.8767,-5.9905,-6.152,-6.1594,-6.1961,-6.2743,-6.3392,-6.3898,-6.4276,-6.4942,-6.5411,-6.5705,-6.8421,-6.9853,-7.0146,-7.1505,-7.2275,-7.2496,-7.2753,-7.2716,-7.2532,-7.2753,-7.3193,-7.3707,-7.3707,-7.4551,-7.5763,-7.6019,-7.646,-7.698,-6.1719,-6.1719,-6.1719,-6.1719,-6.1719,-6.1719,-6.1719,-6.1719,-6.1719,-6.1719,-6.1719,-6.1719,-6.1719,-6.1719,-6.1719,-6.1719,-6.0898,-5.9961,-5.8945,-5.7617,-5.6836,-5.6836,-5.6015,-5.5234,-5.4531,-5.4492,-5.4492,-5.4492,-5.4492,-5.4336,-5.3984,-5.3984,-5.3943,-5.3889,-5.4181,-5.4069,-5.3623,-5.298,-5.2679,-5.2639,-5.3103,-5.3474,-5.3937,-5.5287,-5.5896,-5.6025,-5.6222,-5.6893,-5.7729,-5.7849,-5.8672,-5.9762,-6.0356,-6.0786,-6.1073,-6.0867,-6.0781,-6.0781,-6.0781,-6.0781,-6.0858,-6.1243,-6.105,-6.0896,-6.1243,-6.132,-6.1396,-6.1704,-6.2204,-6.2397,-6.1897,-6.1973,-6.1947,-6.1408,-6.0776,-6.0439,-6.059,-6.0139,-5.9833,-5.9946,-5.9445,-5.9006,-5.8806,-5.8489,-5.8467,-5.8938,-5.9391,-6.0382,-6.1998,-6.2071,-6.2561,-6.3601,-6.4437,-6.5153,-6.5699,-6.6187,-6.6306,-6.6112,-6.8735,-6.9979,-7.0146,-7.1431,-7.2202,-7.2496,-7.2496,-7.2496,-7.2496,-7.2496,-7.3156,-7.4184,-7.4184,-7.5175,-7.657,-7.657,-7.687,-7.7273,-6.1719,-6.1719,-6.1719,-6.1719,-6.1719,-6.1719,-6.1719,-6.1719,-6.1719,-6.1719,-6.1719,-6.1719,-6.1719,-6.1719,-6.1719,-6.1719,-6.0898,-6.039,-6.039,-5.9648,-5.9219,-5.9219,-5.8437,-5.7265,-5.5664,-5.5586,-5.5586,-5.5664,-5.5664,-5.5234,-5.4453,-5.4453,-5.4453,-5.4492,-5.5093,-5.4918,-5.4138,-5.3853,-5.3652,-5.355,-5.356,-5.4018,-5.48,-5.5606,-5.611,-5.6344,-5.6482,-5.7136,-5.7972,-5.8162,-5.9258,-6.0622,-6.1153,-6.1295,-6.122,-6.0913,-6.0804,-6.0819,-6.0896,-6.0935,-6.1127,-6.1985,-6.1612,-6.1239,-6.2024,-6.2216,-6.2397,-6.3166,-6.3346,-6.3397,-6.3308,-6.2743,-6.2293,-6.2216,-6.155,-6.1146,-6.1516,-6.152,-6.1637,-6.1926,-6.1271,-6.0659,-6.02,-5.9407,-5.9377,-6.043,-6.0614,-6.136,-6.2916,-6.3101,-6.3746,-6.5045,-6.5888,-6.6545,-6.7051,-6.7883,-6.796,-6.7374,-6.909,-6.9967,-7.0155,-7.1149,-7.1829,-7.2361,-7.2508,-7.2516,-7.2422,-7.2459,-7.3413,-7.4808,-7.4882,-7.5873,-7.72,-7.7273,-7.7273,-7.7273,-6.1719,-6.1719,-6.1719,-6.1719,-6.1719,-6.1719,-6.1719,-6.1719,-6.1719,-6.1719,-6.1719,-6.1719,-6.1719,-6.1719,-6.1719,-6.1719,-6.0898,-6.039,-6.039,-5.9648,-5.9219,-5.9219,-5.9023,-5.875,-5.8359,-5.7695,-5.7656,-5.8359,-5.8359,-5.8242,-5.8086,-5.8086,-5.8086,-5.8047,-5.7538,-5.7185,-5.6911,-5.5428,-5.4765,-5.4702,-5.4606,-5.4675,-5.4947,-5.5796,-5.6661,-5.7385,-5.7401,-5.8453,-5.992,-6.0625,-6.1133,-6.1405,-6.1468,-6.1378,-6.1246,-6.1006,-6.0892,-6.0935,-6.1639,-6.1831,-6.2012,-6.2858,-6.3004,-6.3003,-6.3033,-6.3051,-6.3089,-6.3281,-6.3858,-6.4128,-6.3435,-6.3705,-6.382,-6.3166,-6.2897,-6.2796,-6.2874,-6.2557,-6.2376,-6.2436,-6.1953,-6.1578,-6.1487,-6.0973,-6.0825,-6.1312,-6.2373,-6.3424,-6.4405,-6.5464,-6.6131,-6.6478,-6.7269,-6.7921,-6.8468,-6.9251,-6.9076,-6.7964,-7.0239,-7.1019,-7.0488,-7.265,-7.2766,-7.1315,-7.2641,-7.261,-7.1615,-7.2239,-7.3083,-7.4001,-7.4661,-7.5506,-7.646,-7.7053,-7.7273,-7.7273,-6.1719,-6.1719,-6.1719,-6.1719,-6.1719,-6.1719,-6.1719,-6.1719,-6.1719,-6.1719,-6.1719,-6.1719,-6.1719,-6.1719,-6.1719,-6.1719,-6.1289,-6.1015,-6.1015,-6.0625,-6.039,-6.039,-6.0,-5.9961,-6.039,-5.9531,-5.914,-5.9219,-5.9219,-5.9219,-5.9219,-5.9219,-5.9219,-5.918,-5.8711,-5.8281,-5.7812,-5.64,-5.5798,-5.5689,-5.5174,-5.5233,-5.5662,-5.6125,-5.6926,-5.7797,-5.7797,-5.8901,-6.0547,-6.1406,-6.1992,-6.2304,-6.2152,-6.2372,-6.2616,-6.2387,-6.2291,-6.2314,-6.2778,-6.2895,-6.3127,-6.3931,-6.4261,-6.4247,-6.4064,-6.4425,-6.4871,-6.5192,-6.5942,-6.6399,-6.5846,-6.5436,-6.5205,-6.5128,-6.4436,-6.4089,-6.4474,-6.432,-6.4172,-6.4172,-6.3579,-6.2924,-6.2297,-6.2146,-6.234,-6.287,-6.3967,-6.4994,-6.582,-6.6874,-6.7581,-6.786,-6.8619,-6.9289,-6.9842,-7.0264,-7.0117,-6.943,-7.0495,-7.0837,-7.0537,-7.1895,-7.2094,-7.1516,-7.2398,-7.2421,-7.1908,-7.2349,-7.2973,-7.378,-7.4588,-7.5395,-7.6203,-7.698,-7.7273,-7.7273,-6.1719,-6.1719,-6.1719,-6.1719,-6.1719,-6.1719,-6.1719,-6.1719,-6.1719,-6.1719,-6.1719,-6.1719,-6.1719,-6.1719,-6.1719,-6.1719,-6.1719,-6.1719,-6.1719,-6.1719,-6.1719,-6.1719,-6.1015,-6.0976,-6.168,-6.0976,-6.0312,-5.9648,-5.9648,-5.9648,-5.9648,-5.9648,-5.9531,-5.9414,-5.9258,-5.8711,-5.7851,-5.6953,-5.6557,-5.6367,-5.5665,-5.5899,-5.6641,-5.6641,-5.7331,-5.832,-5.832,-5.9336,-6.0742,-6.1445,-6.2265,-6.2968,-6.2865,-6.343,-6.407,-6.3906,-6.3815,-6.3837,-6.3986,-6.4025,-6.4259,-6.531,-6.5561,-6.5582,-6.5545,-6.6118,-6.6828,-6.7497,-6.8237,-6.8665,-6.8473,-6.7332,-6.6588,-6.7218,-6.6167,-6.5436,-6.6013,-6.6244,-6.6282,-6.6128,-6.5474,-6.4576,-6.3367,-6.3495,-6.4008,-6.4784,-6.5653,-6.6503,-6.7203,-6.8206,-6.8937,-6.9234,-7.0037,-7.0616,-7.0898,-7.0898,-7.0975,-7.1129,-7.0654,-7.058,-7.0819,-7.1084,-7.1572,-7.2192,-7.2222,-7.2318,-7.2446,-7.248,-7.2899,-7.3597,-7.4551,-7.5212,-7.5799,-7.6754,-7.7163,-7.7273,-6.1719,-6.1719,-6.1719,-6.1719,-6.1719,-6.1719,-6.1719,-6.1719,-6.1719,-6.1719,-6.1719,-6.1719,-6.1719,-6.1719,-6.1719,-6.1719,-6.1719,-6.1719,-6.1719,-6.1719,-6.1719,-6.1719,-6.1601,-6.1562,-6.1719,-6.1562,-6.1484,-6.1367,-6.1367,-6.1367,-6.1367,-6.1367,-6.0976,-6.0195,-5.9492,-5.8711,-5.7851,-5.6953,-5.6601,-5.6562,-5.6444,-5.6913,-5.7694,-5.7694,-5.8671,-6.0078,-6.0078,-6.0703,-6.1523,-6.164,-6.2265,-6.3008,-6.2968,-6.3499,-6.4082,-6.407,-6.3925,-6.3947,-6.4726,-6.4914,-6.531,-6.6944,-6.7428,-6.7692,-6.8422,-6.8037,-6.7755,-6.8514,-6.8779,-6.8839,-6.8675,-6.847,-6.8309,-6.8219,-6.8052,-6.7667,-6.7013,-6.759,-6.7782,-6.7013,-6.6821,-6.6535,-6.5947,-6.5928,-6.6125,-6.6541,-6.7724,-6.8519,-6.8634,-7.054,-7.1324,-7.0637,-7.1482,-7.1587,-7.0898,-7.0898,-7.1283,-7.2014,-7.1972,-7.1915,-7.201,-7.3469,-7.3554,-7.2547,-7.2793,-7.2655,-7.2246,-7.242,-7.2569,-7.2826,-7.4331,-7.4551,-7.4221,-7.5726,-7.6717,-7.7273,-6.1719,-6.1719,-6.1719,-6.1719,-6.1719,-6.1719,-6.1719,-6.1719,-6.1719,-6.1719,-6.1719,-6.1719,-6.1719,-6.1719,-6.1719,-6.1719,-6.1719,-6.1719,-6.1719,-6.1719,-6.1719,-6.1719,-6.1719,-6.1719,-6.1719,-6.1719,-6.1719,-6.1719,-6.1719,-6.1719,-6.1719,-6.1719,-6.1484,-6.1094,-6.0742,-6.0117,-5.9258,-5.8906,-5.8476,-5.8047,-5.8047,-5.8281,-5.8633,-5.8633,-5.9375,-6.0469,-6.0937,-6.1367,-6.1758,-6.2265,-6.3008,-6.3828,-6.4297,-6.4997,-6.5653,-6.5653,-6.56,-6.5621,-6.6009,-6.6478,-6.7024,-6.7805,-6.8371,-6.9129,-7.0456,-7.0403,-7.0174,-7.039,-7.0849,-7.1154,-7.1016,-7.0596,-7.021,-6.9999,-6.9556,-6.9073,-6.8616,-6.8898,-6.8821,-6.7936,-6.7821,-6.7716,-6.7563,-6.7496,-6.7782,-6.8416,-6.8993,-6.9543,-6.9979,-7.093,-7.1514,-7.1629,-7.2014,-7.2245,-7.236,-7.236,-7.2552,-7.2937,-7.3399,-7.336,-7.2937,-7.3707,-7.3752,-7.3319,-7.3068,-7.2958,-7.2845,-7.2586,-7.2496,-7.2606,-7.378,-7.4551,-7.5139,-7.5836,-7.6607,-7.7273]},{"header":{"parameterUnit":"m.s-1","parameterCategory":1,"la1":30.6,"la2":28.766,"lo1":-90.7593,"lo2":-88.6598,"dy":0.0162,"dx":0.0183,"nx":116,"ny":114,"refTime":"2023-11-19T06:00:00:Z","depth":0,"parameterNumber":3,"parameterNumberName":"V-component_of_WINDS"},"data":[0.0,0.0,0.0,0.0,0.0,0.0,0.0,0.0,0.0,0.0,0.0,0.0,0.0,0.0,0.0,0.0,0.0,0.0,0.0,0.0,0.0,0.0,0.0,0.0,0.0,0.0,0.0,0.0,0.0,0.0,0.0,0.0,0.0,0.0,0.0,0.0,0.0,0.0,0.0,0.0,0.0,0.0,0.0,0.0,0.0,0.0,0.0,0.0,0.0,0.0,0.0,0.0,0.0,0.0,0.0,0.0,0.0,0.0,0.0,0.0,0.0,0.0,0.0,0.0,0.0,0.0,0.0,0.0,0.0,0.0,0.0,0.0,0.0,0.0,0.0,0.0,0.0,0.0,0.0,0.0,0.0,0.0,0.0,0.0,0.0,0.0,0.0,0.0,0.0,0.0,0.0,0.0,0.0,0.0,0.0,0.0,0.0,0.0,0.0,0.0,0.0,0.0,0.0,0.0,0.0,0.0,0.0,0.0,0.0,0.0,0.0,0.0,0.0,0.0,0.0,0.0,0.0,0.0,0.0,0.0,0.0,0.0,0.0,0.0,0.0,0.0,0.0,0.0,0.0,0.0,0.0,0.0,0.0,0.0,0.0,0.0,0.0,0.0,0.0,0.0,0.0,0.0,0.0,0.0,0.0,0.0,0.0,0.0,0.0,0.0,0.0,0.0,0.0,0.0,0.0,0.0,0.0,0.0,0.0,0.0,0.0,0.0,0.0,0.0,0.0,0.0,0.0,0.0,0.0,0.0,0.0,0.0,0.0,0.0,0.0,0.0,0.0,0.0,0.0,0.0,0.0,0.0,0.0,0.0,0.0,0.0,0.0,0.0,0.0,0.0,0.0,0.0,0.0,0.0,0.0,0.0,0.0,0.0,0.0,0.0,0.0,0.0,0.0,0.0,0.0,0.0,0.0,0.0,0.0,0.0,0.0,0.0,0.0,0.0,0.0,0.0,0.0,0.0,0.0,0.0,0.0,0.0,0.0,0.0,0.0,0.0,0.0,0.0,0.0,0.0,0.0,0.0,0.0,0.0,0.0,0.0,0.0,0.0,0.0,0.0,0.0,0.0,0.0,0.0,0.0,0.0,0.0,0.0,0.0,0.0,0.0,0.0,0.0,0.0,0.0,0.0,0.0,0.0,0.0,0.0,0.0,0.0,0.0,0.0,0.0,0.0,0.0,0.0,0.0,0.0,0.0,0.0,0.0,0.0,0.0,0.0,0.0,0.0,0.0,0.0,0.0,0.0,0.0,0.0,0.0,0.0,0.0,0.0,0.0,0.0,0.0,0.0,0.0,0.0,0.0,0.0,0.0,0.0,0.0,0.0,0.0,0.0,0.0,0.0,0.0,0.0,0.0,0.0,0.0,0.0,0.0,0.0,0.0,0.0,0.0,0.0,0.0,0.0,0.0,0.0,0.0,0.0,0.0,0.0,0.0,0.0,0.0,0.0,0.0,0.0,0.0,0.0,0.0,0.0,0.0,0.0,0.0,0.0,0.0,0.0,0.0,0.0,0.0,0.0,0.0,0.0,0.0,0.0,0.0,0.0,0.0,0.0,0.0,0.0,0.0,0.0,0.0,0.0,0.0,0.0,0.0,0.0,0.0,0.0,0.0,0.0,0.0,0.0,0.0,0.0,0.0,0.0,0.0,0.0,0.0,0.0,0.0,0.0,0.0,0.0,0.0,0.0,0.0,0.0,0.0,0.0,0.0,0.0,0.0,0.0,0.0,0.0,0.0,0.0,0.0,0.0,0.0,0.0,0.0,0.0,0.0,0.0,0.0,0.0,0.0,0.0,0.0,0.0,0.0,0.0,0.0,0.0,0.0,0.0,0.0,0.0,0.0,0.0,0.0,0.0,0.0,0.0,0.0,0.0,0.0,0.0,0.0,0.0,0.0,0.0,0.0,0.0,0.0,0.0,0.0,0.0,0.0,0.0,0.0,0.0,0.0,0.0,0.0,0.0,0.0,0.0,0.0,0.0,0.0,0.0,0.0,0.0,0.0,0.0,0.0,0.0,0.0,0.0,0.0,0.0,0.0,0.0,0.0,0.0,0.0,0.0,0.0,0.0,0.0,0.0,0.0,0.0,0.0,0.0,0.0,0.0,0.0,0.0,0.0,0.0,0.0,0.0,0.0,0.0,0.0,0.0,0.0,0.0,0.0,0.0,0.0,0.0,0.0,0.0,0.0,0.0,0.0,0.0,0.0,0.0,0.0,0.0,0.0,0.0,0.0,0.0,0.0,0.0,0.0,0.0,0.0,0.0,0.0,0.0,0.0,0.0,0.0,0.0,0.0,0.0,0.0,0.0,0.0,0.0,0.0,0.0,0.0,0.0,0.0,0.0,0.0,0.0,0.0,0.0,0.0,0.0,0.0,0.0,0.0,0.0,0.0,0.0,0.0,0.0,0.0,0.0,0.0,0.0,0.0,0.0,0.0,0.0,0.0,0.0,0.0,0.0,0.0,0.0,0.0,0.0,0.0,0.0,0.0,0.0,0.0,0.0,0.0,0.0,0.0,0.0,0.0,0.0,0.0,0.0,0.0,0.0,0.0,0.0,0.0,0.0,0.0,0.0,0.0,0.0,0.0,0.0,0.0,0.0,0.0,0.0,0.0,0.0,0.0,0.0,0.0,0.0,0.0,0.0,0.0,0.0,0.0,0.0,0.0,0.0,0.0,0.0,0.0,0.0,0.0,0.0,0.0,0.0,0.0,0.0,0.0,0.0,0.0,0.0,0.0,0.0,0.0,0.0,0.0,0.0,0.0,0.0,0.0,0.0,0.0,0.0,0.0,0.0,0.0,0.0,0.0,0.0,0.0,0.0,0.0,0.0,0.0,0.0,0.0,0.0,0.0,0.0,0.0,0.0,0.0,0.0,0.0,0.0,0.0,0.0,0.0,0.0,0.0,0.0,0.0,0.0,0.0,0.0,0.0,0.0,0.0,0.0,0.0,0.0,0.0,0.0,0.0,0.0,0.0,0.0,0.0,0.0,0.0,0.0,0.0,0.0,0.0,0.0,0.0,0.0,0.0,0.0,0.0,0.0,0.0,0.0,0.0,0.0,0.0,0.0,0.0,0.0,0.0,0.0,0.0,0.0,0.0,0.0,0.0,0.0,0.0,0.0,0.0,0.0,0.0,0.0,0.0,0.0,0.0,0.0,0.0,0.0,0.0,0.0,0.0,0.0,0.0,0.0,0.0,0.0,0.0,0.0,0.0,0.0,0.0,0.0,0.0,0.0,0.0,0.0,0.0,0.0,0.0,0.0,0.0,0.0,0.0,0.0,0.0,0.0,0.0,0.0,0.0,0.0,0.0,0.0,0.0,0.0,0.0,0.0,0.0,0.0,0.0,0.0,0.0,0.0,0.0,0.0,0.0,0.0,0.0,0.0,0.0,0.0,0.0,0.0,0.0,0.0,0.0,0.0,0.0,0.0,0.0,0.0,0.0,0.0,0.0,0.0,0.0,0.0,0.0,0.0,0.0,0.0,0.0,0.0,0.0,0.0,0.0,0.0,0.0,0.0,0.0,0.0,0.0,0.0,0.0,0.0,0.0,0.0,0.0,0.0,0.0,0.0,0.0,0.0,0.0,0.0,0.0,0.0,0.0,0.0,0.0,0.0,0.0,0.0,0.0,0.0,0.0,0.0,0.0,0.0,0.0,0.0,0.0,0.0,0.0,0.0,0.0,0.0,0.0,0.0,0.0,0.0,0.0,0.0,0.0,0.0,0.0,0.0,0.0,0.0,0.0,0.0,0.0,0.0,0.0,0.0,0.0,0.0,0.0,0.0,0.0,0.0,0.0,0.0,0.0,0.0,0.0,0.0,0.0,0.0,0.0,0.0,0.0,0.0,0.0,0.0,0.0,0.0,0.0,0.0,0.0,0.0,0.0,0.0,0.0,0.0,0.0,0.0,0.0,0.0,0.0,0.0,0.0,0.0,0.0,0.0,0.0,0.0,0.0,0.0,0.0,0.0,0.0,0.0,0.0,0.0,0.0,0.0,0.0,0.0,0.0,0.0,0.0,0.0,0.0,0.0,0.0,0.0,0.0,0.0,0.0,0.0,0.0,0.0,0.0,0.0,0.0,0.0,0.0,0.0,0.0,0.0,0.0,0.0,0.0,0.0,0.0,0.0,0.0,0.0,0.0,0.0,0.0,0.0,0.0,0.0,0.0,0.0,0.0,0.0,0.0,0.0,0.0,0.0,0.0,0.0,0.0,0.0,0.0,0.0,0.0,0.0,0.0,0.0,0.0,0.0,0.0,0.0,0.0,0.0,0.0,0.0,0.0,0.0,0.0,0.0,0.0,0.0,0.0,0.0,0.0,0.0,0.0,0.0,0.0,0.0,0.0,0.0,0.0,0.0,0.0,0.0,0.0,0.0,0.0,0.0,0.0,0.0,0.0,0.0,0.0,0.0,0.0,0.0,0.0,0.0,0.0,0.0,0.0,0.0,0.0,0.0,0.0,0.0,0.0,0.0,0.0,0.0,0.0,0.0,0.0,0.0,0.0,0.0,0.0,0.0,0.0,0.0,0.0,0.0,0.0,0.0,0.0,0.0,0.0,0.0,0.0,0.0,0.0,0.0,0.0,0.0,0.0,0.0,0.0,0.0,0.0,0.0,0.0,0.0,0.0,0.0,0.0,0.0,0.0,0.0,0.0,0.0,0.0,0.0,0.0,0.0,0.0,0.0,0.0,0.0,0.0,0.0,0.0,0.0,0.0,0.0,0.0,0.0,0.0,0.0,0.0,0.0,0.0,0.0,0.0,0.0,0.0,0.0,0.0,0.0,0.0,0.0,0.0,0.0,0.0,0.0,0.0,0.0,0.0,0.0,0.0,0.0,0.0,0.0,0.0,0.0,0.0,0.0,0.0,0.0,0.0,0.0,0.0,0.0,0.0,0.0,0.0,0.0,0.0,0.0,0.0,0.0,0.0,0.0,0.0,0.0,0.0,0.0,0.0,0.0,0.0,0.0,0.0,0.0,0.0,0.0,0.0,0.0,0.0,0.0,0.0,0.0,0.0,0.0,0.0,0.0,0.0,0.0,0.0,0.0,0.0,0.0,0.0,0.0,0.0,0.0,0.0,0.0,0.0,0.0,0.0,0.0,0.0,0.0,0.0,0.0,0.0,0.0,0.0,0.0,0.0,0.0,0.0,0.0,0.0,0.0,0.0,0.0,0.0,0.0,0.0,0.0,0.0,0.0,0.0,0.0,0.0,0.0,0.0,0.0,0.0,0.0,0.0,0.0,0.0,0.0,0.0,0.0,0.0,0.0,0.0,0.0,0.0,0.0,0.0,0.0,0.0,0.0,0.0,0.0,0.0,0.0,0.0,0.0,0.0,0.0,0.0,0.0,0.0,0.0,0.0,0.0,0.0,0.0,0.0,0.0,0.0,0.0,0.0,0.0,0.0,0.0,0.0,0.0,0.0,0.0,0.0,0.0,0.0,0.0,0.0,0.0,0.0,0.0,0.0,0.0,0.0,0.0,0.0,0.0,0.0,0.0,0.0,0.0,0.0,0.0,0.0,0.0,0.0,0.0,0.0,0.0,0.0,0.0,0.0,0.0,0.0,0.0,0.0,0.0,0.0,0.0,0.0,0.0,0.0,0.0,0.0,0.0,0.0,0.0,0.0,0.0,0.0,0.0,0.0,0.0,0.0,0.0,0.0,0.0,0.0,0.0,0.0,0.0,0.0,0.0,0.0,0.0,0.0,0.0,0.0,0.0,0.0,0.0,0.0,0.0,0.0,0.0,0.0,0.0,0.0,0.0,0.0,0.0,0.0,0.0,0.0,0.0,0.0,0.0,0.0,0.0,0.0,0.0,0.0,0.0,0.0,0.0,0.0,0.0,0.0,0.0,0.0,0.0,0.0,0.0,0.0,0.0,0.0,0.0,0.0,0.0,0.0,0.0,0.0,0.0,0.0,0.0,0.0,0.0,0.0,0.0,0.0,0.0,0.0,0.0,0.0,0.0,0.0,0.0,0.0,0.0,0.0,0.0,0.0,0.0,0.0,0.0,0.0,0.0,0.0,0.0,0.0,0.0,0.0,0.0,0.0,0.0,0.0,0.0,0.0,0.0,0.0,0.0,0.0,0.0,0.0,0.0,4.4995,0.0,0.0,0.0,0.0,0.0,0.0,0.0,0.0,0.0,0.0,0.0,0.0,0.0,0.0,0.0,0.0,0.0,0.0,0.0,0.0,0.0,0.0,0.0,0.0,0.0,0.0,0.0,0.0,0.0,0.0,0.0,0.0,0.0,0.0,0.0,0.0,0.0,0.0,2.8301,2.967,3.0618,3.1265,3.0851,3.0664,3.0611,0.0,0.0,0.0,0.0,0.0,0.0,0.0,0.0,0.0,0.0,0.0,0.0,0.0,0.0,0.0,0.0,0.0,0.0,0.0,0.0,0.0,0.0,0.0,0.0,0.0,0.0,0.0,0.0,0.0,0.0,0.0,0.0,0.0,0.0,0.0,0.0,0.0,0.0,0.0,0.0,0.0,0.0,0.0,0.0,0.0,0.0,0.0,0.0,0.0,0.0,0.0,0.0,0.0,0.0,0.0,0.0,0.0,0.0,0.0,0.0,0.0,0.0,0.0,0.0,0.0,0.0,0.0,0.0,0.0,0.0,0.0,4.6125,0.0,0.0,0.0,0.0,0.0,0.0,0.0,0.0,0.0,0.0,0.0,0.0,0.0,0.0,0.0,0.0,0.0,0.0,0.0,0.0,0.0,0.0,0.0,2.5717,2.6354,2.7895,2.7945,2.8052,0.0,0.0,0.0,0.0,0.0,0.0,2.8301,2.8301,2.8301,2.8301,2.9859,3.1782,3.3912,3.4004,3.4096,3.4137,3.269,0.0,0.0,0.0,0.0,0.0,0.0,0.0,0.0,0.0,0.0,0.0,0.0,0.0,0.0,0.0,0.0,0.0,0.0,0.0,0.0,0.0,0.0,0.0,0.0,0.0,0.0,0.0,0.0,0.0,0.0,0.0,0.0,0.0,0.0,0.0,0.0,0.0,0.0,0.0,0.0,0.0,0.0,0.0,0.0,0.0,0.0,0.0,0.0,0.0,0.0,0.0,0.0,0.0,0.0,0.0,0.0,0.0,0.0,0.0,0.0,0.0,0.0,0.0,4.7255,4.7732,4.8083,4.8661,4.8912,4.8862,4.8058,4.7079,4.605,4.5949,0.0,0.0,0.0,0.0,0.0,0.0,0.0,0.0,0.0,0.0,0.0,0.0,0.0,0.0,0.0,0.0,0.0,0.0,0.0,0.0,0.0,2.41,2.4847,2.6773,2.6592,2.7082,2.87,0.0,0.0,0.0,0.0,0.0,2.8301,2.8301,2.8301,2.8301,3.0824,3.3658,3.6676,3.7147,3.7642,3.8013,3.4526,3.3228,3.3473,0.0,0.0,0.0,0.0,0.0,0.0,0.0,0.0,0.0,0.0,0.0,0.0,0.0,0.0,0.0,0.0,0.0,0.0,0.0,0.0,0.0,0.0,0.0,0.0,0.0,0.0,0.0,0.0,0.0,0.0,0.0,0.0,0.0,0.0,0.0,0.0,0.0,0.0,0.0,0.0,0.0,4.1098,3.954,0.0,0.0,0.0,0.0,0.0,0.0,0.0,0.0,0.0,0.0,0.0,0.0,0.0,4.7129,4.7581,4.856,4.8586,4.7707,4.8761,4.9063,4.8686,4.9238,4.949,4.9515,4.9841,0.0,4.8309,4.7807,0.0,0.0,0.0,0.0,0.0,0.0,0.0,0.0,0.0,0.0,0.0,0.0,0.0,0.0,0.0,0.0,0.0,0.0,0.0,0.0,0.0,2.2533,2.3215,2.4894,2.5909,2.661,2.6931,2.7814,0.0,0.0,0.0,2.793,2.793,2.8164,2.9179,3.1021,3.2479,3.4871,3.814,3.8366,3.8793,3.9244,3.728,3.5928,3.5015,3.3079,0.0,0.0,0.0,0.0,0.0,0.0,0.0,0.0,0.0,0.0,0.0,0.0,0.0,0.0,0.0,0.0,0.0,0.0,0.0,0.0,0.0,0.0,0.0,0.0,0.0,0.0,0.0,0.0,0.0,0.0,0.0,0.0,0.0,0.0,0.0,0.0,0.0,0.0,0.0,4.3788,4.3384,4.1462,4.2563,4.2915,0.0,0.0,0.0,0.0,0.0,0.0,0.0,0.0,0.0,4.7657,4.8234,4.8636,4.8862,4.9665,4.9967,4.9816,5.0619,5.1046,5.1122,5.1348,5.1473,5.1473,5.1724,5.1373,5.0519,4.9012,4.7782,4.6728,0.0,0.0,0.0,0.0,4.4593,4.4895,0.0,0.0,0.0,0.0,0.0,0.0,0.0,0.0,0.0,0.0,0.0,0.0,2.0916,2.1103,2.1705,2.3223,2.4923,2.5803,2.5523,2.7077,2.7676,2.7051,2.7324,2.75,2.75,2.8027,2.9737,3.2627,3.354,3.5457,3.8336,3.8842,3.9295,3.9672,3.927,3.8311,3.6802,3.4935,3.3131,3.1489,0.0,0.0,0.0,0.0,0.0,0.0,0.0,0.0,0.0,0.0,0.0,0.0,0.0,0.0,0.0,0.0,0.0,0.0,0.0,0.0,0.0,0.0,0.0,0.0,0.0,0.0,0.0,0.0,0.0,0.0,0.0,0.0,0.0,0.0,0.0,0.0,0.0,4.5221,4.5405,4.3529,4.5487,4.5828,0.0,0.0,0.0,0.0,0.0,0.0,4.6878,4.7707,4.846,4.9163,4.9741,5.0092,5.0243,5.077,5.1272,5.1699,5.2126,5.2528,5.2929,5.2929,5.2929,5.2929,5.2929,5.2703,5.2176,5.0218,4.8987,4.8209,4.6853,4.6476,4.6652,4.61,4.6175,4.6552,0.0,0.0,0.0,0.0,0.0,0.0,0.0,0.0,0.0,0.0,0.0,1.943,1.9475,1.973,2.0455,2.1991,2.3133,2.4339,2.5791,2.6646,2.707,2.7012,2.7031,2.7051,2.7051,2.7871,2.9226,3.1127,3.3448,3.5329,3.6848,3.8753,3.9672,3.9697,3.9672,3.9595,3.9342,3.637,3.5073,3.4678,3.1563,0.0,0.0,0.0,0.0,0.0,0.0,0.0,0.0,0.0,0.0,0.0,0.0,0.0,0.0,0.0,0.0,0.0,0.0,0.0,0.0,0.0,0.0,0.0,0.0,0.0,0.0,0.0,0.0,0.0,0.0,0.0,0.0,0.0,0.0,0.0,0.0,0.0,0.0,4.623,4.7595,0.0,0.0,0.0,0.0,4.6892,4.7456,4.8008,4.8611,4.8686,4.9213,5.0293,5.0896,5.1448,5.1975,5.2528,5.2829,5.2854,5.2879,5.2904,5.2929,5.2929,5.2929,5.2929,5.2929,5.2904,5.2804,5.1624,5.0494,4.9464,4.8837,4.8284,4.7757,4.723,4.7079,4.7029,0.0,0.0,0.0,0.0,0.0,0.0,0.0,0.0,1.9078,1.9078,1.9252,1.9497,1.9626,1.9733,2.0104,2.0745,2.2186,2.3419,2.4356,2.538,2.6262,2.698,2.6758,2.6992,2.7812,2.8672,2.9928,3.1515,3.2916,3.4677,3.6796,3.7819,3.8792,3.9697,3.9697,3.9697,3.9622,3.8189,3.6647,3.5075,3.3561,3.2291,0.0,0.0,0.0,0.0,0.0,0.0,0.0,0.0,0.0,0.0,0.0,0.0,0.0,0.0,0.0,0.0,0.0,0.0,0.0,0.0,0.0,0.0,0.0,0.0,0.0,0.0,0.0,0.0,0.0,0.0,0.0,0.0,0.0,0.0,0.0,0.0,0.0,4.8912,4.9816,0.0,4.856,4.8284,4.8184,4.8184,4.8686,4.9414,5.0343,5.072,5.1272,5.2,5.2226,5.2427,5.2628,5.2829,5.2929,5.2929,5.2929,5.2929,5.2929,5.2929,5.2929,5.2929,5.2929,5.2929,5.2904,5.2503,5.19,5.1122,5.0193,4.9941,4.9967,4.9063,4.8937,4.9163,0.0,0.0,0.0,0.0,0.0,0.0,0.0,0.0,1.8784,1.8784,1.9038,1.9292,1.9479,1.9679,1.988,2.0067,2.1389,2.2367,2.2688,2.3665,2.456,2.5178,2.5127,2.5755,2.7179,2.8098,2.9394,3.1059,3.2156,3.3561,3.5329,3.5991,3.692,3.7976,3.7976,3.8097,3.819,3.7827,3.7103,3.6084,3.5276,3.427,3.3074,0.0,0.0,0.0,0.0,0.0,0.0,0.0,0.0,0.0,0.0,0.0,0.0,0.0,0.0,0.0,0.0,0.0,0.0,0.0,0.0,0.0,0.0,0.0,0.0,0.0,0.0,0.0,0.0,0.0,0.0,0.0,0.0,0.0,0.0,0.0,4.9741,5.0092,5.1297,5.1498,5.0017,5.0067,5.0092,4.9916,5.0419,5.1046,5.18,5.2176,5.2553,5.2929,5.2929,5.2929,5.2929,5.2929,5.2929,5.2929,5.2929,5.2929,5.2929,5.2929,5.2929,5.2929,5.2929,5.2929,5.2929,5.2929,5.2703,5.2302,5.1548,5.1398,5.1448,5.0519,5.0268,5.0343,0.0,0.0,0.0,0.0,0.0,0.0,0.0,1.8651,1.8477,1.8477,1.8731,1.8931,1.8931,1.9452,1.98,1.9813,2.0772,2.1225,2.0955,2.1607,2.1952,2.1726,2.2228,2.3313,2.4961,2.5954,2.7437,2.9439,3.0949,3.1868,3.2322,3.3426,3.4162,3.4603,3.4603,3.4872,3.5288,3.5288,3.6303,3.7792,3.649,3.5699,3.5025,0.0,0.0,0.0,0.0,0.0,0.0,0.0,0.0,0.0,0.0,0.0,0.0,0.0,0.0,0.0,0.0,0.0,0.0,0.0,0.0,0.0,0.0,0.0,0.0,0.0,0.0,0.0,0.0,0.0,0.0,0.0,0.0,0.0,4.6451,4.9238,5.0896,4.9891,5.2101,5.2879,5.077,5.2026,5.2729,5.2226,5.2653,5.2955,5.2955,5.298,5.2955,5.2929,5.2955,5.2955,5.2929,5.2929,5.2929,5.2929,5.2929,5.2929,5.2929,5.2929,5.2929,5.2929,5.2929,5.2929,5.2929,5.2904,5.2904,5.2929,5.2929,5.2578,5.2051,5.1498,5.0896,5.0318,0.0,0.0,0.0,0.0,0.0,0.0,0.0,1.8169,1.8115,1.8115,1.8555,1.8998,1.9225,1.9573,1.988,2.0094,1.9992,2.0386,2.1338,2.0939,2.1076,2.1969,2.2889,2.3635,2.4128,2.4901,2.5543,2.59,2.7639,2.9003,2.9922,3.1599,3.317,3.4603,3.4603,3.4872,3.5288,3.5288,3.5568,3.6001,3.5907,3.5785,3.5598,0.0,0.0,0.0,0.0,0.0,0.0,0.0,0.0,0.0,0.0,0.0,0.0,0.0,0.0,0.0,0.0,0.0,0.0,0.0,0.0,0.0,0.0,0.0,0.0,0.0,0.0,0.0,0.0,0.0,0.0,0.0,0.0,4.8033,4.969,5.0695,5.19,5.3607,5.3733,5.3783,5.4009,5.3708,5.3607,5.3858,5.3632,5.3482,5.3482,5.3884,5.3758,5.2955,5.3281,5.3306,5.2929,5.2929,5.2929,5.2929,5.2929,5.2929,5.2929,5.2929,5.2929,5.2929,5.2929,5.2929,5.2904,5.2503,5.2578,5.2929,5.2929,5.2578,5.2051,5.1498,5.067,4.9791,0.0,0.0,0.0,0.0,0.0,0.0,0.0,1.7876,1.7849,1.7849,1.837,1.8811,1.8985,1.9145,1.9319,1.9492,1.9078,1.9082,1.9728,1.9313,1.9459,2.0332,2.1395,2.2204,2.2648,2.3244,2.3843,2.448,2.5302,2.6163,2.7087,2.8007,2.9156,3.0359,3.0359,3.1055,3.2215,3.2215,3.2699,3.3543,3.4336,3.5025,3.5544,3.5334,3.5815,3.6554,3.6235,3.68,3.759,3.6947,0.0,0.0,0.0,0.0,0.0,0.0,0.0,0.0,0.0,0.0,0.0,0.0,0.0,0.0,0.0,0.0,0.0,0.0,0.0,0.0,0.0,0.0,0.0,0.0,4.7456,4.9741,5.1975,5.2302,5.2879,5.4486,5.4712,5.4838,5.5013,5.4662,5.4461,5.4561,5.426,5.4059,5.4059,5.4386,5.416,5.3281,5.3557,5.3457,5.2929,5.2929,5.2929,5.2929,5.2929,5.2929,5.2929,5.2929,5.2929,5.2904,5.2678,5.2703,5.2879,5.2327,5.2427,0.0,0.0,0.0,0.0,0.0,5.0167,4.959,0.0,0.0,0.0,0.0,0.0,0.0,0.0,1.7756,1.7582,1.7582,1.8116,1.8477,1.8437,1.8477,1.849,1.849,1.8183,1.7782,1.734,1.7488,1.7782,1.8075,1.8931,1.9844,2.0873,2.1255,2.2223,2.3918,2.3451,2.3507,2.4187,2.3914,2.4076,2.448,2.448,2.5703,2.7714,2.7907,2.904,3.0743,3.2244,3.3754,3.4979,3.4088,3.4598,3.5789,3.5943,3.6594,3.7592,3.8693,0.0,0.0,0.0,0.0,0.0,0.0,0.0,0.0,0.0,0.0,0.0,0.0,0.0,0.0,0.0,0.0,0.0,0.0,0.0,0.0,0.0,0.0,0.0,0.0,4.9515,5.1322,5.3406,5.3808,5.3909,5.3984,5.5239,5.5767,5.4838,5.5139,5.5143,5.4477,5.4616,5.4495,5.4042,0.0,0.0,0.0,0.0,5.3557,5.303,5.2955,5.2929,5.2929,5.2929,5.2929,5.2929,5.2929,5.2929,5.2904,5.2402,5.2477,5.2879,5.2327,5.2352,5.2653,5.1649,5.1272,5.1147,5.0017,4.959,4.959,0.0,0.0,0.0,0.0,0.0,0.0,0.0,1.7622,1.7582,1.7582,1.8116,1.8397,1.8102,1.8343,1.849,1.849,1.7983,1.7729,1.7862,1.7876,1.8142,1.8675,1.9145,1.9506,1.9726,2.0014,2.0258,2.0412,2.1457,2.2009,2.2188,2.3295,2.4076,2.448,2.448,2.5069,2.6168,2.7481,2.8359,2.9039,3.0665,3.2207,3.3599,3.4571,3.516,3.554,3.6744,3.7857,3.8857,3.9882,4.0701,4.1257,4.03,4.0023,0.0,0.0,0.0,0.0,0.0,0.0,0.0,0.0,0.0,0.0,0.0,0.0,0.0,0.0,0.0,0.0,0.0,0.0,0.0,4.8887,5.067,5.2226,5.3507,5.4486,5.5214,5.5666,5.5616,5.5641,5.5867,5.5591,5.4839,5.3464,5.4546,5.3765,5.0306,5.3789,5.4642,5.1922,5.3555,5.4135,5.3557,5.313,5.2929,5.2929,0.0,0.0,5.2929,5.2929,5.2929,5.2929,5.2804,5.2829,5.2879,5.2327,5.19,5.1574,5.1373,5.1272,5.1147,5.0017,4.959,4.954,0.0,0.0,0.0,0.0,0.0,0.0,0.0,1.5476,1.5476,1.5476,1.6483,1.7081,1.675,1.7381,1.7756,1.7609,1.7181,1.7181,1.7769,1.7902,1.8249,1.8891,1.9212,1.943,1.943,1.9359,1.9359,1.943,1.9988,2.033,2.0529,2.1259,2.1747,2.1955,2.1955,2.269,2.3975,2.4933,2.5881,2.6911,2.8873,3.0025,3.0756,3.2427,3.3529,3.4357,3.5546,3.6667,3.7804,3.9896,4.0758,4.1121,4.1613,4.1756,4.158,0.0,0.0,0.0,0.0,0.0,0.0,0.0,0.0,0.0,0.0,0.0,0.0,0.0,0.0,4.4568,4.5648,0.0,4.8586,5.0544,5.2,5.3181,5.4009,5.4863,5.5491,5.5767,5.5792,5.5555,5.4988,5.5731,5.5386,5.3533,5.5115,5.5263,5.3152,5.5041,5.548,5.3864,5.4586,5.4561,5.3708,5.3432,5.3181,5.2929,5.2929,5.2929,5.2929,5.2929,5.2929,5.2904,5.2628,5.2678,5.2904,5.2628,5.2352,5.2076,5.18,5.1348,5.0745,4.9916,4.959,4.9565,0.0,0.0,0.0,0.0,0.0,0.0,0.0,1.3318,1.3318,1.3318,1.4549,1.5378,1.5018,1.6039,1.6739,1.6647,1.6513,1.6844,1.7609,1.7956,1.8397,1.8985,1.9239,1.9399,1.9511,1.9212,1.9239,1.9533,1.9239,1.9212,1.9511,1.9399,1.943,1.943,1.9426,2.0347,2.1833,2.2483,2.3541,2.4982,2.7071,2.7813,2.7799,2.9341,3.1111,3.2804,3.3943,3.4812,3.5847,3.8849,3.9669,3.9732,4.1501,4.2142,4.2019,4.1235,4.0918,0.0,0.0,0.0,0.0,0.0,0.0,0.0,0.0,0.0,4.3263,4.4367,4.5497,4.6728,4.8134,4.9238,5.0444,5.2,5.308,5.3909,5.4486,5.5039,5.544,5.5541,5.5553,5.5263,5.4447,5.5202,5.5251,5.4004,5.5121,5.5926,5.5926,5.5906,5.5905,5.5905,5.5649,5.5114,5.4185,5.3858,5.3482,5.308,5.298,5.2929,5.2929,5.2929,5.2929,5.2904,5.2452,5.2528,5.2929,5.2929,5.2929,5.2879,5.2327,5.1548,5.067,4.9992,4.9766,4.9715,0.0,0.0,0.0,0.0,0.0,0.0,0.0,0.0,1.3318,1.3318,1.3676,1.3837,1.3555,1.4556,1.5514,1.6268,1.6817,1.7367,1.7929,1.8263,1.8704,1.9292,1.9403,1.9492,1.9746,1.972,1.984,2.0134,1.984,1.972,1.9746,1.9492,1.943,1.943,1.9639,2.0026,2.055,2.2282,2.3307,2.3886,2.5587,2.6254,2.6221,2.6453,2.8486,3.1384,3.3261,3.3826,3.3968,3.6486,3.761,3.8099,3.8598,3.8993,3.9414,3.9736,3.9459,3.9163,3.9608,3.9295,3.922,4.0573,4.0701,4.148,0.0,0.0,4.615,4.723,4.836,4.9339,5.0017,5.067,5.1473,5.2653,5.3331,5.3909,5.4486,5.5039,5.5566,5.6068,5.4547,5.4318,5.6427,5.34,5.2244,5.4449,5.2964,5.2014,5.2206,5.3881,5.4812,5.489,5.5633,5.6068,5.5942,5.4436,5.3683,5.3607,5.3155,5.2929,5.2929,5.2929,5.2929,5.2929,5.2854,5.2879,5.2929,5.2929,5.2929,5.2879,5.2327,5.2026,5.1774,5.072,5.0318,5.0193,0.0,0.0,0.0,0.0,0.0,0.0,0.0,0.0,0.0,1.0726,1.1553,1.2073,1.1818,1.3381,1.4607,1.4986,1.634,1.738,1.7742,1.837,1.8931,1.9403,1.9533,1.9679,1.98,1.996,2.0107,2.0167,2.0107,2.0054,2.0054,1.992,1.9867,1.988,2.0,2.012,2.0254,2.1271,2.1661,2.177,2.3764,2.4485,2.4434,2.5598,2.6773,2.8079,2.9981,3.0606,0.0,3.4195,3.562,3.6216,3.7618,3.8371,3.8633,3.8194,3.8727,3.9587,4.0028,3.9622,3.9467,4.1339,4.2133,4.3162,4.5999,4.6954,4.7556,4.8661,5.0042,5.1122,5.1348,5.2101,5.2829,0.0,5.411,5.4762,5.5013,5.5239,5.5465,5.5691,5.3886,5.3401,5.5415,5.2811,5.1537,5.2717,5.3333,5.3617,5.3371,5.539,5.6513,5.659,5.6626,5.6219,5.5265,5.3416,5.2752,5.3187,5.0672,5.0056,5.1138,4.9985,5.0127,5.1303,5.2421,5.2929,5.2929,5.2929,5.2929,5.2904,5.2678,5.2578,5.2452,5.1322,5.072,5.0343,0.0,0.0,0.0,0.0,0.0,0.0,0.0,0.0,0.0,0.0,0.9809,1.0552,1.0695,1.2443,1.3768,1.4228,1.596,1.7273,1.7675,1.8397,1.9011,1.9466,1.9693,1.988,2.004,2.0241,2.0388,2.0468,2.0388,2.0361,2.0361,2.0267,2.0167,2.0241,2.0401,2.0468,2.0494,2.0882,2.0869,2.0752,2.2347,2.2831,2.2678,2.4024,2.4419,2.4591,2.725,2.812,2.8462,3.1724,3.3033,3.3638,3.5503,3.6479,3.6719,3.6369,3.7383,3.8768,3.9104,3.8902,0.0,4.0967,4.2561,4.4166,4.5822,4.7433,4.8887,4.9866,5.1272,5.2327,5.2327,5.298,5.3482,5.3482,5.431,5.4913,5.4913,5.5064,5.5164,5.5164,5.2863,5.2226,5.4596,5.2113,5.0908,5.2241,5.2558,5.3268,5.4616,5.5834,5.6909,5.7901,5.7499,5.6324,5.427,5.2502,5.1537,5.1452,4.843,4.7759,4.9081,4.7613,4.7759,4.9248,5.0646,5.1607,5.2119,5.2119,5.2421,5.2929,5.2929,5.2929,5.2829,5.2026,5.1373,5.0845,0.0,0.0,0.0,0.0,0.0,0.0,0.0,0.0,0.0,0.0,0.0,0.0,0.0,1.1751,1.3007,1.4445,1.5884,1.7088,1.7943,1.8317,1.8891,1.9746,1.98,2.0067,2.0641,2.0655,2.0802,2.1082,2.0802,2.0655,2.0655,2.0374,2.0167,2.0254,2.0828,2.1082,2.1122,2.1697,2.1777,2.1574,2.1666,2.1491,2.1132,2.0913,2.0867,2.1457,2.6126,2.7362,2.7065,2.9063,2.9741,2.9976,3.127,3.2036,3.2673,3.4049,3.4962,3.55,3.5759,3.6528,3.7621,3.9048,4.1476,4.3915,4.5633,4.8257,5.0519,5.1096,5.2126,5.2904,5.2904,5.2929,5.2955,5.2955,5.3406,5.3758,5.3758,5.4235,5.4587,5.4587,5.1114,5.0411,0.0,5.0656,4.9592,5.4209,4.9254,4.8568,5.4358,5.3658,5.4577,5.7775,5.7876,5.6375,5.3401,5.2202,5.044,4.8065,4.7349,4.7029,4.7102,4.7029,4.7029,4.7102,4.7175,4.8289,5.0127,5.0127,5.1233,5.2929,5.2929,5.2929,5.2929,5.2879,5.2528,5.19,0.0,0.0,0.0,0.0,0.0,0.0,0.0,0.0,0.0,0.0,0.0,0.0,0.0,0.0,0.0,0.0,1.438,1.5968,1.6238,1.7819,1.8905,1.9199,1.9773,2.0174,2.0374,2.0762,2.1015,2.1109,2.1015,2.0962,2.0962,2.1069,2.1109,2.1122,2.151,2.1697,2.171,2.1897,2.2044,2.2098,2.171,2.1603,2.1643,2.1149,2.0722,2.074,0.0,2.4622,2.5314,2.6774,2.81,2.9219,2.9648,3.0293,3.119,3.2996,3.3422,3.3692,3.5711,3.6703,3.7689,3.987,4.1576,4.316,4.4412,4.6772,4.8646,4.884,4.9875,5.072,5.072,5.1322,5.1825,5.1825,5.3507,5.4687,5.4336,5.4762,5.4838,5.4084,5.3123,0.0,0.0,0.0,0.0,5.124,4.9004,4.819,4.9935,5.2936,5.419,5.3241,5.5898,5.4962,5.0185,4.9795,4.8925,4.7298,4.5788,4.4398,4.3228,4.4473,4.5052,4.5127,4.6441,4.8144,4.9961,4.9961,5.1163,5.2929,5.2929,5.2929,5.2929,5.2929,5.1995,5.0586,0.0,0.0,0.0,0.0,0.0,0.0,0.0,0.0,0.0,0.0,0.0,0.0,0.0,0.0,0.0,0.0,0.0,1.4767,1.554,1.6986,1.8173,1.8861,1.9466,1.9867,2.0067,1.9876,1.9861,1.9964,1.9411,1.9145,1.9208,1.9414,1.9548,1.956,1.9895,2.0397,2.1106,2.1106,2.1541,2.2218,2.163,2.1443,2.1456,2.0869,2.0401,0.0,2.1064,2.221,2.3626,2.5459,2.7229,2.875,2.9062,2.9746,3.07,3.2136,3.2334,3.2772,3.526,3.6311,3.7246,3.9583,4.1072,4.2267,4.3145,4.5577,4.7627,4.7436,4.8445,4.9238,4.9038,4.9439,4.9916,5.0318,5.2201,5.3708,5.3959,5.4285,5.4386,5.4059,5.357,5.3452,0.0,0.0,0.0,4.9362,4.7962,4.701,4.7409,5.0739,5.2025,5.058,5.3029,5.2118,4.7542,4.7345,4.656,4.4924,4.3663,4.2406,4.125,4.2483,4.3075,4.3151,4.4398,4.6093,4.7976,4.865,5.0127,5.1956,5.2629,5.2929,5.2929,5.2929,5.2119,5.0783,0.0,0.0,0.0,0.0,0.0,0.0,0.0,0.0,0.0,0.0,0.0,0.0,0.0,0.0,0.0,0.0,0.0,0.0,1.5534,1.5799,1.6765,1.8695,1.8861,1.9141,1.9668,1.82,1.7539,1.7798,1.64,1.5686,1.5696,1.5856,1.5893,1.5903,1.6267,1.7477,1.924,1.924,2.0261,2.1779,2.1195,2.0859,2.0641,2.004,1.9813,1.9773,1.9506,2.0399,2.2024,2.4986,2.7006,2.8476,2.9336,3.0195,3.0976,3.1445,3.1914,3.2637,3.4277,3.5391,3.6484,3.8125,3.987,4.131,4.1728,4.4674,4.7167,4.6642,4.7515,4.8297,0.0,0.0,4.7481,4.851,4.9766,5.1197,5.2779,5.3055,5.3482,0.0,0.0,0.0,0.0,0.0,0.0,4.8927,0.0,4.5035,4.6566,4.7286,4.8275,4.9618,4.9593,4.8179,4.5481,4.4978,4.3505,4.1172,4.1172,4.1172,4.1172,4.1172,4.1172,4.1172,4.1172,4.2273,4.4247,4.6219,4.8217,5.0198,5.2119,5.2929,5.2929,5.2929,5.2792,5.2178,0.0,0.0,0.0,0.0,0.0,0.0,0.0,0.0,0.0,0.0,0.0,0.0,0.0,0.0,0.0,0.0,0.0,0.0,1.231,1.4549,1.6227,1.6899,1.822,1.8596,1.8008,1.7589,1.6994,1.6124,1.5753,1.5534,1.5534,1.576,1.5926,1.5936,1.6227,1.6686,1.7065,1.7065,1.8165,1.9887,1.9269,1.9839,2.0935,2.0347,1.9987,1.9813,1.996,2.0693,2.187,2.3766,2.6354,2.8906,2.9766,3.043,3.1094,3.2168,3.3008,3.3828,3.4922,3.6074,3.7148,3.791,3.8682,3.9201,3.8982,4.08,4.2516,4.2495,4.3216,4.3892,0.0,0.0,0.0,4.7506,5.0896,0.0,5.4084,5.4863,0.0,5.5767,5.5206,5.4934,5.5189,5.1268,0.0,0.0,4.5608,4.3742,4.4494,4.6434,4.6862,4.5373,4.8308,4.7753,4.328,4.2523,4.1794,4.1172,4.1172,4.1172,4.1172,4.1172,4.1172,4.1172,4.1172,4.2273,4.4247,4.6219,4.8217,5.0198,5.2119,5.2929,5.2929,5.2929,5.0998,4.8341,0.0,0.0,0.0,0.0,0.0,0.0,0.0,0.0,0.0,0.0,0.0,0.0,0.0,0.0,0.0,0.0,0.0,0.0,0.0,1.2856,1.4579,1.6119,1.6452,1.6712,1.6997,1.5736,1.4711,1.4057,1.3501,1.3171,1.3083,1.3348,1.3436,1.3436,1.3614,1.4217,1.5,1.5607,1.6977,0.0,0.0,1.9566,2.0481,2.0027,1.976,1.9653,1.9933,2.0889,2.2281,2.4023,0.0,2.9961,3.1016,3.1641,3.2246,3.3555,0.0,3.4883,3.5937,3.6894,3.7715,3.834,3.8379,3.8184,3.7754,3.8755,3.9869,4.0066,4.0652,0.0,4.1279,4.349,0.0,0.0,0.0,0.0,5.4361,5.4888,5.5465,0.0,5.6143,0.0,5.4525,5.1698,4.9485,0.0,4.5148,4.3457,4.3691,4.5042,4.5145,4.3711,4.561,4.513,4.1875,4.1406,4.1172,4.1172,4.1172,4.1172,4.1172,4.1172,4.1172,4.1172,0.0,4.183,4.3075,4.5871,4.7686,4.8938,5.1816,5.2929,5.2929,5.2929,5.0928,4.8148,0.0,0.0,0.0,0.0,0.0,0.0,0.0,0.0,0.0,0.0,0.0,0.0,0.0,0.0,0.0,0.0,0.0,0.0,0.0,0.0,1.2599,1.5401,1.4343,1.4391,1.5873,1.3299,1.191,1.1823,1.0758,1.0148,0.9957,1.0154,1.0215,1.0215,1.0215,1.1229,1.2927,1.4313,1.6021,1.7925,1.9022,1.9582,1.9773,0.0,1.9399,1.9452,1.9706,2.0988,2.2781,2.4783,2.7736,3.0955,3.2419,3.3203,3.3848,3.5176,3.5566,3.582,3.7051,3.7637,3.8105,3.8848,3.8437,3.7676,3.709,3.7564,3.8143,3.8226,0.0,3.9057,3.8682,4.0675,4.2635,4.3265,0.0,5.0672,5.431,5.4285,5.4762,5.6997,5.6269,5.4941,5.3398,5.1339,4.917,4.6842,4.4843,4.3711,4.3711,4.3711,4.3691,4.3633,4.2851,4.2051,4.1269,4.1211,4.1172,4.1172,4.1172,4.1172,4.1172,4.1172,4.1172,4.1172,4.1172,0.0,4.1463,4.5127,4.6735,4.7394,5.1093,5.2629,5.2929,5.2929,5.1513,4.9321,0.0,0.0,0.0,0.0,0.0,0.0,0.0,0.0,0.0,0.0,0.6304,0.0,0.0,0.0,0.0,0.0,0.0,0.0,0.0,0.0,0.0,1.2518,1.3199,1.3286,1.279,1.1985,1.1078,1.0056,0.9937,0.9883,0.9863,0.989,0.9903,0.9903,0.9903,1.0094,1.0483,1.2084,1.3708,1.5361,1.689,1.8429,1.9773,1.9479,0.0,0.0,1.9786,2.0988,2.2677,2.4023,2.6644,2.9878,3.2455,3.3848,3.4746,3.6055,3.6445,3.666,3.7559,3.7871,3.7969,3.8105,3.7773,3.7012,3.5488,3.5008,0.0,0.0,3.4724,3.5041,3.5791,3.7816,4.0409,4.3439,4.6513,5.0215,5.5246,5.544,5.5917,0.0,5.7424,5.593,5.3971,5.1867,0.0,0.0,0.0,4.3711,4.3711,4.3711,4.3555,4.3203,4.2695,4.2187,4.1699,4.1348,4.1172,4.1172,4.1172,4.1172,4.1172,4.1172,4.1172,4.1172,4.1172,0.0,4.1405,4.3663,4.5574,4.7248,4.9605,5.1513,5.2929,5.2929,5.0646,4.7399,0.0,0.0,0.0,0.0,0.0,0.0,0.0,0.0,0.0,0.4663,0.6251,0.7746,0.0,0.0,0.0,0.0,0.0,0.0,0.0,0.0,0.0,0.0,0.0,0.0,1.1988,1.1063,1.0346,0.972,0.0,0.9897,0.9822,0.9822,0.9822,0.9822,0.9822,0.9822,0.9943,1.2397,1.3952,1.5001,1.7326,1.8965,2.0,0.0,0.0,0.0,0.0,2.0917,2.1987,2.3654,2.5408,2.758,3.1744,3.3964,3.5312,3.6621,3.6992,3.7129,3.7754,3.793,3.793,3.793,3.7266,3.6172,3.4434,0.0,0.0,0.0,3.3035,3.3261,3.4013,3.6963,0.0,4.1014,4.4804,4.9035,5.3111,5.3909,0.0,5.7148,5.6671,5.4942,0.0,5.0562,4.8436,0.0,0.0,4.3613,4.3398,4.3379,4.3281,4.3086,4.2441,4.1894,4.1484,4.1269,4.1172,4.1172,4.1172,4.1172,4.1172,4.1172,4.1172,4.1172,4.1172,0.0,4.1327,4.3283,4.5276,4.7175,4.9224,5.0551,5.1373,5.1373,4.8866,4.5456,0.0,0.0,0.0,0.0,0.0,0.0,0.0,0.3575,0.3741,0.5328,0.6766,0.8206,0.958,0.9693,0.9605,0.0,0.0,0.0,0.0,0.0,0.0,0.0,0.0,0.0,0.0,0.0,0.0,0.9774,0.9862,0.0,0.0,0.0,0.0,0.0,0.9822,0.9822,1.0004,1.3228,1.47,0.0,0.0,1.972,0.0,0.0,0.0,0.0,0.0,2.0828,2.1245,2.2976,2.3985,2.5334,2.9609,3.2661,3.5066,3.6591,3.709,3.7266,3.7793,3.793,3.791,3.7812,3.6894,3.5547,3.3711,3.2559,0.0,3.1804,3.1712,3.1816,3.2375,3.5735,3.8433,3.8598,4.2724,4.7159,5.082,5.1761,5.3093,0.0,5.5063,0.0,4.9652,4.8874,0.0,0.0,0.0,0.0,4.3086,4.2988,4.2891,4.2812,4.2148,4.1601,4.1172,4.1172,4.1172,4.1172,4.1172,4.1172,4.1172,4.1172,4.1172,4.1172,4.1172,0.0,0.0,4.2846,4.4602,4.6514,4.8121,4.9009,4.9391,4.9391,4.7102,4.4075,0.0,0.0,0.0,0.0,0.0,0.0,0.0,0.4678,0.5431,0.7476,0.7732,0.8436,1.0089,0.9971,0.9795,0.0,0.0,0.0,0.0,0.0,0.0,0.0,0.0,0.0,0.0,0.0,0.0,0.9632,0.9774,0.0,0.0,0.0,0.0,0.0,0.0,0.9822,1.0004,1.3228,0.0,0.0,0.0,0.0,0.0,0.0,0.0,0.0,0.0,2.0695,2.0824,0.0,0.0,2.4035,2.487,2.8553,3.304,3.5452,0.0,0.0,3.7715,3.793,3.7832,3.7461,3.668,3.5469,3.334,0.0,3.08,3.003,2.9518,2.9498,3.0325,3.1881,3.4328,3.8019,4.0598,4.4281,5.0463,5.0137,5.1053,5.5649,0.0,0.0,0.0,0.0,0.0,0.0,0.0,0.0,4.3047,4.2695,4.2305,4.1933,4.1836,4.1601,4.1172,4.1172,4.1172,4.1172,4.1172,4.1172,4.1172,4.1172,4.1172,4.1172,4.1172,0.0,0.0,4.1385,4.2637,4.4377,4.4602,4.5701,4.7248,4.7248,4.5923,4.4033,0.0,0.0,0.0,0.0,0.0,0.0,0.0,0.5602,0.6741,0.774,0.8781,0.969,1.0341,1.0222,1.0025,0.0,0.0,0.0,0.0,0.0,0.0,0.0,0.0,0.0,0.0,0.0,0.9496,0.9734,0.9795,0.0,0.0,0.0,0.0,0.0,0.0,0.9822,0.9937,1.2217,0.0,0.0,0.0,0.0,0.0,0.0,0.0,0.0,0.0,0.0,2.0695,2.0815,0.0,0.0,2.3078,2.4983,0.0,0.0,3.426,3.5664,3.6543,3.6973,3.7129,3.6953,3.5879,3.4414,3.2793,0.0,3.0234,2.9355,2.9043,2.918,3.0039,3.2163,3.4098,3.5114,3.847,4.1857,4.4597,4.6102,4.802,5.0995,4.9889,0.0,0.0,0.0,0.0,0.0,0.0,0.0,4.2285,4.2148,4.1973,4.1816,4.1562,4.1348,4.1172,4.1172,4.1172,4.1172,4.1172,4.1172,4.1172,4.1172,4.1172,4.1172,4.1172,0.0,0.0,4.1172,4.235,4.4096,4.4096,4.4602,4.5276,4.5276,4.4021,4.2309,0.0,0.0,0.0,0.0,0.0,0.0,0.4599,0.6179,0.7687,0.8467,0.9192,0.9922,1.0422,0.987,0.9613,0.9849,0.0,0.0,0.0,0.0,0.0,0.0,0.0,0.0,0.0,0.0,0.9571,0.9822,0.9822,0.9822,0.0,0.0,0.9822,0.9822,0.0,0.0,0.0,0.0,0.0,0.0,0.0,0.0,0.0,0.0,0.0,0.0,0.0,0.0,0.0,0.0,0.0,0.0,2.1475,2.2216,2.3849,0.0,3.2019,3.3835,3.5393,3.6152,3.6504,3.6641,3.5449,3.3945,0.0,3.1328,2.998,2.9258,2.8906,2.9004,2.9844,3.2065,3.3791,3.3759,3.7201,4.0296,4.1501,4.336,4.549,0.0,0.0,4.6201,0.0,4.4965,4.3468,0.0,0.0,0.0,4.1621,4.1621,4.1621,4.1621,4.1328,4.1172,4.1172,4.1172,4.1172,4.1172,4.1172,4.1172,4.1172,4.1172,4.1172,4.1172,4.1172,0.0,0.0,4.1172,4.1985,4.3207,4.3207,4.3207,4.3207,4.3207,4.235,4.1172,0.0,0.0,0.0,0.0,0.0,0.0,0.0,0.6296,0.8115,1.0032,0.8863,0.852,1.0279,0.8753,0.8284,0.9859,0.0,0.0,0.0,0.0,0.0,0.0,0.0,0.0,0.0,0.0,0.968,0.9822,0.9822,0.9822,0.9822,0.9822,0.9822,0.9822,0.0,0.0,0.0,0.0,0.0,0.0,0.0,0.0,1.9826,0.0,0.0,0.0,0.0,0.0,0.0,0.0,0.0,0.0,0.0,2.0443,2.2605,2.7769,2.997,3.1339,3.4506,3.5703,3.6133,3.6562,3.5684,3.4473,3.3613,3.1738,3.0078,2.9704,2.8887,2.8555,2.947,3.0805,3.2608,3.4912,3.6959,3.9606,4.3237,4.2938,0.0,0.0,0.0,4.2981,4.7815,4.572,0.0,0.0,0.0,0.0,4.1172,4.1172,4.1172,4.1172,4.1172,4.1172,4.1172,4.1172,4.1172,4.1172,4.1172,4.1172,4.1172,4.1172,4.1172,0.0,0.0,0.0,0.0,4.1172,4.1172,4.125,4.125,4.125,4.125,4.125,4.125,4.1172,0.0,0.0,0.0,0.0,0.0,0.0,0.0,0.6944,0.8571,0.8357,0.7841,0.7791,0.8573,0.8001,0.8222,0.9859,0.0,0.0,0.0,0.0,0.0,0.0,0.0,0.0,0.0,0.0,0.9734,0.9916,0.9916,1.0032,1.0134,1.0025,0.9916,0.9909,0.9869,1.0422,0.0,0.0,0.0,0.0,0.0,1.9506,1.9519,0.0,0.0,0.0,0.0,0.0,0.0,0.0,0.0,0.0,0.0,0.0,0.0,2.3571,2.5961,2.7954,2.9566,3.1255,3.26,3.2562,3.2759,3.2754,3.1894,3.0703,2.957,2.8848,2.8476,2.8555,2.9414,3.0805,3.2386,3.4068,3.6584,3.8837,0.0,0.0,0.0,4.4086,4.2559,4.2023,0.0,0.0,0.0,0.0,0.0,0.0,4.1172,4.1172,4.1172,4.1172,4.1172,4.1172,4.1172,4.1172,4.1172,4.1172,4.1172,4.1172,4.1172,4.1172,0.0,0.0,0.0,0.0,0.0,4.1172,4.1172,4.1172,4.1172,4.1172,4.1172,4.1172,4.1172,4.1172,0.0,0.0,0.0,0.0,0.0,0.0,0.0,0.6266,0.7662,0.8168,0.7664,0.7649,0.8632,0.8005,0.8172,0.9853,0.0,0.0,0.0,0.0,0.0,0.0,0.0,0.0,0.9822,0.9734,0.9808,0.9984,0.9984,1.0127,1.0276,1.0058,0.9984,0.9977,0.989,1.0361,0.0,0.0,0.0,0.0,1.8685,1.9533,1.9519,0.0,0.0,0.0,0.0,0.0,0.0,0.0,0.0,0.0,0.0,0.0,0.0,0.0,2.2453,2.4248,2.6492,2.8682,3.0392,3.0573,3.1148,0.0,3.1211,3.0195,2.918,2.8633,2.8535,2.875,2.9434,3.0449,3.1913,3.4068,3.5959,3.7731,0.0,0.0,0.0,4.1239,0.0,0.0,0.0,4.1532,0.0,0.0,0.0,0.0,4.1172,4.1172,4.1172,4.1172,4.1172,4.1172,4.1172,4.1172,4.1172,4.1172,4.1172,4.1172,4.1172,4.1172,0.0,0.0,0.0,0.0,0.0,4.1172,4.1172,4.1172,4.1172,4.1172,4.1172,4.1172,4.1172,4.1172,0.0,0.0,0.0,0.0,0.0,0.0,0.0,0.0,0.0,0.0,0.7849,0.768,0.969,0.8426,0.8083,0.0,0.0,0.0,0.0,0.0,0.0,0.0,0.0,0.0,0.9822,0.9822,0.9903,1.0004,1.0004,1.0148,1.031,1.0154,1.0011,0.9997,0.9903,0.989,0.0,0.0,0.0,1.5387,1.8426,1.9641,0.0,0.0,0.0,0.0,0.0,0.0,0.0,0.0,0.0,0.0,0.0,0.0,0.0,0.0,0.0,0.0,0.0,2.7332,2.9058,2.9948,3.04,3.0762,3.1191,3.0078,0.0,2.8887,2.8867,2.9023,2.9492,2.9996,3.141,3.4637,3.5323,3.6498,3.9616,4.0527,0.0,0.0,4.2522,0.0,3.9608,4.2072,0.0,0.0,0.0,0.0,4.1172,4.1172,4.1172,4.1172,4.1172,4.1172,4.1172,4.1172,4.1172,4.1172,4.1172,4.1172,4.1172,4.1172,0.0,0.0,0.0,0.0,0.0,4.1172,4.1172,4.1172,4.1172,4.1172,4.1172,4.1172,4.1172,4.1172,0.0,0.0,0.0,0.0,0.0,0.0,0.0,0.0,0.0,0.0,0.4715,0.5495,0.6126,0.6903,0.805,0.0,0.0,0.0,0.0,0.0,0.0,0.0,0.0,0.0,0.9822,0.9822,0.9951,1.0222,1.0222,1.0358,1.0616,1.046,1.0331,1.0222,1.0066,1.0598,0.0,0.0,1.5396,1.6583,1.735,1.8387,0.0,0.0,0.0,0.0,1.9439,1.9426,0.0,0.0,0.0,0.0,0.0,0.0,0.0,0.0,1.9466,1.9739,2.0751,0.0,2.4503,2.5629,2.7027,2.8406,0.0,2.9219,2.8828,2.8496,2.8437,2.8672,2.9489,3.0611,3.2017,3.3905,3.5426,3.6892,3.8458,3.9686,0.0,4.1943,4.2064,4.1399,3.986,4.1045,0.0,0.0,0.0,4.1172,4.1172,4.1172,4.1172,4.1172,4.1172,4.1172,4.1172,4.1172,4.1172,4.1172,4.1172,4.1172,4.1172,4.1172,4.1172,0.0,0.0,0.0,4.1172,4.1172,4.1172,4.1172,4.1172,4.1172,4.1172,4.1172,4.1172,4.1172,0.0,0.0,0.0,0.0,0.0,0.0,0.0,0.0,0.0,0.0,0.0,0.0,0.0,0.0,0.0,0.0,0.0,0.0,0.0,0.0,0.0,0.0,0.0,0.9822,0.9822,0.9822,0.9971,1.0283,1.0283,1.0432,1.0717,1.0561,1.0419,1.027,1.0046,1.0318,1.1261,1.375,1.529,1.6187,1.7695,0.0,0.0,0.0,0.0,0.0,1.943,1.943,0.0,1.943,1.943,1.943,0.0,0.0,0.0,0.0,1.9466,1.9533,1.9399,2.084,2.2744,2.4384,2.5851,2.7304,2.8887,2.8906,2.8574,2.834,2.8437,2.8987,3.0354,3.1629,3.3185,3.5202,3.7042,3.877,4.0379,0.0,4.0646,4.2397,4.1444,4.0566,0.0,0.0,0.0,0.0,0.0,4.1172,4.1172,4.1172,4.1172,4.1172,4.1172,4.1172,4.1172,4.1172,4.1172,4.1172,4.1172,4.1172,4.1172,4.1172,4.1172,0.0,0.0,0.0,4.1172,4.1172,4.1172,4.1172,4.1172,4.1172,4.1172,4.1172,4.1172,4.1172,0.0,0.0,0.0,0.0,0.0,0.0,0.0,0.0,0.0,0.0,0.0,0.0,0.0,0.0,0.0,0.0,0.0,0.0,0.0,0.0,0.0,0.0,0.0,0.9822,0.9822,0.9822,0.9958,1.0243,1.027,1.0419,1.0683,1.0575,1.0568,1.0644,1.0348,1.02,1.0368,1.3593,1.4821,1.4882,1.8091,0.0,0.0,0.0,0.0,0.0,0.0,0.0,0.0,1.9319,1.939,1.9417,1.9319,0.0,0.0,0.0,0.0,0.0,1.9492,2.0637,2.2302,2.4407,2.5537,2.6731,2.8908,2.8809,2.8301,2.8301,2.8633,2.9461,3.1467,3.2738,3.4338,3.685,3.8824,4.0705,4.2776,4.1328,4.0555,4.1833,4.0863,0.0,0.0,0.0,0.0,0.0,0.0,4.1172,4.1172,4.1172,4.1172,4.1172,4.1172,4.1172,4.1172,4.1172,4.1172,4.1172,4.1172,4.1172,4.1172,4.1172,4.1172,4.1172,0.0,0.0,4.1172,4.1172,4.1172,4.1172,4.1172,4.1172,4.1172,4.1172,4.1172,4.1172,0.0,0.0,0.0,0.0,0.0,0.0,0.0,0.0,0.0,0.0,0.0,0.0,0.0,0.0,0.0,0.0,0.0,0.0,0.0,0.0,0.0,0.0,0.9822,0.9822,0.9822,0.9822,0.991,1.0024,1.0215,1.0365,1.0527,1.0636,1.1243,1.2326,1.2122,1.1943,1.1976,1.3863,1.3873,1.2913,1.6135,0.0,0.0,0.0,0.0,0.0,0.0,0.0,0.0,1.9078,1.9158,1.9319,1.9078,0.0,0.0,0.0,0.0,0.0,1.9679,2.0301,2.1381,2.3463,2.4298,2.5336,2.794,2.8379,2.8301,2.8301,2.8633,2.9461,3.1467,3.3204,3.4821,3.6115,3.8313,4.0289,4.1474,0.0,4.1348,4.0385,0.0,0.0,0.0,0.0,0.0,0.0,0.0,4.1172,4.1172,4.1172,4.1172,4.1172,4.1172,4.1172,4.1172,4.1172,4.1172,4.1172,4.1172,4.1172,4.1172,4.1172,4.1172,4.1172,0.0,4.1172,4.1172,4.1172,4.1172,4.1172,4.1172,4.1172,4.1172,4.1172,4.1172,4.1172,0.0,0.0,0.0,0.0,0.0,0.0,0.0,0.0,0.0,0.0,0.0,0.0,0.0,0.0,0.0,0.0,0.0,0.0,0.0,0.0,0.0,0.9876,0.9863,0.9822,0.9822,0.9903,1.0019,1.0175,1.0405,1.0555,1.0616,1.0527,1.0791,1.1452,1.2049,1.2241,1.2337,1.3944,1.4789,1.5121,0.0,0.0,0.0,0.0,0.0,0.0,0.0,0.0,0.0,0.0,1.9011,1.9105,1.8971,0.0,0.0,0.0,0.0,0.0,1.9573,1.988,2.0861,2.3511,2.4622,2.5846,2.867,2.9141,2.8984,2.8984,2.9141,2.9952,0.0,0.0,3.7198,4.0993,0.0,4.1948,4.3489,4.202,4.0891,0.0,0.0,0.0,0.0,0.0,0.0,0.0,0.0,0.0,4.1172,4.1172,4.1172,4.1172,4.0937,4.0937,4.1172,4.0723,4.0723,4.1172,4.0937,4.082,4.082,4.0586,4.0605,4.0801,0.0,4.0742,4.1152,4.0918,4.0957,4.1172,4.1172,4.1172,4.1172,4.1172,4.1172,4.1172,0.0,0.0,0.0,0.0,0.0,0.0,0.0,0.0,0.0,0.0,0.0,0.0,0.0,0.0,0.0,0.0,0.0,0.0,0.0,0.0,0.9876,0.993,0.9883,0.9856,0.9924,0.9943,1.0127,1.0283,1.0541,1.067,1.0663,1.0432,1.0728,1.1399,1.1984,1.2672,1.3407,1.4658,1.5774,1.6814,0.0,0.0,0.0,0.0,0.0,0.0,0.0,0.0,0.0,0.0,0.0,0.0,0.0,0.0,0.0,1.9439,1.9533,1.9666,1.9506,1.9679,2.0652,2.3809,2.5001,2.6321,2.9584,3.0019,2.9785,2.998,3.0019,3.0687,0.0,3.5312,0.0,4.3746,4.3439,4.3025,4.4536,4.2155,4.061,4.1706,4.0669,0.0,0.0,0.0,0.0,0.0,0.0,0.0,4.1152,4.1172,4.1133,4.1035,4.0703,4.0644,4.0879,4.0215,4.0273,4.1016,4.0586,4.0371,4.0371,4.0039,4.0078,4.0351,4.0039,4.0273,4.0859,4.0625,4.0723,4.1035,4.1133,4.1172,4.1172,4.1172,4.1172,4.1191,0.0,0.0,0.0,0.0,0.0,0.0,0.0,0.0,0.0,0.0,0.0,0.0,0.0,0.0,0.0,0.0,0.0,0.0,0.0,0.0,0.9829,0.9836,0.9829,0.9958,1.0243,1.0114,1.0127,1.0283,1.0432,1.0507,1.0507,1.0487,1.1901,1.4395,1.3031,1.4007,1.6668,1.6786,1.6031,1.5046,1.8052,0.0,0.0,0.0,0.0,0.0,0.0,0.0,0.0,0.0,0.0,0.0,0.0,0.0,1.9399,1.943,1.9386,1.9452,1.9706,1.9987,2.0898,2.4103,2.4622,2.5554,2.9852,3.0488,3.0391,3.1211,3.1387,3.1721,3.2856,3.5446,3.7857,3.9304,4.0874,4.1794,4.1635,0.0,4.14,0.0,0.0,0.0,0.0,0.0,0.0,0.0,0.0,0.0,4.1172,4.1172,4.0996,4.0586,4.0547,4.0351,4.0,3.9922,4.0117,4.0566,4.0137,3.9941,3.9941,3.9902,3.9922,3.9941,3.9902,3.9941,4.0019,4.0371,4.0547,4.0605,4.1016,4.1172,4.1172,4.1172,4.1172,4.123,0.0,0.0,0.0,0.0,0.0,0.0,0.0,0.0,0.0,0.0,0.0,0.0,0.0,0.0,0.0,0.0,0.0,0.0,0.0,0.0,0.9863,0.9896,0.9869,0.9964,1.0276,1.0222,1.0263,1.0412,1.0466,1.0541,1.0629,1.0351,1.1268,1.3337,1.3644,1.4978,1.702,1.702,1.7303,1.7862,1.788,1.8269,0.0,0.0,0.0,0.0,0.0,0.0,0.0,0.0,1.8998,1.9078,1.8958,1.9132,1.943,1.943,1.943,1.9399,1.9506,1.9746,2.0722,2.3873,2.4466,2.5469,2.9871,3.0957,3.1113,3.1445,3.2148,3.3109,3.464,0.0,3.7684,3.9764,4.0167,4.0458,4.0899,0.0,0.0,0.0,0.0,0.0,0.0,0.0,0.0,0.0,0.0,0.0,4.1152,4.1172,4.0976,4.0527,4.0273,4.0059,3.9902,3.9355,3.916,3.9316,3.9141,3.9082,3.9062,3.8789,3.8828,3.9082,3.9082,3.9394,3.9902,4.0059,4.0293,4.0566,4.0996,4.1172,4.1172,4.1172,4.1172,4.123,0.0,0.0,0.0,0.0,0.0,0.0,0.0,0.0,0.0,0.0,0.0,0.0,0.0,0.0,0.0,0.0,0.0,0.0,0.97,0.9822,0.9869,0.9909,0.9836,0.9897,1.0202,1.0161,1.0249,1.0493,1.0493,1.0493,1.05,1.0132,1.1125,1.3125,1.3526,1.5146,1.7554,1.7077,1.7898,1.9389,1.8206,1.8517,0.0,0.0,0.0,0.0,0.0,0.0,0.0,0.0,1.8985,1.9065,1.9065,1.9199,1.943,1.943,1.943,1.943,1.943,1.9506,2.043,2.3722,2.4424,2.556,3.0023,3.1426,3.1875,3.2402,3.2891,3.3539,3.4595,0.0,0.0,0.0,3.8182,3.8424,0.0,0.0,0.0,0.0,0.0,0.0,0.0,0.0,0.0,0.0,0.0,0.0,0.0,4.0918,4.0625,4.0332,3.9902,3.9609,3.9473,3.875,3.8359,3.8359,3.8105,3.8047,3.8164,3.8008,3.8086,3.8379,3.8516,3.8984,3.9687,3.9844,4.0215,4.0762,4.1055,4.1172,4.1172,4.1172,4.1172,4.125,0.0,0.0,0.0,0.0,0.0,0.0,0.0,0.0,0.0,0.0,0.0,0.0,0.0,0.0,0.0,0.0,0.0,0.0,0.9694,0.9815,0.9815,0.9815,0.9686,0.9747,0.9977,0.9897,1.0039,1.0487,1.0487,1.0331,0.9984,0.9984,1.1662,1.4529,1.2672,1.4439,1.8805,1.7216,1.7457,1.8945,1.9239,1.9417,1.9417,0.0,0.0,0.0,0.0,0.0,0.0,0.0,1.9118,1.9417,1.943,1.943,1.943,1.943,1.943,1.943,1.9417,1.9417,2.0224,2.3657,2.448,2.5743,3.0445,3.1855,3.2637,3.4336,3.3672,3.2656,3.2246,3.2519,0.0,3.2793,3.4258,0.0,0.0,0.0,0.0,0.0,0.0,0.0,0.0,0.0,0.0,0.0,0.0,0.0,0.0,4.0351,3.9883,3.9883,3.9434,3.8984,3.8574,3.8125,3.791,3.791,3.707,3.6894,3.7305,3.7734,3.791,3.7949,3.8379,3.8809,3.9238,3.9707,4.041,4.1172,4.1172,4.1172,4.1172,4.1172,4.1172,4.1289,0.0,0.0,0.0,0.0,0.0,0.0,0.0,0.0,0.0,0.0,0.0,0.0,0.0,0.0,0.0,0.0,0.0,0.0,0.948,0.9571,0.951,0.951,0.9578,0.9598,0.9578,0.9741,0.9992,1.0344,1.0127,0.9971,0.9883,0.9788,1.1427,1.4425,1.3761,1.5481,1.8848,1.8186,1.8164,1.8624,1.8718,1.8744,1.8771,0.0,0.0,0.0,0.0,0.0,0.0,0.0,0.0,0.0,1.9305,1.9506,1.9626,1.9484,1.943,1.9319,1.9118,1.9974,2.1445,2.3617,2.5218,2.7244,3.0699,3.1621,3.2187,3.3906,3.3242,3.25,3.2969,3.291,0.0,3.3184,3.3926,0.0,0.0,0.0,0.0,0.0,0.0,0.0,0.0,0.0,0.0,0.0,0.0,0.0,0.0,4.0039,3.9609,3.8984,3.8828,3.8418,3.7676,3.7559,3.7344,3.7031,3.6797,3.6738,3.6855,3.6992,3.7207,3.75,3.793,3.8359,3.8828,3.959,4.041,4.1172,4.1172,4.1172,4.1172,4.1172,4.1172,4.1289,0.0,0.0,0.0,0.0,0.0,0.0,0.0,0.0,0.0,0.0,0.15,0.1141,0.0,0.0,0.0,0.0,0.0,0.0,0.0,0.9462,0.9408,0.9469,0.9503,0.9476,0.9381,0.9612,0.9802,0.9924,0.9856,0.9761,0.9646,0.9618,1.0953,1.3451,1.3965,1.5541,1.7804,1.8279,1.8424,1.833,1.8437,1.849,1.8504,0.0,0.0,0.0,0.0,0.0,0.0,0.0,0.0,0.0,1.896,1.9239,1.9265,1.9212,1.9185,1.9287,1.9834,2.0858,2.2425,2.4727,2.6359,2.8165,3.0895,3.2051,3.2871,0.0,3.3437,3.2812,3.332,3.3086,0.0,0.0,0.0,0.0,0.0,0.0,0.0,0.0,0.0,0.0,0.0,0.0,0.0,0.0,0.0,0.0,0.0,3.9043,3.8691,3.832,3.8164,3.7812,3.7305,3.6953,3.6758,3.666,3.6328,3.625,3.6426,3.6758,3.7051,3.7344,3.8105,3.8574,3.8887,3.9785,4.0449,4.0937,4.1113,4.1172,4.1172,4.1172,4.1172,4.1269,0.0,0.0,0.0,0.0,0.0,0.0,0.0,0.0,0.0,0.0,0.0,0.0,0.0,0.0,0.0,0.0,0.0,0.0,0.0,0.0,0.9408,0.9564,0.9449,0.9388,0.9401,0.9523,0.951,0.9361,0.9632,0.9625,0.9361,0.9517,1.0509,1.2229,1.3558,1.4931,1.6351,1.775,1.821,1.7942,1.829,1.841,1.841,1.8464,0.0,0.0,0.0,0.0,0.0,0.0,0.0,0.0,1.8184,1.8605,1.8584,1.8851,1.8975,1.9482,2.1171,2.2082,2.331,2.654,2.7828,2.8861,3.1032,3.2754,3.4004,3.4394,0.0,3.3418,3.3379,3.3086,0.0,0.0,0.0,0.0,0.0,0.0,0.0,0.0,0.0,0.0,0.0,0.0,0.0,0.0,0.0,0.0,0.0,3.7637,3.7383,3.7676,3.7324,3.7109,3.7051,3.6289,3.6094,3.6484,3.5742,3.5586,3.5996,3.6816,3.7226,3.7363,3.8613,3.916,3.9258,4.0059,4.043,4.0508,4.0937,4.1113,4.1113,4.1152,4.1172,4.125,0.0,0.0,0.0,0.0,0.0,0.0,0.0,0.0,0.0,0.0,0.0,0.0,0.0,0.0,0.0,0.0,0.0,0.0,0.0,0.0,0.9096,0.9303,0.9334,0.9435,0.9557,0.9476,0.9354,0.9262,0.9323,0.9323,0.9262,0.9361,1.0847,1.3348,1.345,1.4878,1.7263,1.7423,1.746,1.742,1.7662,1.7782,1.7836,1.8303,1.837,0.0,0.0,0.0,0.0,0.0,0.0,0.0,1.673,1.7766,1.8838,1.8905,1.9738,2.0776,2.1553,2.3552,2.5743,2.7112,2.91,3.0855,3.1346,3.207,3.2598,3.2695,3.3086,3.332,3.2988,0.0,0.0,0.0,0.0,0.0,0.0,0.0,0.0,0.0,0.0,0.0,0.0,0.0,0.0,0.0,0.0,0.0,3.6601,3.6719,3.6543,3.5957,3.584,3.5625,3.5254,3.5078,3.5019,0.0,3.5312,3.5449,3.5547,3.6055,3.666,3.7344,3.8301,3.8906,3.9219,3.9414,3.9707,4.0078,4.0508,4.0664,4.0703,4.1055,4.1172,4.1289,0.0,0.0,0.0,0.0,0.0,0.0,0.0,0.0,0.0,0.0,0.0,0.0,0.0,0.0,0.0,0.0,0.0,0.0,0.0,0.0,0.0,0.92,0.9357,0.9388,0.9388,0.9313,0.9198,0.9049,0.9049,0.9049,0.9055,0.9279,1.0547,1.259,1.3155,1.4516,1.6499,1.7095,1.7326,1.7233,1.7462,1.7582,1.7622,1.7929,1.805,1.7955,1.7542,0.0,0.0,0.0,0.0,0.0,0.0,0.0,1.8303,1.8408,1.903,1.9871,2.1171,2.3487,2.614,2.8518,0.0,3.1269,3.1465,3.1699,3.1855,3.1855,3.2383,3.2812,0.0,0.0,0.0,0.0,0.0,0.0,0.0,0.0,0.0,0.0,0.0,0.0,0.0,0.0,0.0,0.0,0.0,3.5859,3.541,3.5605,3.543,3.4785,3.4766,3.4648,3.4394,3.4199,3.4297,3.4707,3.4941,3.5273,3.5723,3.6348,3.7109,3.793,3.8379,3.8574,3.8613,3.9043,3.9219,3.9355,4.0195,4.0527,4.0586,4.1016,4.1172,4.1269,0.0,0.0,0.0,0.0,0.0,0.0,0.0,0.0,0.0,0.0,0.0,0.0,0.0,0.0,0.0,0.0,0.0,0.0,0.0,0.0,0.0,0.0,0.9357,0.932,0.9255,0.9221,0.9096,0.8974,0.8974,0.8974,0.8981,0.951,1.0387,1.171,1.3151,1.444,1.557,1.695,1.7393,1.7152,1.7448,1.7582,1.7595,1.7649,1.7796,1.7754,1.652,1.6062,1.6016,1.5969,0.0,0.0,0.0,0.0,1.7649,1.7902,1.8198,1.8808,2.0707,2.3183,2.6075,2.9814,3.084,0.0,3.1328,3.1406,3.1406,3.1406,0.0,0.0,0.0,0.0,0.0,0.0,0.0,0.0,0.0,0.0,0.0,0.0,0.0,0.0,0.0,0.0,0.0,0.0,0.0,3.4609,3.4375,3.4434,3.4277,3.3867,3.3514,3.3328,3.3328,3.2721,3.2931,3.3965,3.4459,3.5156,3.6055,3.6836,3.7617,3.8359,3.8359,3.8184,3.7969,3.8691,3.8769,3.8594,3.9902,4.041,4.0469,4.0976,4.1172,4.125,0.0,0.0,0.0,0.0,0.0,0.0,0.0,0.0,0.0,0.0,0.0,0.0,0.0,0.0,0.0,0.0,0.0,0.0,0.0,0.0,0.0,0.0,0.9357,0.9374,0.9354,0.9275,0.92,0.918,0.918,0.918,0.918,1.0442,1.1757,1.3088,1.4396,1.5527,1.6531,1.705,1.7085,1.6807,1.7368,1.7582,1.7609,1.7876,1.7836,1.7675,1.7674,1.6842,1.5724,1.5545,1.5592,0.0,0.0,0.0,1.7649,1.7902,1.8938,2.0217,2.1133,0.0,2.7633,0.0,3.0586,3.0898,0.0,0.0,3.0976,0.0,0.0,0.0,0.0,0.0,0.0,0.0,0.0,0.0,0.0,0.0,0.0,0.0,0.0,0.0,0.0,0.0,0.0,0.0,3.3867,3.4219,3.3105,3.3398,3.3398,3.2988,3.124,3.027,3.027,2.9107,2.9299,3.1019,3.3493,3.5156,3.6035,3.6523,3.7012,3.7461,3.7461,3.7637,3.793,3.8047,3.8066,3.8144,3.9473,3.998,4.0078,4.0879,4.1172,4.1289,0.0,0.0,0.0,0.0,0.0,0.0,0.0,0.0,0.0,0.0,0.0,0.0,0.0,0.0,0.0,0.0,0.0,0.0,0.0,0.0,0.0,0.0,0.0,0.9096,0.9008,0.894,0.8866,0.8832,0.8832,0.8866,0.9084,1.144,1.2937,1.3674,1.4652,1.5909,1.7181,1.6981,1.6914,1.7045,1.7408,1.7488,1.742,1.7675,1.7595,1.7434,1.7675,1.7342,1.6728,1.6643,1.6693,1.6744,1.6466,0.0,0.0,0.0,1.8053,1.9012,2.1048,2.3747,2.6236,0.0,2.8655,2.9275,2.8367,0.0,0.0,0.0,0.0,0.0,0.0,0.0,0.0,0.0,0.0,0.0,0.0,0.0,0.0,0.0,0.0,0.0,0.0,0.0,0.0,0.0,0.0,3.3144,3.2812,3.2754,3.2131,3.0752,2.9855,2.8888,2.7944,2.7365,2.8277,3.0747,3.2162,3.3842,3.5664,3.5859,3.6445,3.7305,3.7305,3.7402,3.7598,3.7832,3.7244,3.6326,3.7577,3.8063,3.8251,3.9074,4.0099,4.1289,0.0,0.0,0.0,0.0,0.0,0.0,0.0,0.0,0.0,0.0,0.0,0.0,0.0,0.0,0.0,0.0,0.0,0.0,0.0,0.0,0.0,0.0,0.0,0.8825,0.871,0.871,0.8635,0.8479,0.8479,0.8655,0.9043,1.1719,1.3337,1.4131,1.5252,1.635,1.7328,1.6967,1.6941,1.7206,1.7353,1.7326,1.7219,1.7301,1.7221,1.7125,1.742,1.7475,1.7488,1.7555,1.7582,1.7528,1.7286,1.7206,0.0,0.0,0.0,0.0,0.0,0.0,2.413,2.5208,2.6593,2.7354,0.0,0.0,0.0,0.0,0.0,0.0,0.0,0.0,0.0,0.0,0.0,0.0,0.0,0.0,0.0,0.0,0.0,0.0,0.0,0.0,0.0,0.0,0.0,3.2363,3.2461,3.188,3.0823,2.9161,2.8184,2.7074,2.5824,2.5937,2.7118,2.9391,3.068,3.2374,3.4288,3.5034,3.5918,3.6816,3.6934,3.709,3.7254,3.7047,3.6538,3.5871,3.6442,3.7104,3.7825,3.8448,3.9767,4.1289,0.0,0.0,0.0,0.0,0.0,0.0,0.0,0.0,0.0,0.0,0.0,0.0,0.0168,0.0,0.1113,0.3987,0.0,0.0,0.0,0.0,0.0,0.0,0.0,0.0,0.871,0.871,0.8635,0.8479,0.8479,0.8763,0.9193,1.069,1.2552,1.4657,1.6864,1.7423,1.6767,1.7072,1.7192,1.7179,1.686,1.6914,1.7166,1.6847,1.674,1.6767,1.7112,1.7219,1.7259,1.7488,1.7582,1.7528,1.7286,1.7206,1.7152,0.0,0.0,0.0,0.0,2.0985,0.0,2.3671,0.0,0.0,0.0,0.0,0.0,0.0,0.0,0.0,0.0,0.0,0.0,0.0,0.0,0.0,0.0,0.0,0.0,0.0,0.0,0.0,0.0,0.0,0.0,0.0,0.0,3.2422,3.1621,3.048,2.9603,2.9082,2.5724,2.3837,2.3775,2.4139,2.455,2.4978,2.9099,3.1055,3.134,3.4145,3.543,3.5508,3.5918,3.6543,3.7144,3.5259,3.601,3.8321,3.7178,3.8229,4.0393,4.0841,4.1094,4.1289,0.0,0.0,0.0,0.0,0.0,0.0,0.0,0.0,0.0,0.0,0.0,0.0,0.0,0.2908,0.3678,0.5647,0.6735,0.0,0.0,0.0,0.0,0.0,0.0,0.0,0.0,0.8567,0.8445,0.8201,0.8201,0.8377,0.8777,1.0302,1.1916,1.3527,1.5449,1.6914,1.7809,1.7141,1.7088,1.7434,1.6901,1.6767,1.686,1.674,1.67,1.674,1.7099,1.7326,1.7487,1.7542,1.7582,1.7502,1.7021,1.686,1.6847,0.0,0.0,0.0,0.0,0.0,0.0,0.0,0.0,0.0,0.0,0.0,0.0,0.0,0.0,0.0,0.0,0.0,0.0,0.0,0.0,0.0,0.0,0.0,0.0,0.0,0.0,0.0,0.0,0.0,0.0,0.0,0.0,0.0,3.1523,3.0851,2.9467,2.7158,2.5806,2.4101,2.2041,2.2334,2.3207,2.461,2.6354,2.8064,2.959,3.067,3.1414,3.189,3.2014,3.3299,3.5222,3.4558,3.4428,3.4707,3.4693,3.61,3.8208,3.8877,3.9943,4.1289,0.0,0.0,0.0,0.0,0.0,0.0,0.0,0.0,0.0,0.2276,0.0,0.0,0.0,0.0,0.5083,0.6589,0.7999,0.8798,0.8642,0.8635,0.0,0.0,0.0,0.0,0.8486,0.8479,0.8364,0.8119,0.8119,0.8241,0.8531,0.9569,1.0828,1.2351,1.3826,1.5736,1.7836,1.7048,1.6994,1.7382,1.6687,1.6593,1.6847,1.674,1.67,1.6754,1.7206,1.7407,1.7501,1.7555,1.7515,1.7407,1.686,1.6567,1.6446,1.6647,0.0,0.0,1.7969,0.0,0.0,0.0,0.0,0.0,0.0,0.0,0.0,0.0,0.0,0.0,0.0,0.0,0.0,0.0,0.0,0.0,0.0,0.0,0.0,0.0,0.0,0.0,0.0,0.0,0.0,0.0,0.0,0.0,3.1309,3.0127,2.7892,2.4455,2.4332,2.3311,2.1109,2.1309,2.2126,2.3464,2.4455,2.5808,2.7437,2.8457,2.9206,2.9669,2.9917,3.1291,3.3224,3.2497,3.2433,3.2736,3.3425,3.5072,3.7167,3.8545,3.9943,4.1269,0.0,0.0,0.0,0.0,0.0,0.0,0.0,0.0,0.3947,0.2463,0.0,0.0,0.0,0.0,0.0,0.6644,0.7974,0.8648,0.8492,0.8479,0.0,0.0,0.0,0.0,0.8472,0.8479,0.8411,0.8313,0.832,0.8336,0.8465,0.833,0.9377,1.1331,1.2154,1.4067,1.6637,1.6687,1.6874,1.7125,1.6192,1.6366,1.7166,1.682,1.6714,1.6794,1.7368,1.7447,1.7259,1.7488,1.7447,1.7152,1.6794,1.6299,1.5952,1.6526,0.0,0.0,0.0,0.0,0.0,0.0,0.0,0.0,0.0,0.0,0.0,0.0,0.0,0.0,0.0,0.0,0.0,0.0,0.0,0.0,0.0,0.0,0.0,0.0,0.0,0.0,0.0,0.0,0.0,0.0,0.0,3.1309,3.0859,2.8061,2.4875,2.1299,2.1109,2.1109,2.1109,2.1109,2.1109,2.1136,2.3414,2.4545,2.4655,2.7621,2.8998,2.9064,2.9839,3.0546,3.1072,2.921,3.0249,3.3033,3.3508,3.5209,3.7745,4.02,4.1172,4.123,0.0,0.0,0.0,0.0,0.0,0.0,0.0,0.258,0.4352,0.0,0.0,0.0,0.7715,0.7709,0.782,0.8269,0.8624,0.8764,0.8499,0.8479,0.8418,0.8327,0.832,0.834,0.8381,0.8431,0.8357,0.8106,0.8214,0.8235,0.816,0.8119,0.8975,1.0647,1.0901,1.2455,1.5023,1.5986,1.6737,1.7139,1.642,1.6603,1.7166,1.682,1.6834,1.7099,1.7259,1.7407,1.7475,1.7555,1.7447,1.7112,1.6603,1.6286,1.6179,0.0,0.0,1.7112,1.7273,0.0,0.0,0.0,0.0,0.0,1.9319,1.9773,0.0,0.0,0.0,0.0,0.0,0.0,0.0,0.0,0.0,0.0,0.0,0.0,0.0,0.0,0.0,0.0,0.0,0.0,0.0,0.0,3.0996,3.0507,2.9157,2.6161,2.3975,2.2966,2.1727,2.1109,2.1109,2.1109,2.1216,2.1494,2.2312,2.2797,2.3032,2.4114,2.4899,2.5285,2.5527,2.6084,2.6897,2.7938,2.9079,3.0223,3.104,3.3706,3.7131,3.837,3.9864,4.123,0.0,0.0,0.0,0.0,0.0,0.0237,0.0942,0.301,0.4743,0.0,0.0,0.0,0.8892,0.8994,0.9001,0.8892,0.8885,0.8811,0.8499,0.8479,0.8391,0.818,0.8174,0.8228,0.8357,0.8438,0.8397,0.8221,0.8316,0.8248,0.7988,0.7988,0.8478,0.9411,0.9962,1.139,1.3411,1.474,1.5963,1.6965,1.6326,1.6593,1.7353,1.7058,1.7125,1.7393,1.7475,1.7542,1.7582,1.7582,1.7301,0.0,0.0,0.0,0.0,0.0,0.0,1.7233,1.7353,1.7542,0.0,0.0,0.0,0.0,1.9038,1.9412,1.9746,0.0,0.0,0.0,0.0,0.0,0.0,0.0,0.0,0.0,0.0,0.0,0.0,0.0,0.0,0.0,0.0,0.0,0.0,3.0898,3.0898,2.9903,2.7494,2.4962,2.3204,2.2405,2.1532,2.1056,2.0922,2.1042,2.1203,2.1376,2.179,2.2071,2.2258,2.2939,2.3434,2.3781,2.4022,2.4422,2.4991,2.6463,2.7283,2.7937,2.9809,3.1999,3.4446,3.6958,3.8724,3.9981,0.0,0.0,0.0,0.0,0.0,0.0541,0.2244,0.3653,0.5131,0.0,0.8174,0.8939,0.8952,0.9096,0.9103,0.8974,0.8892,0.8811,0.8499,0.8479,0.835,0.8002,0.7988,0.8174,0.8452,0.8459,0.8459,0.8459,0.8459,0.8316,0.7988,0.7988,0.7988,0.8038,0.9262,0.0,1.1999,1.3151,1.485,1.6607,1.6086,1.654,1.7502,0.0,1.7367,1.7569,1.7849,1.7769,1.7528,1.7462,1.7088,0.0,0.0,0.0,0.0,0.0,1.7192,1.73,1.7515,1.7809,1.8062,1.8424,1.849,0.0,1.8811,1.9132,1.9497,0.0,0.0,0.0,0.0,0.0,0.0,0.0,0.0,0.0,0.0,0.0,0.0,0.0,0.0,0.0,0.0,2.9648,3.0645,3.0645,3.0412,2.9043,2.61,2.424,2.2453,2.0703,2.0935,2.0962,2.0681,2.0962,2.1109,2.1122,2.171,2.1991,2.2031,2.3193,2.3741,2.3794,2.4356,2.4609,2.4663,2.4983,2.5438,2.6219,2.8972,3.023,3.1056,3.5828,3.7737,3.8231,0.0,0.0,0.0,0.0,0.0,0.055,0.2221,0.3656,0.5137,0.6851,0.8396,0.934,0.9462,0.9286,0.92,0.9173,0.9008,0.8811,0.8499,0.8479,0.835,0.8002,0.7988,0.8126,0.8361,0.8361,0.8361,0.8361,0.8361,0.8221,0.7988,0.7988,0.7988,0.7988,0.8287,0.9706,1.1901,1.2193,1.3866,1.6353,1.6233,1.6607,1.7286,1.7219,1.7233,1.73,1.7353,1.734,1.7219,1.6737,1.6496,1.6353,0.0,0.0,0.0,1.6754,0.0,0.0,0.0,0.0,0.0,0.0,1.849,0.0,1.8557,1.8985,1.9386,0.0,0.0,0.0,0.0,0.0,0.0,0.0,0.0,0.0,0.0,0.0,0.0,0.0,0.0,0.0,0.0,2.7931,2.892,2.892,2.747,2.633,2.5734,2.2865,2.0985,2.0334,2.0828,2.0962,2.0681,2.0962,2.1109,2.1122,2.171,2.1991,2.2017,2.2979,2.3541,2.3794,2.4142,2.4422,2.4676,2.5211,2.5491,2.5755,2.7023,2.8773,3.0896,3.4146,3.6442,3.8231,0.0,0.0,0.0,0.0,0.0,0.0854,0.3345,0.4196,0.553,0.8087,0.9116,0.9571,0.9503,0.9361,0.9296,0.9214,0.9022,0.8811,0.8499,0.8479,0.835,0.8002,0.7988,0.8113,0.832,0.832,0.832,0.832,0.832,0.8187,0.7988,0.7988,0.7988,0.7988,0.7988,0.9114,1.0974,1.1609,1.3324,1.5593,1.5923,0.0,1.6965,1.6817,1.6857,1.6927,1.6927,1.6927,1.6887,1.6593,1.6393,0.0,1.6446,1.6687,1.6954,0.0,1.7569,1.8009,0.0,0.0,0.0,1.8664,0.0,0.0,0.0,1.8931,1.9185,0.0,0.0,0.0,0.0,0.0,0.0,0.0,0.0,0.0,0.0,0.0,0.0,0.0,0.0,0.0,0.0,2.6288,2.7572,2.8367,2.5894,2.4739,2.5559,2.2471,2.0535,2.018,2.0802,2.0962,2.0681,2.0962,2.1109,2.1122,2.171,2.1991,2.2017,2.3073,2.3634,2.3794,2.4222,2.4583,2.4877,2.517,2.5464,2.5825,2.6707,2.7851,2.9396,3.3257,3.5379,3.6762,0.0,0.0,0.0,0.0,0.0,0.1089,0.4398,0.4771,0.5881,0.9293,0.9761,0.9686,0.9449,0.9401,0.9334,0.9262,0.9015,0.8791,0.854,0.8472,0.8323,0.8002,0.7988,0.8113,0.832,0.8241,0.8241,0.832,0.8241,0.816,0.7988,0.7988,0.8008,0.8035,0.8035,0.8792,1.0153,1.1185,0.0,1.4693,0.0,1.6015,1.6754,1.6473,1.65,1.67,1.6647,1.658,1.654,1.654,1.638,1.6246,1.6593,1.6874,0.0,0.0,0.0,0.0,0.0,0.0,0.0,0.0,0.0,1.8998,0.0,0.0,0.0,0.0,0.0,0.0,0.0,0.0,0.0,0.0,0.0,0.0,0.0,0.0,0.0,0.0,0.0,0.0,0.0,2.4531,2.6006,2.727,2.4591,2.3532,2.487,2.2158,2.0454,2.016,2.0775,2.0962,2.0681,2.0962,2.1109,2.1122,2.171,2.2017,2.2111,2.3247,2.3794,2.3888,2.4409,2.481,2.5077,2.5144,2.5478,2.6117,2.6867,2.7215,2.7894,3.2852,3.4732,3.5298,0.0,0.0,0.0,0.0,0.0,0.0,0.0,0.0,0.5701,0.9013,0.9551,0.9618,0.9585,0.9462,0.9374,0.9354,0.8974,0.0,0.8689,0.8438,0.8221,0.7995,0.7988,0.8113,0.832,0.8133,0.8133,0.832,0.8133,0.8008,0.7988,0.7988,0.8113,0.8241,0.8241,0.9021,1.0381,0.0,1.1979,0.0,1.4248,1.5457,0.0,1.6767,1.6673,1.6673,1.642,1.6152,1.5878,0.0,1.5864,1.5979,0.0,1.6727,1.6914,1.7729,0.0,0.0,0.0,0.0,0.0,0.0,1.9319,0.0,0.0,0.0,1.9252,1.9025,0.0,0.0,0.0,0.0,0.0,0.0,0.0,0.0,0.0,0.0,0.0,0.0,0.0,0.0,0.0,0.0,2.349,2.3672,2.2824,2.2402,2.2577,2.1128,2.0147,1.9853,2.0668,2.0962,2.0681,2.0962,2.1109,2.1122,2.171,2.2124,2.2405,2.334,2.3915,2.4168,2.4489,2.481,2.5104,2.5358,2.5651,2.609,2.6627,2.7028,2.7894,3.2852,3.4732,3.5298,0.0,0.0,0.0,0.0,0.0,0.0,0.0,0.0,0.7988,0.9447,0.9693,0.9768,0.9795,0.9652,0.951,0.951,0.9178,0.8893,0.0,0.0,0.8459,0.8303,0.0,0.8208,0.832,0.8119,0.8022,0.814,0.8022,0.7988,0.7988,0.7988,0.8126,0.832,0.832,0.8653,0.9362,0.0,1.1131,0.0,0.0,0.0,0.0,1.6386,1.646,1.6433,1.6313,1.6086,1.5811,0.0,1.5979,0.0,0.0,0.0,0.0,0.0,0.0,0.0,0.0,0.0,0.0,0.0,0.0,0.0,1.9212,0.0,1.939,0.0,0.0,0.0,0.0,0.0,0.0,0.0,0.0,0.0,0.0,0.0,0.0,0.0,0.0,0.0,0.0,0.0,0.0,0.0,0.0,2.1346,2.2195,2.1106,2.0361,2.0054,2.0735,2.1056,2.0922,2.1042,2.1189,2.1376,2.179,2.2231,2.2699,2.3434,2.3928,2.4222,2.4516,2.4903,2.5344,2.5464,2.5785,2.6266,2.6854,2.7946,2.9638,3.3338,3.546,3.7002,0.1257,0.0916,0.0459,0.0,0.0,0.0,0.0,0.0,0.0,0.9014,0.946,0.0,0.9903,1.0116,0.0,1.0309,1.004,0.9727,0.0,0.0,0.8621,0.0,0.0,0.8289,0.8208,0.814,0.8029,0.7988,0.7988,0.7988,0.7988,0.7988,0.8126,0.8327,0.8361,0.8411,0.86,0.0,1.0331,1.092,1.1622,1.3216,1.5258,1.6071,1.6339,1.6308,1.6179,1.6019,1.5858,1.6072,1.6005,0.0,1.642,0.0,0.0,0.0,0.0,0.0,1.8731,0.0,0.0,0.0,0.0,0.0,0.0,0.0,0.0,0.0,0.0,0.0,0.0,0.0,0.0,0.0,0.0,0.0,0.0,0.0,0.0,0.0,0.0,0.0,0.0,0.0,0.0,2.2219,2.0851,2.0415,2.138,2.0796,2.0374,2.0241,2.0722,2.1029,2.1109,2.1109,2.1256,2.1614,2.1844,2.2298,2.2954,2.3407,2.3848,2.4209,2.4422,2.485,2.5398,2.5478,2.5812,2.6333,2.7001,2.9001,3.168,3.3904,3.604,3.8231,0.4389,0.3174,0.1654,0.0,0.0,0.0,0.0,0.0,0.0,0.0,0.0,0.0,0.0,0.0,0.0,0.0,0.0,1.1427,1.1419,0.0,0.8581,0.0,0.0,0.8343,0.8002,0.8187,0.8187,0.7988,0.7988,0.7988,0.7988,0.7988,0.8126,0.8327,0.8411,0.856,0.871,0.8859,0.965,1.0724,1.0724,1.2287,1.4671,0.0,1.6513,1.6233,1.5952,0.0,0.0,1.5798,1.5784,0.0,0.0,0.0,0.0,0.0,0.0,0.0,0.0,0.0,0.0,1.8865,0.0,0.0,0.0,0.0,1.9452,0.0,0.0,0.0,0.0,0.0,1.9786,1.98,0.0,0.0,0.0,0.0,0.0,0.0,0.0,0.0,0.0,0.0,0.0,2.0301,1.9779,1.9444,1.9488,1.9725,1.9947,2.0167,2.0535,2.0828,2.1109,2.1109,2.1256,2.1614,2.1844,2.2298,2.2941,2.3193,2.3661,2.4209,2.4209,2.4556,2.5117,2.5398,2.5692,2.613,2.6921,2.9954,3.374,3.4468,3.604,3.8231,0.4676,0.5013,0.4495,0.1906,0.0,0.0,0.0,0.4954,0.0,0.0,0.8628,0.0,0.0,1.1277,1.2141,0.0,0.0,1.3345,1.3257,1.1673,0.0,0.0,0.0,0.8689,0.0,0.0,0.8248,0.8194,0.8092,0.7988,0.7988,0.7988,0.8126,0.8327,0.8374,0.8425,0.0,0.0,0.0,0.0,0.0,1.138,1.2235,0.0,0.0,1.6281,1.5939,1.5784,0.0,1.5784,1.5784,1.5885,1.6179,1.6473,1.682,1.7408,1.7662,0.0,0.0,0.0,1.8209,1.8557,0.0,0.0,0.0,0.0,0.0,0.0,0.0,0.0,0.0,0.0,1.98,1.98,1.9559,0.0,0.0,0.0,0.0,0.0,0.0,0.0,0.0,0.0,0.0,1.996,1.976,1.9653,1.9653,2.012,2.0428,2.0521,2.0802,2.1002,2.1109,2.1109,2.1256,2.1614,2.1844,2.2298,2.2941,2.318,2.3541,2.3928,2.4115,2.4422,2.4823,2.5317,2.5692,2.6026,2.6707,2.9762,3.3897,3.4468,3.7002,4.0197,0.6431,0.7153,0.0,0.0,0.0,0.0,0.0,0.0,0.0,0.0,0.8696,0.0,0.9957,0.0,1.3075,0.0,1.3976,1.4402,1.4225,1.2223,0.0,1.058,0.948,0.8818,0.0,0.0,0.0,0.0,0.8147,0.8092,0.7988,0.7988,0.8092,0.8187,0.8248,0.835,0.8492,0.8648,0.8743,0.0,0.0,1.0425,0.0,0.0,1.4173,1.5537,0.0,1.5784,1.5784,1.5784,1.5784,1.5858,1.6059,1.6313,1.6647,1.7128,1.7275,1.7408,1.8009,1.7956,0.0,1.8237,1.833,0.0,1.8838,0.0,0.0,0.0,0.0,0.0,0.0,0.0,0.0,1.9813,1.9559,0.0,0.0,1.943,0.0,0.0,0.0,0.0,0.0,0.0,2.0,1.9813,1.9706,1.9639,0.0,0.0,2.0307,2.0508,2.0695,2.0895,2.1109,2.1109,2.1256,2.1614,2.1844,2.2231,2.2712,2.302,2.338,2.3781,2.3968,2.4275,2.4676,2.5277,2.5625,2.5865,2.656,2.9659,3.388,3.4319,3.7373,4.1172,0.9449,0.9272,0.0,0.0,0.1149,0.0,0.0,0.0,0.5362,0.0,0.8712,0.972,0.9943,1.2682,1.45,1.464,1.466,1.4567,1.4412,1.1492,0.0,0.0,0.896,0.8757,0.8316,0.0,0.0,0.0,0.0,0.818,0.7988,0.7988,0.7988,0.7995,0.8201,0.0,0.8479,0.8642,0.8798,0.8885,0.8871,0.9446,1.0316,1.0587,1.2029,1.4089,1.5268,1.5689,1.5737,1.5784,1.5784,1.5784,1.5784,1.6032,1.6326,1.6607,1.67,1.6834,1.7408,1.7393,1.7326,1.7876,0.0,0.0,0.0,0.0,1.9158,0.0,0.0,0.0,0.0,0.0,0.0,0.0,0.0,0.0,0.0,0.0,0.0,0.0,0.0,0.0,0.0,2.0134,1.9786,1.9773,1.9519,1.943,0.0,0.0,1.9666,2.0241,2.0267,2.0548,2.1109,2.1109,2.1256,2.1601,2.183,2.2111,2.2405,2.2699,2.318,2.3754,2.3768,2.4088,2.4663,2.5264,2.5518,2.5598,2.6559,2.9833,3.4037,3.4405,3.7335,4.1172,0.9585,0.7638,0.5641,0.0,0.185,0.0579,0.0,0.0,0.0,0.0,0.8702,0.968,0.9863,1.1647,1.2835,1.2879,1.3913,0.0,0.0,0.0,0.0,1.1094,0.9888,0.911,0.8777,0.8581,0.0,0.837,0.0,0.8029,0.7988,0.7988,0.7988,0.7995,0.0,0.0,0.8395,0.8601,0.8798,0.8871,0.8811,0.8878,0.0,0.0,1.0696,1.1504,1.3747,1.4485,1.4507,1.5486,1.5784,1.5784,1.5784,1.6032,1.6286,1.6366,1.654,1.678,1.7206,1.7048,1.6967,1.7555,1.7542,1.7595,0.0,0.0,0.0,0.0,0.0,0.0,0.0,0.0,0.0,0.0,0.0,0.0,0.0,0.0,0.0,2.0094,0.0,0.0,0.0,1.9893,1.9706,1.9492,1.947,1.9466,0.0,0.0,0.0,2.0548,2.0775,2.0949,2.1109,2.1109,2.1149,2.1229,2.1523,2.1817,2.2111,2.2405,2.2859,2.3447,2.3674,2.3981,2.4382,2.5184,2.5518,2.5751,2.8254,3.2236,3.6802,3.8743,4.0179,4.1172,0.972,0.0,0.0,0.5759,0.0,0.0,0.342,0.4791,0.0,0.8113,0.9114,0.0,0.972,1.1214,1.2217,1.2217,1.3048,0.0,1.3526,0.0,0.0,1.0771,0.9831,0.9144,0.8845,0.8608,0.0,0.8391,0.0,0.0,0.7988,0.7988,0.7988,0.7995,0.0,0.8241,0.0,0.8682,0.8804,0.8878,0.879,0.0,0.0,0.9324,0.9394,0.9511,1.1635,1.2664,1.3151,1.3836,1.4076,1.4172,1.4806,1.5111,1.5409,1.6087,1.6299,1.642,1.6834,1.6834,1.682,1.7275,1.742,1.7594,1.8317,1.849,1.8784,0.0,0.0,0.0,0.0,0.0,0.0,0.0,0.0,0.0,0.0,0.0,0.0,0.0,2.0094,0.0,0.0,1.9679,1.9546,1.943,1.943,0.0,0.0,0.0,0.0,2.0468,2.0895,2.1109,2.1109,2.1243,2.1243,2.1109,2.1537,2.183,2.2004,2.2418,2.2939,2.3527,2.3701,2.4088,2.4636,2.5251,2.5585,2.6094,3.0154,3.4099,3.7764,4.0278,4.1172,4.1172,0.9822,0.0,0.0,0.0,0.0,0.0,0.0,0.6321,0.0,0.9394,0.0,0.9639,0.9639,1.0996,1.1916,1.1916,0.0,1.1916,1.1916,1.0604,0.9686,0.9395,0.9309,0.9035,0.8716,0.856,0.8411,0.0,0.0,0.8174,0.7988,0.7988,0.0,0.0,0.0,0.0,0.0,0.8818,0.8885,0.0,0.8865,0.8737,0.8492,0.8608,0.8397,0.8151,0.9477,1.0667,1.1707,1.1853,1.1901,1.2145,1.3488,1.392,1.4208,1.5787,1.6032,1.5904,1.654,1.6673,1.674,1.7166,1.7447,1.7742,1.8357,1.8517,1.8784,1.9626,2.0027,2.018,0.0,0.0,0.0,0.0,0.0,0.0,0.0,0.0,0.0,0.0,0.0,0.0,0.0,0.0,1.947,1.943,1.943,0.0,0.0,0.0,0.0,2.0167,2.0762,0.0,2.1229,0.0,2.1403,2.1229,2.167,2.1911,2.2004,2.2512,2.3126,2.3768,2.3768,2.4262,2.5104,2.5398,2.5899,2.7047,3.1936,3.5374,3.7837,4.0297,4.1172,4.1172,0.9822,0.0,0.0,0.0,0.0,0.6987,0.6967,0.7271,0.8066,0.9539,0.9781,0.9781,0.9781,1.0044,1.024,1.024,1.024,0.0,0.0,0.0,0.0,0.9395,0.9354,0.9144,0.8716,0.856,0.8411,0.0,0.0,0.8015,0.7988,0.7988,0.0,0.0,0.0,0.0,0.8682,0.8811,0.0,0.8871,0.8804,0.8642,0.8472,0.8384,0.8221,0.8045,0.8314,0.9236,1.0485,1.156,1.1901,1.2145,1.3488,1.392,1.4172,1.5504,1.5872,1.5904,1.654,1.6526,1.6589,1.7367,1.7542,1.7742,1.8357,1.8677,1.9025,1.9666,2.0027,2.0307,2.0548,0.0,0.0,0.0,0.0,0.0,0.0,0.0,0.0,0.0,0.0,0.0,0.0,0.0,0.0,0.0,0.0,0.0,0.0,0.0,0.0,0.0,2.0575,0.0,0.0,0.0,2.1403,2.183,2.1443,2.1523,2.1991,2.2098,2.2739,2.3768,2.3768,2.4262,2.5104,2.5398,2.717,2.9972,3.2953,3.5674,3.8122,4.0412,4.1172,4.1172,0.0,0.0,0.0,0.0,0.0,0.0,0.0,0.695,0.0,0.9486,0.9713,0.9713,0.9713,0.9774,0.9822,0.9822,0.9822,0.9822,0.9822,0.9754,0.9612,0.9388,0.9306,0.0,0.8716,0.856,0.8411,0.832,0.0,0.7988,0.7988,0.7988,0.0,0.0,0.0,0.8391,0.0,0.0,0.0,0.8878,0.8804,0.8689,0.8472,0.8404,0.8235,0.7988,0.7988,0.8435,0.9065,0.9657,0.9895,1.0092,1.1453,1.2328,1.3102,1.4411,1.5296,1.5878,1.6366,1.6486,1.6673,1.7395,1.7702,1.7983,1.8584,1.8824,1.9052,1.9479,1.992,2.0374,2.0815,2.0895,0.0,0.0,0.0,0.0,0.0,0.0,0.0,0.0,0.0,0.0,0.0,0.0,0.0,0.0,0.0,0.0,0.0,0.0,0.0,0.0,0.0,0.0,0.0,0.0,0.0,2.1991,2.1857,2.1937,2.2218,2.2365,2.2926,2.3768,2.3768,2.4356,2.5344,2.5945,2.7843,3.0771,3.3258,3.5697,3.8152,4.0353,4.1172,4.1172,0.0,0.9524,0.0,0.0,0.695,0.0,0.5122,0.6434,0.7926,0.9014,0.9413,0.9652,0.9652,0.9754,0.9822,0.9822,0.9822,0.9808,0.9781,0.9673,0.953,0.934,0.9275,0.9057,0.8669,0.8547,0.8397,0.0,0.0,0.0,0.7988,0.7988,0.7988,0.0,0.0,0.0,0.0,0.0,0.8825,0.8885,0.8885,0.8777,0.8526,0.8492,0.8316,0.8035,0.8002,0.7988,0.7988,0.7988,0.7988,0.8237,0.9558,1.0681,1.1755,1.3102,1.4172,1.5121,1.582,1.6117,1.6531,1.7383,1.7862,1.8209,1.8731,1.8931,1.9078,1.9377,1.9773,2.0294,2.0828,2.0975,0.0,0.0,0.0,0.0,0.0,0.0,0.0,0.0,0.0,0.0,0.0,0.0,0.0,0.0,0.0,1.943,1.943,1.9586,0.0,0.0,0.0,2.1189,2.1737,0.0,2.1897,0.0,2.2178,2.2271,2.2338,2.2699,2.3263,2.3781,2.3901,2.4583,2.5678,2.656,2.8078,3.0144,3.3098,3.5526,3.7578,4.0197,4.1172,4.1172,0.0,0.0,0.0,0.0,0.0,0.0,0.4926,0.6337,0.749,0.7591,0.8878,0.9802,0.9802,0.9815,0.9822,0.9822,0.9822,0.9768,0.9639,0.9618,0.9483,0.9241,0.9214,0.9002,0.8513,0.8486,0.8343,0.0,0.0,0.0,0.0,0.7988,0.0,0.0,0.0,0.0,0.0,0.8791,0.8871,0.8885,0.8885,0.8838,0.8676,0.8533,0.8384,0.8228,0.8092,0.7988,0.7988,0.7988,0.7988,0.8237,0.9558,1.01,1.0435,1.1697,1.2193,1.2677,1.4421,1.4939,1.5389,1.716,1.8023,1.8464,1.8517,1.8945,1.9332,1.9417,1.9626,1.9933,2.0254,2.0535,2.0722,0.0,0.0,0.0,0.0,0.0,0.0,0.0,0.0,0.0,0.0,1.9813,0.0,0.0,1.943,1.943,1.943,1.9399,1.9666,2.0153,0.0,2.0962,2.2325,2.1577,2.159,2.2378,2.1871,2.1777,2.2044,2.2605,2.3263,2.3794,2.4329,2.5077,2.5985,2.6867,2.7405,2.803,3.2804,3.4797,3.546,3.9707,4.1172,4.1172,0.0,0.0,0.0,0.0,0.0,0.0,0.0,0.4203,0.5896,0.5896,0.816,0.9822,0.9822,0.9822,0.9788,0.97,0.9774,0.972,0.949,0.9469,0.9374,0.9221,0.9069,0.8852,0.8492,0.8479,0.8336,0.0,0.0,0.0,0.0,0.0,0.0,0.0,0.0,0.8452,0.8628,0.875,0.8797,0.8885,0.8885,0.8845,0.8703,0.8642,0.8526,0.8391,0.833,0.8248,0.8187,0.8275,0.8248,0.8261,0.8663,0.9432,1.0187,1.0618,1.1317,1.2335,1.4256,1.48,1.5273,1.7344,1.8183,1.8544,1.8704,1.9065,1.943,1.943,1.9599,1.9893,2.0174,2.0334,2.0414,0.0,0.0,0.0,0.0,0.0,0.0,0.0,0.0,0.0,0.0,0.0,0.0,0.0,0.0,0.0,1.943,1.943,0.0,2.0153,0.0,2.0775,2.1884,2.155,2.1724,2.2418,2.2178,2.2231,2.2525,2.2752,2.3263,2.3821,2.4756,2.5358,2.5849,2.8227,2.9243,2.969,3.4692,3.6602,3.7002,4.0099,4.1172,4.1172,0.7443,0.0,0.5879,0.0,0.1748,0.1361,0.0188,0.2789,0.4916,0.4916,0.7734,0.9822,0.9822,0.9781,0.9734,0.968,0.9686,0.9605,0.9395,0.934,0.9245,0.9096,0.8947,0.0,0.8486,0.8438,0.8296,0.7988,0.7988,0.0,0.0,0.0,0.0,0.0,0.8364,0.8513,0.8716,0.8757,0.8838,0.8885,0.8885,0.8817,0.8771,0.873,0.8374,0.7899,0.7861,0.7519,0.7142,0.7654,0.7811,0.7794,0.8062,0.8809,0.9641,0.953,1.0094,1.1157,1.3084,1.3874,1.4733,1.6832,1.7869,1.8464,1.8838,1.9092,1.9265,1.9403,1.9533,1.9733,1.9947,2.0054,2.0107,2.0107,0.0,0.0,0.0,0.0,0.0,0.0,2.0054,1.9773,1.9679,1.9492,0.0,0.0,0.0,0.0,0.0,0.0,0.0,0.0,0.0,0.0,0.0,2.1534,2.171,2.2298,2.2298,2.2445,2.2739,2.3006,2.35,2.4209,2.5117,2.5864,2.678,2.9374,3.09,3.1824,3.6226,3.7896,3.8152,4.0353,4.1172,4.1172,0.5835,0.5318,0.4304,0.0645,0.0,0.0,0.0,0.277,0.4916,0.4916,0.7734,0.9822,0.9822,0.9693,0.9666,0.9808,0.9551,0.9388,0.9381,0.9296,0.9089,0.0,0.0,0.8642,0.8486,0.8343,0.8194,0.7988,0.0,0.0,0.7995,0.0,0.832,0.8333,0.8574,0.871,0.8723,0.8817,0.8885,0.8885,0.8885,0.8885,0.8865,0.8771,0.778,0.6511,0.6399,0.5352,0.4291,0.5826,0.6435,0.6775,0.8098,0.8436,0.832,0.832,0.8211,0.845,1.0236,1.1775,1.334,1.5395,1.698,1.8155,1.8741,1.8931,1.9011,1.9305,1.943,1.943,1.943,1.9613,1.98,1.98,0.0,0.0,0.0,0.0,0.0,0.0,1.98,1.9693,1.9457,0.0,0.0,0.0,0.0,0.0,0.0,0.0,0.0,2.0167,2.0521,0.0,2.1614,2.1256,2.1403,2.1991,2.1991,2.2151,2.2458,2.3354,2.4235,2.5077,2.5384,2.6801,2.903,3.0096,3.1682,3.388,3.6782,3.7896,3.8152,4.0353,4.1172,4.1172,0.5791,0.5098,0.3992,0.0563,0.0,0.0,0.0,0.1848,0.3262,0.3262,0.6137,0.8127,0.7987,0.897,0.9585,0.0,0.9435,0.9293,0.0,0.9123,0.9089,0.8892,0.8791,0.8635,0.8486,0.8395,0.8194,0.7988,0.0,0.0,0.0,0.8092,0.8221,0.8418,0.8513,0.8669,0.8811,0.8865,0.8885,0.8871,0.8825,0.879,0.8865,0.8771,0.7841,0.6644,0.6603,0.5506,0.4381,0.6018,0.6562,0.6753,0.8282,0.8689,0.8554,0.8445,0.8377,0.8688,1.0355,1.1151,1.1947,1.3795,1.4722,1.5547,1.6972,1.8307,1.9252,1.9403,1.943,1.943,1.943,1.9439,1.9506,1.9506,1.9746,0.0,0.0,0.0,0.0,0.0,1.9626,1.9546,0.0,1.9479,0.0,0.0,0.0,0.0,0.0,0.0,0.0,0.0,2.0708,0.0,2.1256,2.155,2.1804,2.1991,2.2191,2.2552,2.306,2.3754,2.4222,2.4516,2.5211,2.6752,2.8943,3.1636,3.3971,3.6082,3.8978,4.0178,4.0275,4.0919,4.1172,4.1172,0.5647,0.4988,0.3905,0.056,0.0,0.0,0.0,0.1418,0.2524,0.2524,0.479,0.642,0.6301,0.7165,0.0,0.9359,0.9361,0.9239,0.9117,0.9083,0.9008,0.8859,0.871,0.8554,0.8404,0.0,0.0,0.7988,0.7988,0.7988,0.7988,0.8099,0.8228,0.8411,0.852,0.8676,0.8804,0.8858,0.8885,0.8871,0.8832,0.8818,0.8797,0.8811,0.7494,0.5757,0.5853,0.4495,0.2866,0.445,0.532,0.6001,0.7569,0.8372,0.8764,0.8615,0.8526,0.8723,0.9777,1.0457,1.1201,1.2543,1.3321,1.4051,1.5336,1.7134,1.8519,1.8519,1.901,1.943,1.943,1.943,1.943,1.943,1.9519,1.9639,1.9639,0.0,0.0,0.0,0.0,0.0,0.0,1.9733,1.972,0.0,0.0,0.0,0.0,0.0,0.0,2.0548,2.1029,0.0,2.1443,2.1804,2.2044,2.2151,2.2565,2.3073,2.3674,2.4035,2.4262,2.4409,2.5184,2.715,2.9915,3.2675,3.5469,3.8156,4.0357,4.1172,4.1172,4.1172,4.1172,4.1172,0.5702,0.5077,0.0,0.0,0.0062,0.0,0.0,0.1295,0.2339,0.2339,0.3751,0.4732,0.4726,0.473,0.5949,0.9004,0.0,0.0,0.0,0.8927,0.8756,0.8716,0.8567,0.8418,0.8327,0.8313,0.818,0.7988,0.7988,0.7988,0.7995,0.8187,0.832,0.8347,0.8574,0.871,0.8737,0.8824,0.8885,0.8885,0.8871,0.8845,0.8743,0.8817,0.7013,0.4371,0.4446,0.2628,0.0336,0.1733,0.324,0.4749,0.6255,0.7709,0.8858,0.8771,0.8628,0.8547,0.8689,0.9731,1.092,1.1475,1.2513,1.3499,1.3953,1.5492,1.6844,1.6962,1.8169,1.9243,1.9372,1.943,1.943,1.943,1.943,1.943,1.943,0.0,0.0,0.0,0.0,0.0,0.0,2.0067,2.0134,0.0,0.0,0.0,0.0,0.0,2.0855,2.1096,2.1443,2.1802,2.1977,2.2031,2.2191,2.2485,2.31,2.3674,2.4209,2.4222,2.4382,2.4589,2.5251,2.7801,3.1679,3.3215,3.6184,3.998,4.084,4.1172,4.1172,4.1172,4.1172,4.1172,0.0,0.0,0.4327,0.229,0.0866,0.0,0.0,0.0308,0.0617,0.0617,0.2033,0.3001,0.2845,0.4015,0.5108,0.5829,0.571,0.6127,0.7241,0.7281,0.7651,0.8662,0.8567,0.8418,0.8327,0.8153,0.8029,0.7988,0.7988,0.7988,0.7988,0.8029,0.8214,0.8431,0.8506,0.8669,0.8831,0.8865,0.8885,0.8871,0.8811,0.8811,0.8817,0.8798,0.7653,0.5941,0.4908,0.3296,0.1733,0.2068,0.324,0.4749,0.6255,0.7709,0.8878,0.8838,0.8804,0.8838,0.8817,0.9099,0.9452,0.9867,1.1261,1.2572,1.266,1.3965,1.5548,1.6727,1.7325,1.7923,1.9185,1.943,1.943,1.943,1.943,1.943,1.943,1.943,0.0,0.0,1.9626,1.988,2.0107,2.0127,2.0294,0.0,0.0,0.0,0.0,2.1092,2.1269,2.1109,2.183,2.2138,2.1991,2.2432,2.2806,2.3113,2.3714,2.4062,2.4209,2.4436,2.4569,2.4589,2.5251,2.7801,3.1679,3.3215,3.6184,3.998,4.084,4.1172,4.1172,4.1172,4.1172,4.1172,0.7819,0.6798,0.5434,0.296,0.1796,0.0932,0.0124,0.0,0.0,0.0,0.0802,0.129,0.1219,0.2083,0.2637,0.2555,0.3801,0.4955,0.5726,0.5751,0.6287,0.7535,0.751,0.7696,0.8167,0.8153,0.8147,0.8147,0.8022,0.7988,0.7988,0.7988,0.816,0.8391,0.8452,0.8615,0.8838,0.8851,0.8885,0.8878,0.8845,0.8825,0.8832,0.8818,0.7883,0.6518,0.5793,0.4526,0.3134,0.2425,0.3221,0.4637,0.5524,0.676,0.8083,0.8891,0.9042,0.8885,0.8885,0.8988,0.911,0.9408,1.0301,1.108,1.108,1.2337,1.3765,1.4648,1.5961,1.7267,1.8156,1.8881,1.943,1.943,1.943,1.943,1.943,1.943,0.0,1.9546,1.9826,2.0107,2.0401,2.0561,2.0641,2.0668,2.0802,0.0,2.0681,2.1363,2.1683,2.151,2.2098,2.2405,2.2392,2.2846,2.3233,2.3527,2.3995,2.4275,2.4409,2.4569,2.4636,2.4589,2.5251,2.7964,3.2002,3.3282,3.635,4.0254,4.0918,4.1172,4.1172,4.1172,4.1172,4.1172,0.7572,0.7063,0.6049,0.3041,0.2376,0.1761,0.0248,0.0,0.0,0.0,0.0,0.0,0.0,0.0,0.0,0.0,0.2437,0.4067,0.4285,0.4213,0.4697,0.5951,0.5989,0.6412,0.7391,0.7554,0.7769,0.7973,0.7818,0.7872,0.8022,0.8049,0.8187,0.8343,0.8465,0.8601,0.875,0.8831,0.8885,0.8885,0.8885,0.8804,0.8757,0.8838,0.8023,0.6844,0.674,0.5772,0.4273,0.2746,0.3102,0.4144,0.426,0.5454,0.7018,0.8582,0.897,0.8952,0.8952,0.911,0.9344,0.9544,0.9713,0.9822,0.9822,1.0838,1.1916,1.2157,1.4351,1.6433,1.6903,1.811,1.9127,1.9372,1.943,1.943,1.943,0.0,1.9479,1.976,2.0054,2.0347,2.0641,2.0935,2.1002,2.0762,2.0962,2.1015,2.0815,2.1563,2.2004,2.2044,2.2338,2.2605,2.2928,2.322,2.3514,2.3768,2.4115,2.4396,2.4636,2.4636,2.4663,2.473,2.5277,2.7944,3.1975,3.3227,3.6241,4.0086,4.0919,4.1172,4.1172,4.1172,4.1172,4.1172,0.568,0.4232,0.3132,0.2581,0.1336,0.032,0.0063,0.0,0.0,0.0,0.0,0.0,0.0,0.0,0.0,0.0,0.0434,0.1274,0.2529,0.2543,0.3136,0.4464,0.4506,0.4534,0.4622,0.463,0.5244,0.6358,0.6484,0.7145,0.8235,0.8357,0.8492,0.8642,0.8662,0.8757,0.8851,0.8871,0.8885,0.8885,0.8885,0.8871,0.8851,0.8871,0.8754,0.8361,0.7247,0.5869,0.4287,0.2907,0.2515,0.2573,0.2581,0.4564,0.6948,0.7201,0.8235,0.9313,0.9313,0.9422,0.9551,0.9598,0.9713,0.9822,0.9822,0.9997,1.0543,1.1916,1.2569,1.3756,1.6492,1.7208,1.7806,1.9185,1.943,1.943,1.943,0.0,1.9479,1.976,2.0054,2.0347,2.0641,2.0935,2.1096,2.1042,2.1082,2.1203,2.1467,2.1777,2.2098,2.2338,2.2632,2.2887,2.2928,2.342,2.3728,2.3781,2.4315,2.4596,2.4636,2.4636,2.477,2.5037,2.5371,2.7171,3.0037,3.2703,3.5383,3.7998,4.0278,4.1172,4.1172,4.1172,4.1172,4.1172,0.5195,0.4512,0.3723,0.2685,0.1935,0.1103,0.0128,0.0,0.0,0.0,0.0,0.0,0.0,0.0,0.0,0.0,0.0,0.0307,0.0944,0.0993,0.1593,0.2968,0.2988,0.3302,0.3977,0.3974,0.4303,0.4914,0.5836,0.6594,0.7229,0.8079,0.8567,0.871,0.871,0.8798,0.8885,0.8885,0.8885,0.8885,0.8885,0.8885,0.8892,0.9022,0.9055,0.9013,0.847,0.7185,0.5578,0.4136,0.3032,0.2203,0.2344,0.3888,0.5886,0.6891,0.8254,0.9401,0.9483,0.9557,0.9625,0.9707,0.9774,0.9822,0.9822,0.9822,1.0004,1.0778,1.1615,1.2664,1.4209,1.5157,1.6287,1.8128,1.8239,0.0,0.0,1.9599,1.9706,2.0,2.0294,2.0588,2.0882,2.1029,2.1109,2.1109,2.1109,2.1162,2.1309,2.1737,2.2044,2.2178,2.2619,2.2928,2.2928,2.346,2.3768,2.3781,2.4356,2.4716,2.4863,2.4716,2.489,2.5331,2.5625,2.7297,2.9919,3.1602,3.364,3.5729,3.6948,3.7432,3.7589,3.8803,3.9265,3.9453,0.4031,0.406,0.3661,0.2207,0.2029,0.1579,0.0195,0.0,0.0,0.0,0.0,0.0,0.0,0.0,0.0,0.0,0.0,0.0,0.0,0.0,0.0461,0.1478,0.1557,0.2007,0.3067,0.3067,0.3244,0.3554,0.5112,0.6023,0.6399,0.7871,0.8648,0.8764,0.8764,0.8825,0.8885,0.8885,0.8885,0.8885,0.8885,0.8905,0.9001,0.9166,0.9234,0.9282,0.9381,0.8131,0.6201,0.5103,0.3384,0.1758,0.2331,0.3539,0.5079,0.6906,0.8408,0.9557,0.9639,0.9659,0.9686,0.9795,0.9849,0.9876,0.9876,0.9903,0.9924,0.9924,1.0897,1.1906,1.2353,1.3414,1.4801,1.6686,0.0,0.0,0.0,1.9655,2.0013,2.0294,2.0535,2.0788,2.1082,2.1109,2.1109,2.1109,2.1109,2.1162,2.1309,2.1737,2.2044,2.2191,2.2632,2.2899,2.2966,2.35,2.3808,2.3875,2.4396,2.4796,2.5077,2.4836,2.5064,2.5625,2.5932,2.7342,2.9433,3.0474,3.183,3.3433,3.3895,3.415,3.4309,3.6071,3.6851,3.7038,0.067,0.0403,0.0335,0.0198,0.02,0.0134,0.0,0.0,0.0,0.0,0.0,0.0,0.0,0.0,0.0,0.0,0.0,0.0,0.0,0.0,0.0058,0.0165,0.0161,0.0213,0.0266,0.0319,0.0904,0.2126,0.3829,0.5272,0.6521,0.812,0.8858,0.8865,0.8865,0.8871,0.8885,0.8885,0.8885,0.8885,0.8885,0.9022,0.9193,0.9207,0.9296,0.9388,0.9537,0.7546,0.4864,0.4882,0.2766,0.0431,0.2031,0.3625,0.5215,0.693,0.8602,0.9909,0.9842,0.9802,0.9808,0.9822,0.9869,0.997,0.997,1.0141,1.0249,1.0249,1.0369,1.0876,1.2373,1.2795,1.3358,1.4935,0.0,0.0,1.7713,1.9143,2.0307,2.0615,2.0655,2.0788,2.1082,2.1109,2.1109,2.1109,2.1109,2.1349,2.1884,2.1964,2.2231,2.2847,2.2914,2.3006,2.3287,2.3607,2.3901,2.4168,2.4489,2.4796,2.5077,2.5064,2.5371,2.5945,2.6226,2.6613,2.7229,2.961,3.061,3.1011,3.306,3.3847,3.3897,3.4309,3.4442,3.4509,0.0134,0.0,0.0,0.0,0.0,0.0,0.0,0.0,0.0,0.0,0.0,0.0,0.0,0.0,0.0,0.0,0.0,0.0,0.0,0.0,0.0,0.0,0.0,0.0,0.0,0.0,0.0272,0.077,0.2319,0.3319,0.3871,0.5456,0.6644,0.7537,0.7537,0.8042,0.8885,0.8885,0.8885,0.8892,0.9035,0.9103,0.9228,0.9361,0.9469,0.9426,0.8534,0.6756,0.4696,0.3743,0.191,0.0309,0.2054,0.374,0.5551,0.8369,0.9638,1.0181,1.012,1.0107,1.0107,1.0107,1.0148,1.0195,1.0195,1.0236,1.0283,1.0283,1.0283,1.0495,1.1212,1.128,1.1782,1.3649,0.0,1.6611,1.7774,1.9434,2.0548,2.0655,2.0842,2.0989,2.1096,2.1109,2.1109,2.1109,2.1109,2.1203,2.143,2.179,2.2258,2.2914,2.2928,2.2926,2.3033,2.3527,2.3821,2.3941,2.4596,2.5064,2.5344,2.5344,2.5665,2.6226,2.6346,2.656,2.6921,2.8013,2.8417,2.8316,2.9102,2.9617,2.9968,3.1358,3.2133,3.2441,0.0,0.0,0.0,0.0,0.0,0.0,0.0,0.0,0.0,0.0,0.0,0.0,0.0,0.0,0.0,0.0,0.0,0.0,0.0,0.0,0.0,0.0,0.0,0.0,0.0,0.0,0.0,0.0,0.1466,0.2191,0.2235,0.3798,0.5027,0.6033,0.6512,0.7293,0.8269,0.8765,0.8981,0.8898,0.9096,0.9234,0.9309,0.951,0.9639,0.9447,0.7944,0.632,0.4671,0.3016,0.136,0.0311,0.2071,0.4159,0.6467,0.9461,1.0344,1.0358,1.0405,1.0419,1.0399,1.0304,1.0317,1.0344,1.0344,1.0385,1.0419,1.0419,1.0419,1.0446,1.0548,1.0487,1.0869,1.225,1.3684,1.5319,1.7133,1.8884,2.0227,2.0753,2.0989,2.1109,2.1109,2.1109,2.1109,2.1109,2.1189,2.1323,2.151,2.1897,2.2352,2.2846,2.2928,2.2928,2.2928,2.346,2.3821,2.3915,2.4703,2.5237,2.5518,2.5611,2.5919,2.6386,2.6493,2.6587,2.6707,2.7001,2.7001,2.6827,2.6827,2.7001,2.7513,2.9034,2.9905,3.0281,0.0,0.0,0.0,0.0,0.0,0.0,0.0,0.0,0.0,0.0,0.0,0.0,0.0,0.0,0.0,0.0,0.0,0.0,0.0,0.0,0.0,0.0,0.0,0.0,0.0,0.0,0.0,0.0,0.1492,0.2159,0.2235,0.3745,0.4474,0.4533,0.6134,0.6802,0.6765,0.8464,0.9069,0.8898,0.9096,0.9303,0.9401,0.9551,0.97,0.9572,0.7972,0.6324,0.461,0.3016,0.137,0.0316,0.2018,0.489,0.798,0.9929,1.0493,1.0527,1.0677,1.0717,1.0649,1.0358,1.0392,1.0493,1.0493,1.0609,1.0717,1.0717,1.0724,1.0724,1.0717,1.0724,1.0724,1.0717,1.2157,1.3905,1.5654,1.7409,1.9152,2.0843,2.1109,2.1109,2.1109,2.1109,2.1109,2.1109,2.139,2.1804,2.2392,2.2418,2.2552,2.2914,2.2928,2.2928,2.2873,2.3474,2.3915,2.4209,2.4796,2.5237,2.5518,2.5825,2.6119,2.64,2.6694,2.6653,2.6413,2.6694,2.6814,2.6827,2.6827,2.7001,2.7308,2.7589,2.7696,2.7749,0.0,0.0,0.0,0.0,0.0,0.0,0.0,0.0,0.0,0.0,0.0,0.0,0.0,0.0,0.0,0.0,0.0,0.0,0.0,0.0,0.0,0.0,0.0,0.0,0.0,0.0,0.0,0.0,0.0467,0.0641,0.0638,0.1102,0.1912,0.2894,0.3371,0.418,0.5253,0.6821,0.7409,0.7449,0.8787,0.934,0.9408,0.9659,0.9048,0.7911,0.6263,0.458,0.2939,0.1315,0.0443,0.0514,0.3558,0.608,0.8273,1.0103,1.0649,1.0663,1.0711,1.0717,1.0697,1.0609,1.0622,1.0649,1.0649,1.0683,1.0717,1.0717,1.0739,1.0779,1.0738,1.0806,1.0779,1.0738,1.2157,1.3456,1.397,1.6625,1.8704,1.9228,2.0386,2.1109,2.1109,2.1109,2.1109,2.1109,2.139,2.1804,2.2392,2.2418,2.2552,2.2914,2.3073,2.2471,2.1117,2.2917,2.3808,2.3915,2.4903,2.5424,2.5531,2.6026,2.6306,2.6386,2.648,2.6466,2.64,2.648,2.664,2.6827,2.6827,2.7134,2.7575,2.7669,2.7829,2.8114,0.0,0.0,0.0,0.0,0.0,0.0,0.0,0.0,0.0,0.0,0.0,0.0,0.0,0.0,0.0,0.0,0.0,0.0,0.0,0.0,0.0,0.0,0.0,0.0,0.0,0.0,0.0,0.0,0.0,0.0,0.0,0.0,0.0471,0.1352,0.201,0.2775,0.3691,0.5276,0.6235,0.6872,0.8055,0.8469,0.8543,0.8757,0.7856,0.6198,0.4548,0.3355,0.2268,0.0568,0.0,0.0652,0.4287,0.6121,0.7431,0.9981,1.0717,1.0717,1.0717,1.0717,1.0731,1.0799,1.0765,1.0738,1.0799,1.0812,1.0826,1.088,1.0968,1.1002,1.0914,1.0928,1.0853,1.0759,1.1607,1.2503,1.3294,1.5204,1.6804,1.7544,1.8529,1.9386,2.0105,2.0068,2.0489,2.1379,2.1617,2.1977,2.2565,2.2592,2.2385,2.1899,2.2109,2.1327,1.9305,2.0789,2.1945,2.2764,2.3667,2.4609,2.5531,2.5999,2.6279,2.6386,2.6386,2.6386,2.6386,2.6386,2.6627,2.7001,2.7001,2.7362,2.7869,2.7869,2.8073,2.8221,0.0,0.0,0.0,0.0,0.0,0.0,0.0,0.0,0.0,0.0,0.0,0.0,0.0,0.0,0.0,0.0,0.0,0.0,0.0,0.0,0.0,0.0,0.0,0.0,0.0,0.0,0.0,0.0,0.0,0.0,0.0,0.0,0.0,0.0059,0.1623,0.2158,0.2127,0.3766,0.5225,0.6516,0.6754,0.6872,0.6911,0.7074,0.6145,0.4496,0.3022,0.2432,0.2024,0.0508,0.0,0.0595,0.4075,0.5295,0.6097,0.9443,1.0585,1.0724,1.0738,1.0744,1.0778,1.086,1.0725,1.0592,1.0867,1.09,1.1002,1.1138,1.1241,1.1179,1.1234,1.1063,1.0914,1.09,1.0853,1.1333,1.3076,1.3428,1.4159,1.5943,1.6131,1.6751,1.8333,1.8518,1.9508,2.1846,2.1912,2.2031,2.2667,2.25,2.1716,2.0119,2.0301,1.9475,1.7497,1.7714,1.8927,2.092,2.1453,2.2818,2.4929,2.5283,2.5701,2.6069,2.6122,2.6215,2.636,2.6373,2.672,2.7228,2.7255,2.7615,2.8194,2.8221,2.8221,2.8221,0.0,0.0,0.0,0.0,0.0,0.0,0.0,0.0,0.0,0.0,0.0,0.0,0.0,0.0,0.0,0.0,0.0,0.0,0.0,0.0,0.0,0.0,0.0,0.0,0.0,0.0,0.0,0.0,0.0,0.0,0.0,0.0,0.0,0.0,0.0377,0.0499,0.0559,0.2117,0.293,0.3346,0.4657,0.5204,0.523,0.5373,0.4459,0.2945,0.2632,0.1658,0.0458,0.0132,0.0,0.0402,0.2617,0.4225,0.583,0.7964,0.9576,1.0744,1.0799,1.0833,1.0934,1.1084,0.9979,0.9205,1.076,1.1118,1.1124,1.1158,1.126,1.1307,1.1185,1.1233,1.1253,1.1138,1.109,1.1214,1.1653,1.287,1.39,1.4343,1.5518,1.65,1.6835,1.8206,1.9983,2.2164,2.1021,2.0455,2.0849,1.9547,1.8651,1.828,1.8497,1.7724,1.565,1.5908,1.6983,1.8768,1.9479,2.0029,2.0462,2.1004,2.1987,2.3344,2.369,2.4648,2.6066,2.6293,2.66,2.6934,2.7175,2.7482,2.7829,2.814,2.8221,2.8221,0.0,0.0,0.0,0.0,0.0,0.0,0.0,0.0,0.0,0.0,0.0,0.0,0.0,0.0,0.0,0.0,0.0,0.0,0.0,0.0,0.0,0.0,0.0,0.0,0.0,0.0,0.0,0.0,0.0,0.0,0.0,0.0,0.0,0.0,0.0,0.0,0.0063,0.08,0.1583,0.2431,0.3314,0.362,0.3648,0.374,0.2734,0.1324,0.1324,0.0771,0.0,0.0,0.0,0.034,0.2103,0.3337,0.4447,0.6213,0.7442,0.8204,0.8265,0.828,0.8311,0.8488,0.7748,0.7533,0.9503,0.9198,0.8829,0.9888,1.0149,1.0517,1.1462,1.1538,1.1497,1.1484,1.1362,1.1301,1.1369,1.2211,1.2765,1.2765,1.3514,1.431,1.51,1.6943,1.854,1.9747,1.91,1.879,1.9029,1.831,1.7478,1.6527,1.6712,1.5917,1.3893,1.3976,1.4505,1.5472,1.6762,1.799,1.8983,1.9348,2.0673,2.2721,2.2914,2.4232,2.6172,2.6333,2.656,2.6854,2.7148,2.7442,2.7736,2.8114,2.8221,2.8221,0.0,0.0,0.0,0.0,0.0,0.0,0.0,0.0,0.0,0.0,0.0,0.0,0.0,0.0,0.0,0.0,0.0,0.0,0.0,0.0,0.0,0.0,0.0,0.0,0.0,0.0,0.0,0.0,0.0,0.0,0.0,0.0,0.0,0.0,0.0,0.0,0.0,0.0,0.0802,0.2092,0.2065,0.2074,0.2102,0.2102,0.1188,0.0,0.0,0.0,0.0,0.0,0.0,0.0275,0.1783,0.2423,0.3007,0.4469,0.5162,0.5375,0.5457,0.5461,0.5481,0.557,0.5376,0.5594,0.7178,0.6585,0.6141,0.7989,0.8378,0.904,1.1151,1.1343,1.1292,1.1777,1.1667,1.1538,1.164,1.1681,1.1687,1.166,1.1545,1.2114,1.3758,1.5464,1.6628,1.7056,1.7132,1.7121,1.7223,1.7243,1.6391,1.4716,1.4887,1.4207,1.2501,1.2501,1.2515,1.2542,1.4214,1.6052,1.7903,1.797,1.9345,2.1727,2.2167,2.3672,2.5832,2.6201,2.6533,2.6787,2.7134,2.7375,2.7589,2.7936,2.8181,2.8221,0.0,0.0,0.0,0.0,0.0,0.0,0.0,0.0,0.0,0.0,0.0,0.0,0.0,0.0,0.0,0.0,0.0,0.0,0.0,0.0,0.0,0.0,0.0,0.0,0.0,0.0,0.0,0.0,0.0,0.0,0.0,0.0,0.0,0.0,0.0,0.0,0.0,0.0,0.0123,0.0308,0.0308,0.031,0.0315,0.0315,0.0192,0.0,0.0,0.0,0.0,0.0,0.0,0.0069,0.0275,0.1455,0.2728,0.3007,0.419,0.5454,0.5521,0.5608,0.557,0.571,0.4493,0.3325,0.3586,0.4758,0.5853,0.6145,0.6244,0.6856,0.8965,0.9318,0.9904,1.1722,1.1999,1.1932,1.1816,1.1918,1.1952,1.1816,1.1782,1.2482,1.4394,1.4842,1.5723,1.7441,1.6259,1.5426,1.5452,1.4191,1.3219,1.2853,1.3007,1.2865,1.2501,1.2501,1.2569,1.2698,1.2934,1.3248,1.359,1.3865,1.5048,1.7083,1.9165,2.1263,2.3387,2.5556,2.6413,2.6507,2.7054,2.7134,2.7014,2.7562,2.7923,2.8221,0.0,0.0,0.0,0.0,0.0,0.0,0.0,0.0,0.0,0.0,0.0,0.0,0.0,0.0,0.0,0.0,0.0,0.0,0.0,0.0,0.0,0.0,0.0,0.0,0.0,0.0,0.0,0.0,0.0,0.0,0.0,0.0,0.0,0.0,0.0,0.0,0.0,0.0,0.0,0.0,0.0,0.0,0.0,0.0,0.0,0.0,0.0,0.0,0.0,0.0,0.0,0.0,0.0,0.0567,0.1218,0.1218,0.1789,0.2363,0.2449,0.2467,0.2487,0.2516,0.194,0.1282,0.1307,0.192,0.291,0.4074,0.4256,0.4976,0.7073,0.7342,0.7999,1.0227,1.055,1.0863,1.1945,1.2149,1.2135,1.1979,1.1959,1.2321,1.3133,1.3273,1.3637,1.462,1.3958,1.3596,1.3603,1.2986,1.261,1.263,1.2698,1.2739,1.2759,1.2759,1.2793,1.2861,1.2942,1.2935,1.2861,1.2996,1.4253,1.6338,1.8727,2.092,2.3055,2.5437,2.6386,2.6426,2.6854,2.7134,2.7348,2.7602,2.7883,2.8221]}]]